<?xml version="1.0" encoding="UTF-8"?>
<gpx version="1.1" creator="https://www.youtrack.es" xsi:schemaLocation="http://www.topografix.com/GPX/1/1 http://www.topografix.com/GPX/1/1/gpx.xsd http://www.garmin.com/xmlschemas/GpxExtensions/v3 http://www.garmin.com/xmlschemas/GpxExtensionsv3.xsd http://www.garmin.com/xmlschemas/TrackPointExtension/v1 http://www.garmin.com/xmlschemas/TrackPointExtensionv1.xsd" xmlns:gpxtpx="http://www.garmin.com/xmlschemas/TrackPointExtension/v1" xmlns:gpxx="http://www.garmin.com/xmlschemas/GpxExtensions/v3" xmlns:xsi="http://www.w3.org/2001/XMLSchema-instance">
  <metadata>
    <link href="https://www.youtrack.es">
      <text>YouTrack.es</text>
    </link>
    <time>2026-05-08T00:34:25Z</time>
  </metadata>
  <trk>
    <src>https://www.youtrack.es</src>
    <link href="https://www.youtrack.es/ruta/19687-archanda--1-">
      <text>YouTrack.es</text>
    </link>
    <trkseg>
      <trkpt lat="43.2681080" lon="-2.9481550">
        <ele>8.0</ele>
        <time>2021-02-19T16:54:26Z</time>
      </trkpt>
      <trkpt lat="43.2680990" lon="-2.9482050">
        <ele>7.8</ele>
        <time>2021-02-19T16:54:27Z</time>
      </trkpt>
      <trkpt lat="43.2680760" lon="-2.9483060">
        <ele>6.8</ele>
        <time>2021-02-19T16:54:29Z</time>
      </trkpt>
      <trkpt lat="43.2680190" lon="-2.9487060">
        <ele>6.4</ele>
        <time>2021-02-19T16:54:36Z</time>
      </trkpt>
      <trkpt lat="43.2679810" lon="-2.9489680">
        <ele>7.0</ele>
        <time>2021-02-19T16:54:42Z</time>
      </trkpt>
      <trkpt lat="43.2679890" lon="-2.9490570">
        <ele>7.0</ele>
        <time>2021-02-19T16:54:45Z</time>
      </trkpt>
      <trkpt lat="43.2680130" lon="-2.9490800">
        <ele>7.0</ele>
        <time>2021-02-19T16:54:46Z</time>
      </trkpt>
      <trkpt lat="43.2680760" lon="-2.9493420">
        <ele>6.8</ele>
        <time>2021-02-19T16:54:52Z</time>
      </trkpt>
      <trkpt lat="43.2680620" lon="-2.9494560">
        <ele>6.8</ele>
        <time>2021-02-19T16:54:53Z</time>
      </trkpt>
      <trkpt lat="43.2680460" lon="-2.9495820">
        <ele>6.8</ele>
        <time>2021-02-19T16:54:55Z</time>
      </trkpt>
      <trkpt lat="43.2680390" lon="-2.9497110">
        <ele>6.6</ele>
        <time>2021-02-19T16:54:57Z</time>
      </trkpt>
      <trkpt lat="43.2680440" lon="-2.9497750">
        <ele>6.4</ele>
        <time>2021-02-19T16:54:58Z</time>
      </trkpt>
      <trkpt lat="43.2680390" lon="-2.9498430">
        <ele>6.2</ele>
        <time>2021-02-19T16:54:59Z</time>
      </trkpt>
      <trkpt lat="43.2680320" lon="-2.9500830">
        <ele>5.6</ele>
        <time>2021-02-19T16:55:02Z</time>
      </trkpt>
      <trkpt lat="43.2680370" lon="-2.9501280">
        <ele>5.4</ele>
        <time>2021-02-19T16:55:03Z</time>
      </trkpt>
      <trkpt lat="43.2680410" lon="-2.9501740">
        <ele>5.4</ele>
        <time>2021-02-19T16:55:04Z</time>
      </trkpt>
      <trkpt lat="43.2680490" lon="-2.9502600">
        <ele>5.2</ele>
        <time>2021-02-19T16:55:05Z</time>
      </trkpt>
      <trkpt lat="43.2680540" lon="-2.9504130">
        <ele>5.0</ele>
        <time>2021-02-19T16:55:07Z</time>
      </trkpt>
      <trkpt lat="43.2680420" lon="-2.9505590">
        <ele>4.8</ele>
        <time>2021-02-19T16:55:09Z</time>
      </trkpt>
      <trkpt lat="43.2680250" lon="-2.9507630">
        <ele>4.6</ele>
        <time>2021-02-19T16:55:11Z</time>
      </trkpt>
      <trkpt lat="43.2680430" lon="-2.9509660">
        <ele>4.8</ele>
        <time>2021-02-19T16:55:15Z</time>
      </trkpt>
      <trkpt lat="43.2680150" lon="-2.9510700">
        <ele>4.8</ele>
        <time>2021-02-19T16:55:16Z</time>
      </trkpt>
      <trkpt lat="43.2680210" lon="-2.9511190">
        <ele>5.0</ele>
        <time>2021-02-19T16:55:17Z</time>
      </trkpt>
      <trkpt lat="43.2680230" lon="-2.9511680">
        <ele>5.0</ele>
        <time>2021-02-19T16:55:18Z</time>
      </trkpt>
      <trkpt lat="43.2680470" lon="-2.9513180">
        <ele>6.0</ele>
        <time>2021-02-19T16:55:22Z</time>
      </trkpt>
      <trkpt lat="43.2680380" lon="-2.9513700">
        <ele>6.2</ele>
        <time>2021-02-19T16:55:23Z</time>
      </trkpt>
      <trkpt lat="43.2680000" lon="-2.9515440">
        <ele>6.4</ele>
        <time>2021-02-19T16:55:26Z</time>
      </trkpt>
      <trkpt lat="43.2679900" lon="-2.9516840">
        <ele>6.6</ele>
        <time>2021-02-19T16:55:28Z</time>
      </trkpt>
      <trkpt lat="43.2679930" lon="-2.9517480">
        <ele>6.6</ele>
        <time>2021-02-19T16:55:29Z</time>
      </trkpt>
      <trkpt lat="43.2679950" lon="-2.9518050">
        <ele>6.8</ele>
        <time>2021-02-19T16:55:30Z</time>
      </trkpt>
      <trkpt lat="43.2679810" lon="-2.9518760">
        <ele>7.0</ele>
        <time>2021-02-19T16:55:32Z</time>
      </trkpt>
      <trkpt lat="43.2678730" lon="-2.9518850">
        <ele>7.2</ele>
        <time>2021-02-19T16:55:37Z</time>
      </trkpt>
      <trkpt lat="43.2678370" lon="-2.9518580">
        <ele>7.2</ele>
        <time>2021-02-19T16:55:39Z</time>
      </trkpt>
      <trkpt lat="43.2678230" lon="-2.9518450">
        <ele>7.2</ele>
        <time>2021-02-19T16:55:40Z</time>
      </trkpt>
      <trkpt lat="43.2678110" lon="-2.9518320">
        <ele>7.4</ele>
        <time>2021-02-19T16:55:41Z</time>
      </trkpt>
      <trkpt lat="43.2677750" lon="-2.9518140">
        <ele>7.4</ele>
        <time>2021-02-19T16:55:43Z</time>
      </trkpt>
      <trkpt lat="43.2676600" lon="-2.9518400">
        <ele>7.6</ele>
        <time>2021-02-19T16:55:46Z</time>
      </trkpt>
      <trkpt lat="43.2676350" lon="-2.9518370">
        <ele>7.6</ele>
        <time>2021-02-19T16:55:47Z</time>
      </trkpt>
      <trkpt lat="43.2675660" lon="-2.9518300">
        <ele>7.8</ele>
        <time>2021-02-19T16:55:49Z</time>
      </trkpt>
      <trkpt lat="43.2674650" lon="-2.9515810">
        <ele>8.0</ele>
        <time>2021-02-19T16:55:54Z</time>
      </trkpt>
      <trkpt lat="43.2673830" lon="-2.9513080">
        <ele>8.2</ele>
        <time>2021-02-19T16:55:57Z</time>
      </trkpt>
      <trkpt lat="43.2673490" lon="-2.9512440">
        <ele>8.0</ele>
        <time>2021-02-19T16:55:59Z</time>
      </trkpt>
      <trkpt lat="43.2672430" lon="-2.9510030">
        <ele>8.0</ele>
        <time>2021-02-19T16:56:02Z</time>
      </trkpt>
      <trkpt lat="43.2671400" lon="-2.9504750">
        <ele>7.8</ele>
        <time>2021-02-19T16:56:06Z</time>
      </trkpt>
      <trkpt lat="43.2671380" lon="-2.9502570">
        <ele>7.8</ele>
        <time>2021-02-19T16:56:08Z</time>
      </trkpt>
      <trkpt lat="43.2671950" lon="-2.9498300">
        <ele>7.4</ele>
        <time>2021-02-19T16:56:13Z</time>
      </trkpt>
      <trkpt lat="43.2673380" lon="-2.9493510">
        <ele>6.8</ele>
        <time>2021-02-19T16:56:18Z</time>
      </trkpt>
      <trkpt lat="43.2675710" lon="-2.9487690">
        <ele>7.8</ele>
        <time>2021-02-19T16:56:25Z</time>
      </trkpt>
      <trkpt lat="43.2677170" lon="-2.9482200">
        <ele>9.0</ele>
        <time>2021-02-19T16:56:33Z</time>
      </trkpt>
      <trkpt lat="43.2677730" lon="-2.9479270">
        <ele>10.2</ele>
        <time>2021-02-19T16:56:38Z</time>
      </trkpt>
      <trkpt lat="43.2677840" lon="-2.9478100">
        <ele>11.4</ele>
        <time>2021-02-19T16:56:40Z</time>
      </trkpt>
      <trkpt lat="43.2677810" lon="-2.9476380">
        <ele>12.4</ele>
        <time>2021-02-19T16:56:43Z</time>
      </trkpt>
      <trkpt lat="43.2677530" lon="-2.9473990">
        <ele>13.6</ele>
        <time>2021-02-19T16:56:47Z</time>
      </trkpt>
      <trkpt lat="43.2675820" lon="-2.9469130">
        <ele>14.6</ele>
        <time>2021-02-19T16:56:55Z</time>
      </trkpt>
      <trkpt lat="43.2675480" lon="-2.9468580">
        <ele>14.6</ele>
        <time>2021-02-19T16:56:56Z</time>
      </trkpt>
      <trkpt lat="43.2673520" lon="-2.9466080">
        <ele>15.0</ele>
        <time>2021-02-19T16:57:00Z</time>
      </trkpt>
      <trkpt lat="43.2668520" lon="-2.9462800">
        <ele>15.2</ele>
        <time>2021-02-19T16:57:11Z</time>
      </trkpt>
      <trkpt lat="43.2665860" lon="-2.9461200">
        <ele>15.8</ele>
        <time>2021-02-19T16:57:18Z</time>
      </trkpt>
      <trkpt lat="43.2663970" lon="-2.9460330">
        <ele>16.8</ele>
        <time>2021-02-19T16:57:23Z</time>
      </trkpt>
      <trkpt lat="43.2663110" lon="-2.9460360">
        <ele>16.8</ele>
        <time>2021-02-19T16:57:25Z</time>
      </trkpt>
      <trkpt lat="43.2662470" lon="-2.9460880">
        <ele>17.0</ele>
        <time>2021-02-19T16:57:27Z</time>
      </trkpt>
      <trkpt lat="43.2660760" lon="-2.9462910">
        <ele>17.4</ele>
        <time>2021-02-19T16:57:32Z</time>
      </trkpt>
      <trkpt lat="43.2660350" lon="-2.9463880">
        <ele>17.6</ele>
        <time>2021-02-19T16:57:34Z</time>
      </trkpt>
      <trkpt lat="43.2659350" lon="-2.9471890">
        <ele>17.4</ele>
        <time>2021-02-19T16:57:43Z</time>
      </trkpt>
      <trkpt lat="43.2658810" lon="-2.9476080">
        <ele>15.4</ele>
        <time>2021-02-19T16:57:46Z</time>
      </trkpt>
      <trkpt lat="43.2658430" lon="-2.9478960">
        <ele>13.2</ele>
        <time>2021-02-19T16:57:48Z</time>
      </trkpt>
      <trkpt lat="43.2658220" lon="-2.9480350">
        <ele>12.0</ele>
        <time>2021-02-19T16:57:49Z</time>
      </trkpt>
      <trkpt lat="43.2658020" lon="-2.9481680">
        <ele>10.8</ele>
        <time>2021-02-19T16:57:50Z</time>
      </trkpt>
      <trkpt lat="43.2657820" lon="-2.9482960">
        <ele>9.2</ele>
        <time>2021-02-19T16:57:51Z</time>
      </trkpt>
      <trkpt lat="43.2657440" lon="-2.9485400">
        <ele>8.2</ele>
        <time>2021-02-19T16:57:52Z</time>
      </trkpt>
      <trkpt lat="43.2657250" lon="-2.9486560">
        <ele>7.2</ele>
        <time>2021-02-19T16:57:54Z</time>
      </trkpt>
      <trkpt lat="43.2656320" lon="-2.9494150">
        <ele>6.2</ele>
        <time>2021-02-19T16:58:00Z</time>
      </trkpt>
      <trkpt lat="43.2655580" lon="-2.9502450">
        <ele>6.4</ele>
        <time>2021-02-19T16:58:08Z</time>
      </trkpt>
      <trkpt lat="43.2654540" lon="-2.9510190">
        <ele>7.0</ele>
        <time>2021-02-19T16:58:16Z</time>
      </trkpt>
      <trkpt lat="43.2654360" lon="-2.9512840">
        <ele>8.0</ele>
        <time>2021-02-19T16:58:20Z</time>
      </trkpt>
      <trkpt lat="43.2654140" lon="-2.9514610">
        <ele>8.2</ele>
        <time>2021-02-19T16:58:21Z</time>
      </trkpt>
      <trkpt lat="43.2653340" lon="-2.9519880">
        <ele>8.2</ele>
        <time>2021-02-19T16:58:28Z</time>
      </trkpt>
      <trkpt lat="43.2652420" lon="-2.9528210">
        <ele>8.0</ele>
        <time>2021-02-19T16:58:37Z</time>
      </trkpt>
      <trkpt lat="43.2652120" lon="-2.9529800">
        <ele>8.0</ele>
        <time>2021-02-19T16:58:40Z</time>
      </trkpt>
      <trkpt lat="43.2651360" lon="-2.9530970">
        <ele>8.0</ele>
        <time>2021-02-19T16:58:42Z</time>
      </trkpt>
      <trkpt lat="43.2650260" lon="-2.9531520">
        <ele>8.2</ele>
        <time>2021-02-19T16:58:44Z</time>
      </trkpt>
      <trkpt lat="43.2646680" lon="-2.9533600">
        <ele>9.4</ele>
        <time>2021-02-19T16:58:56Z</time>
      </trkpt>
      <trkpt lat="43.2646170" lon="-2.9534830">
        <ele>10.6</ele>
        <time>2021-02-19T16:59:00Z</time>
      </trkpt>
      <trkpt lat="43.2645930" lon="-2.9536170">
        <ele>11.8</ele>
        <time>2021-02-19T16:59:04Z</time>
      </trkpt>
      <trkpt lat="43.2646010" lon="-2.9536390">
        <ele>12.6</ele>
        <time>2021-02-19T16:59:07Z</time>
      </trkpt>
      <trkpt lat="43.2645700" lon="-2.9538750">
        <ele>13.8</ele>
        <time>2021-02-19T17:00:37Z</time>
      </trkpt>
      <trkpt lat="43.2644660" lon="-2.9540810">
        <ele>13.8</ele>
        <time>2021-02-19T17:00:43Z</time>
      </trkpt>
      <trkpt lat="43.2644450" lon="-2.9542000">
        <ele>13.8</ele>
        <time>2021-02-19T17:00:45Z</time>
      </trkpt>
      <trkpt lat="43.2644330" lon="-2.9543260">
        <ele>14.4</ele>
        <time>2021-02-19T17:00:47Z</time>
      </trkpt>
      <trkpt lat="43.2644170" lon="-2.9544540">
        <ele>15.2</ele>
        <time>2021-02-19T17:00:48Z</time>
      </trkpt>
      <trkpt lat="43.2644100" lon="-2.9545200">
        <ele>16.4</ele>
        <time>2021-02-19T17:00:50Z</time>
      </trkpt>
      <trkpt lat="43.2643920" lon="-2.9546530">
        <ele>17.0</ele>
        <time>2021-02-19T17:00:52Z</time>
      </trkpt>
      <trkpt lat="43.2643770" lon="-2.9547830">
        <ele>17.4</ele>
        <time>2021-02-19T17:00:54Z</time>
      </trkpt>
      <trkpt lat="43.2643550" lon="-2.9553940">
        <ele>18.2</ele>
        <time>2021-02-19T17:01:02Z</time>
      </trkpt>
      <trkpt lat="43.2643790" lon="-2.9556090">
        <ele>18.2</ele>
        <time>2021-02-19T17:01:05Z</time>
      </trkpt>
      <trkpt lat="43.2644100" lon="-2.9559200">
        <ele>18.2</ele>
        <time>2021-02-19T17:01:10Z</time>
      </trkpt>
      <trkpt lat="43.2644210" lon="-2.9559980">
        <ele>18.0</ele>
        <time>2021-02-19T17:01:11Z</time>
      </trkpt>
      <trkpt lat="43.2645040" lon="-2.9565730">
        <ele>16.4</ele>
        <time>2021-02-19T17:01:18Z</time>
      </trkpt>
      <trkpt lat="43.2645170" lon="-2.9566560">
        <ele>16.0</ele>
        <time>2021-02-19T17:01:19Z</time>
      </trkpt>
      <trkpt lat="43.2645450" lon="-2.9568250">
        <ele>15.8</ele>
        <time>2021-02-19T17:01:20Z</time>
      </trkpt>
      <trkpt lat="43.2645790" lon="-2.9570720">
        <ele>15.6</ele>
        <time>2021-02-19T17:01:23Z</time>
      </trkpt>
      <trkpt lat="43.2645910" lon="-2.9571550">
        <ele>15.4</ele>
        <time>2021-02-19T17:01:24Z</time>
      </trkpt>
      <trkpt lat="43.2645910" lon="-2.9571550">
        <ele>15.2</ele>
        <time>2021-02-19T17:01:25Z</time>
      </trkpt>
      <trkpt lat="43.2646860" lon="-2.9579110">
        <ele>14.6</ele>
        <time>2021-02-19T17:01:33Z</time>
      </trkpt>
      <trkpt lat="43.2647260" lon="-2.9581850">
        <ele>14.6</ele>
        <time>2021-02-19T17:01:37Z</time>
      </trkpt>
      <trkpt lat="43.2647500" lon="-2.9583750">
        <ele>14.6</ele>
        <time>2021-02-19T17:01:38Z</time>
      </trkpt>
      <trkpt lat="43.2647620" lon="-2.9584750">
        <ele>14.4</ele>
        <time>2021-02-19T17:01:39Z</time>
      </trkpt>
      <trkpt lat="43.2648000" lon="-2.9587470">
        <ele>14.0</ele>
        <time>2021-02-19T17:01:42Z</time>
      </trkpt>
      <trkpt lat="43.2648310" lon="-2.9588160">
        <ele>14.0</ele>
        <time>2021-02-19T17:01:44Z</time>
      </trkpt>
      <trkpt lat="43.2649560" lon="-2.9589790">
        <ele>13.8</ele>
        <time>2021-02-19T17:01:46Z</time>
      </trkpt>
      <trkpt lat="43.2650710" lon="-2.9591180">
        <ele>14.0</ele>
        <time>2021-02-19T17:01:49Z</time>
      </trkpt>
      <trkpt lat="43.2654180" lon="-2.9597030">
        <ele>14.6</ele>
        <time>2021-02-19T17:02:00Z</time>
      </trkpt>
      <trkpt lat="43.2656890" lon="-2.9602060">
        <ele>14.6</ele>
        <time>2021-02-19T17:02:09Z</time>
      </trkpt>
      <trkpt lat="43.2659270" lon="-2.9604960">
        <ele>14.4</ele>
        <time>2021-02-19T17:02:16Z</time>
      </trkpt>
      <trkpt lat="43.2660460" lon="-2.9606970">
        <ele>14.2</ele>
        <time>2021-02-19T17:02:19Z</time>
      </trkpt>
      <trkpt lat="43.2661300" lon="-2.9607990">
        <ele>14.2</ele>
        <time>2021-02-19T17:02:21Z</time>
      </trkpt>
      <trkpt lat="43.2665520" lon="-2.9613090">
        <ele>14.2</ele>
        <time>2021-02-19T17:02:30Z</time>
      </trkpt>
      <trkpt lat="43.2666430" lon="-2.9614180">
        <ele>14.0</ele>
        <time>2021-02-19T17:02:33Z</time>
      </trkpt>
      <trkpt lat="43.2667050" lon="-2.9615690">
        <ele>14.0</ele>
        <time>2021-02-19T17:02:35Z</time>
      </trkpt>
      <trkpt lat="43.2667710" lon="-2.9618240">
        <ele>13.8</ele>
        <time>2021-02-19T17:02:38Z</time>
      </trkpt>
      <trkpt lat="43.2669100" lon="-2.9619120">
        <ele>13.6</ele>
        <time>2021-02-19T17:02:40Z</time>
      </trkpt>
      <trkpt lat="43.2669540" lon="-2.9618830">
        <ele>13.2</ele>
        <time>2021-02-19T17:02:42Z</time>
      </trkpt>
      <trkpt lat="43.2669910" lon="-2.9618400">
        <ele>12.8</ele>
        <time>2021-02-19T17:02:43Z</time>
      </trkpt>
      <trkpt lat="43.2670290" lon="-2.9618070">
        <ele>12.6</ele>
        <time>2021-02-19T17:02:44Z</time>
      </trkpt>
      <trkpt lat="43.2671030" lon="-2.9618180">
        <ele>11.6</ele>
        <time>2021-02-19T17:02:46Z</time>
      </trkpt>
      <trkpt lat="43.2671870" lon="-2.9619580">
        <ele>11.2</ele>
        <time>2021-02-19T17:02:48Z</time>
      </trkpt>
      <trkpt lat="43.2672760" lon="-2.9621290">
        <ele>10.6</ele>
        <time>2021-02-19T17:02:51Z</time>
      </trkpt>
      <trkpt lat="43.2676990" lon="-2.9627110">
        <ele>10.0</ele>
        <time>2021-02-19T17:03:01Z</time>
      </trkpt>
      <trkpt lat="43.2681470" lon="-2.9632040">
        <ele>9.8</ele>
        <time>2021-02-19T17:03:10Z</time>
      </trkpt>
      <trkpt lat="43.2685950" lon="-2.9636930">
        <ele>9.6</ele>
        <time>2021-02-19T17:03:21Z</time>
      </trkpt>
      <trkpt lat="43.2690470" lon="-2.9641370">
        <ele>9.8</ele>
        <time>2021-02-19T17:03:32Z</time>
      </trkpt>
      <trkpt lat="43.2694990" lon="-2.9645670">
        <ele>9.8</ele>
        <time>2021-02-19T17:03:42Z</time>
      </trkpt>
      <trkpt lat="43.2697450" lon="-2.9648020">
        <ele>9.4</ele>
        <time>2021-02-19T17:03:47Z</time>
      </trkpt>
      <trkpt lat="43.2702300" lon="-2.9652410">
        <ele>9.0</ele>
        <time>2021-02-19T17:03:56Z</time>
      </trkpt>
      <trkpt lat="43.2703520" lon="-2.9653200">
        <ele>8.8</ele>
        <time>2021-02-19T17:03:58Z</time>
      </trkpt>
      <trkpt lat="43.2708990" lon="-2.9656460">
        <ele>8.8</ele>
        <time>2021-02-19T17:04:08Z</time>
      </trkpt>
      <trkpt lat="43.2714750" lon="-2.9659540">
        <ele>9.0</ele>
        <time>2021-02-19T17:04:17Z</time>
      </trkpt>
      <trkpt lat="43.2718030" lon="-2.9661270">
        <ele>8.4</ele>
        <time>2021-02-19T17:04:22Z</time>
      </trkpt>
      <trkpt lat="43.2723290" lon="-2.9664630">
        <ele>7.8</ele>
        <time>2021-02-19T17:04:30Z</time>
      </trkpt>
      <trkpt lat="43.2728030" lon="-2.9669100">
        <ele>7.8</ele>
        <time>2021-02-19T17:04:38Z</time>
      </trkpt>
      <trkpt lat="43.2729670" lon="-2.9670540">
        <ele>7.8</ele>
        <time>2021-02-19T17:04:41Z</time>
      </trkpt>
      <trkpt lat="43.2732550" lon="-2.9673150">
        <ele>7.4</ele>
        <time>2021-02-19T17:04:47Z</time>
      </trkpt>
      <trkpt lat="43.2736800" lon="-2.9678730">
        <ele>6.8</ele>
        <time>2021-02-19T17:04:55Z</time>
      </trkpt>
      <trkpt lat="43.2741170" lon="-2.9685070">
        <ele>7.0</ele>
        <time>2021-02-19T17:05:03Z</time>
      </trkpt>
      <trkpt lat="43.2743460" lon="-2.9688300">
        <ele>8.4</ele>
        <time>2021-02-19T17:05:10Z</time>
      </trkpt>
      <trkpt lat="43.2744570" lon="-2.9689510">
        <ele>9.6</ele>
        <time>2021-02-19T17:05:13Z</time>
      </trkpt>
      <trkpt lat="43.2746580" lon="-2.9691270">
        <ele>10.8</ele>
        <time>2021-02-19T17:05:17Z</time>
      </trkpt>
      <trkpt lat="43.2747500" lon="-2.9691900">
        <ele>11.8</ele>
        <time>2021-02-19T17:05:19Z</time>
      </trkpt>
      <trkpt lat="43.2750630" lon="-2.9693450">
        <ele>12.8</ele>
        <time>2021-02-19T17:05:25Z</time>
      </trkpt>
      <trkpt lat="43.2754430" lon="-2.9695450">
        <ele>13.4</ele>
        <time>2021-02-19T17:05:32Z</time>
      </trkpt>
      <trkpt lat="43.2757830" lon="-2.9697200">
        <ele>13.4</ele>
        <time>2021-02-19T17:05:37Z</time>
      </trkpt>
      <trkpt lat="43.2763830" lon="-2.9699340">
        <ele>11.4</ele>
        <time>2021-02-19T17:05:44Z</time>
      </trkpt>
      <trkpt lat="43.2765480" lon="-2.9699500">
        <ele>10.4</ele>
        <time>2021-02-19T17:05:46Z</time>
      </trkpt>
      <trkpt lat="43.2767050" lon="-2.9699690">
        <ele>9.4</ele>
        <time>2021-02-19T17:05:48Z</time>
      </trkpt>
      <trkpt lat="43.2770020" lon="-2.9700250">
        <ele>9.0</ele>
        <time>2021-02-19T17:05:53Z</time>
      </trkpt>
      <trkpt lat="43.2771860" lon="-2.9700490">
        <ele>9.0</ele>
        <time>2021-02-19T17:05:55Z</time>
      </trkpt>
      <trkpt lat="43.2772380" lon="-2.9700740">
        <ele>8.8</ele>
        <time>2021-02-19T17:05:57Z</time>
      </trkpt>
      <trkpt lat="43.2773310" lon="-2.9701520">
        <ele>9.0</ele>
        <time>2021-02-19T17:05:59Z</time>
      </trkpt>
      <trkpt lat="43.2774330" lon="-2.9702080">
        <ele>9.0</ele>
        <time>2021-02-19T17:06:01Z</time>
      </trkpt>
      <trkpt lat="43.2775120" lon="-2.9703240">
        <ele>9.2</ele>
        <time>2021-02-19T17:06:03Z</time>
      </trkpt>
      <trkpt lat="43.2777060" lon="-2.9709320">
        <ele>10.6</ele>
        <time>2021-02-19T17:06:12Z</time>
      </trkpt>
      <trkpt lat="43.2780600" lon="-2.9714250">
        <ele>11.6</ele>
        <time>2021-02-19T17:06:21Z</time>
      </trkpt>
      <trkpt lat="43.2781670" lon="-2.9714410">
        <ele>11.4</ele>
        <time>2021-02-19T17:06:23Z</time>
      </trkpt>
      <trkpt lat="43.2787250" lon="-2.9712800">
        <ele>10.8</ele>
        <time>2021-02-19T17:06:32Z</time>
      </trkpt>
      <trkpt lat="43.2792970" lon="-2.9711280">
        <ele>10.8</ele>
        <time>2021-02-19T17:06:42Z</time>
      </trkpt>
      <trkpt lat="43.2796130" lon="-2.9710540">
        <ele>11.0</ele>
        <time>2021-02-19T17:06:48Z</time>
      </trkpt>
      <trkpt lat="43.2796870" lon="-2.9710790">
        <ele>10.8</ele>
        <time>2021-02-19T17:06:50Z</time>
      </trkpt>
      <trkpt lat="43.2797120" lon="-2.9711820">
        <ele>10.8</ele>
        <time>2021-02-19T17:06:52Z</time>
      </trkpt>
      <trkpt lat="43.2796850" lon="-2.9713100">
        <ele>10.6</ele>
        <time>2021-02-19T17:06:54Z</time>
      </trkpt>
      <trkpt lat="43.2796820" lon="-2.9714710">
        <ele>10.4</ele>
        <time>2021-02-19T17:06:56Z</time>
      </trkpt>
      <trkpt lat="43.2797130" lon="-2.9720470">
        <ele>9.6</ele>
        <time>2021-02-19T17:07:02Z</time>
      </trkpt>
      <trkpt lat="43.2797010" lon="-2.9722560">
        <ele>9.2</ele>
        <time>2021-02-19T17:07:04Z</time>
      </trkpt>
      <trkpt lat="43.2796200" lon="-2.9724160">
        <ele>8.8</ele>
        <time>2021-02-19T17:07:06Z</time>
      </trkpt>
      <trkpt lat="43.2794240" lon="-2.9725260">
        <ele>8.6</ele>
        <time>2021-02-19T17:07:08Z</time>
      </trkpt>
      <trkpt lat="43.2789140" lon="-2.9728000">
        <ele>7.4</ele>
        <time>2021-02-19T17:07:16Z</time>
      </trkpt>
      <trkpt lat="43.2786440" lon="-2.9729500">
        <ele>6.2</ele>
        <time>2021-02-19T17:07:20Z</time>
      </trkpt>
      <trkpt lat="43.2781800" lon="-2.9731930">
        <ele>5.6</ele>
        <time>2021-02-19T17:07:26Z</time>
      </trkpt>
      <trkpt lat="43.2776690" lon="-2.9734650">
        <ele>5.6</ele>
        <time>2021-02-19T17:07:36Z</time>
      </trkpt>
      <trkpt lat="43.2775030" lon="-2.9735790">
        <ele>7.0</ele>
        <time>2021-02-19T17:07:42Z</time>
      </trkpt>
      <trkpt lat="43.2774730" lon="-2.9736060">
        <ele>7.6</ele>
        <time>2021-02-19T17:07:44Z</time>
      </trkpt>
      <trkpt lat="43.2773800" lon="-2.9736750">
        <ele>8.6</ele>
        <time>2021-02-19T17:07:50Z</time>
      </trkpt>
      <trkpt lat="43.2773070" lon="-2.9736890">
        <ele>9.0</ele>
        <time>2021-02-19T17:07:57Z</time>
      </trkpt>
      <trkpt lat="43.2772560" lon="-2.9737370">
        <ele>9.2</ele>
        <time>2021-02-19T17:09:05Z</time>
      </trkpt>
      <trkpt lat="43.2772500" lon="-2.9737700">
        <ele>9.6</ele>
        <time>2021-02-19T17:09:06Z</time>
      </trkpt>
      <trkpt lat="43.2772690" lon="-2.9739630">
        <ele>9.0</ele>
        <time>2021-02-19T17:09:10Z</time>
      </trkpt>
      <trkpt lat="43.2775110" lon="-2.9746690">
        <ele>8.8</ele>
        <time>2021-02-19T17:09:19Z</time>
      </trkpt>
      <trkpt lat="43.2777480" lon="-2.9754020">
        <ele>8.6</ele>
        <time>2021-02-19T17:09:29Z</time>
      </trkpt>
      <trkpt lat="43.2777750" lon="-2.9754670">
        <ele>8.6</ele>
        <time>2021-02-19T17:09:30Z</time>
      </trkpt>
      <trkpt lat="43.2778480" lon="-2.9755750">
        <ele>8.6</ele>
        <time>2021-02-19T17:09:32Z</time>
      </trkpt>
      <trkpt lat="43.2779060" lon="-2.9757100">
        <ele>8.6</ele>
        <time>2021-02-19T17:09:34Z</time>
      </trkpt>
      <trkpt lat="43.2779400" lon="-2.9759550">
        <ele>8.8</ele>
        <time>2021-02-19T17:09:37Z</time>
      </trkpt>
      <trkpt lat="43.2779710" lon="-2.9761190">
        <ele>9.0</ele>
        <time>2021-02-19T17:09:39Z</time>
      </trkpt>
      <trkpt lat="43.2779940" lon="-2.9761990">
        <ele>9.2</ele>
        <time>2021-02-19T17:09:40Z</time>
      </trkpt>
      <trkpt lat="43.2780460" lon="-2.9763570">
        <ele>9.4</ele>
        <time>2021-02-19T17:09:42Z</time>
      </trkpt>
      <trkpt lat="43.2780710" lon="-2.9764350">
        <ele>9.4</ele>
        <time>2021-02-19T17:09:43Z</time>
      </trkpt>
      <trkpt lat="43.2780960" lon="-2.9765130">
        <ele>9.6</ele>
        <time>2021-02-19T17:09:44Z</time>
      </trkpt>
      <trkpt lat="43.2781210" lon="-2.9765930">
        <ele>9.8</ele>
        <time>2021-02-19T17:09:45Z</time>
      </trkpt>
      <trkpt lat="43.2782170" lon="-2.9769020">
        <ele>10.8</ele>
        <time>2021-02-19T17:09:49Z</time>
      </trkpt>
      <trkpt lat="43.2782400" lon="-2.9769750">
        <ele>11.0</ele>
        <time>2021-02-19T17:09:50Z</time>
      </trkpt>
      <trkpt lat="43.2782910" lon="-2.9771300">
        <ele>11.4</ele>
        <time>2021-02-19T17:09:52Z</time>
      </trkpt>
      <trkpt lat="43.2783740" lon="-2.9773800">
        <ele>12.0</ele>
        <time>2021-02-19T17:09:55Z</time>
      </trkpt>
      <trkpt lat="43.2784010" lon="-2.9774660">
        <ele>12.0</ele>
        <time>2021-02-19T17:09:56Z</time>
      </trkpt>
      <trkpt lat="43.2784270" lon="-2.9775510">
        <ele>12.0</ele>
        <time>2021-02-19T17:09:57Z</time>
      </trkpt>
      <trkpt lat="43.2785810" lon="-2.9780430">
        <ele>12.4</ele>
        <time>2021-02-19T17:10:03Z</time>
      </trkpt>
      <trkpt lat="43.2786510" lon="-2.9782510">
        <ele>12.6</ele>
        <time>2021-02-19T17:10:06Z</time>
      </trkpt>
      <trkpt lat="43.2786790" lon="-2.9783160">
        <ele>12.8</ele>
        <time>2021-02-19T17:10:07Z</time>
      </trkpt>
      <trkpt lat="43.2787080" lon="-2.9783780">
        <ele>13.0</ele>
        <time>2021-02-19T17:10:08Z</time>
      </trkpt>
      <trkpt lat="43.2787400" lon="-2.9784340">
        <ele>13.2</ele>
        <time>2021-02-19T17:10:09Z</time>
      </trkpt>
      <trkpt lat="43.2787780" lon="-2.9784840">
        <ele>13.4</ele>
        <time>2021-02-19T17:10:10Z</time>
      </trkpt>
      <trkpt lat="43.2788210" lon="-2.9785260">
        <ele>13.8</ele>
        <time>2021-02-19T17:10:11Z</time>
      </trkpt>
      <trkpt lat="43.2788660" lon="-2.9785580">
        <ele>14.0</ele>
        <time>2021-02-19T17:10:12Z</time>
      </trkpt>
      <trkpt lat="43.2789100" lon="-2.9785880">
        <ele>14.2</ele>
        <time>2021-02-19T17:10:13Z</time>
      </trkpt>
      <trkpt lat="43.2790510" lon="-2.9786390">
        <ele>15.6</ele>
        <time>2021-02-19T17:10:16Z</time>
      </trkpt>
      <trkpt lat="43.2793680" lon="-2.9785910">
        <ele>16.8</ele>
        <time>2021-02-19T17:10:21Z</time>
      </trkpt>
      <trkpt lat="43.2796800" lon="-2.9784790">
        <ele>17.4</ele>
        <time>2021-02-19T17:10:28Z</time>
      </trkpt>
      <trkpt lat="43.2798640" lon="-2.9784200">
        <ele>17.4</ele>
        <time>2021-02-19T17:10:30Z</time>
      </trkpt>
      <trkpt lat="43.2798640" lon="-2.9784200">
        <ele>17.4</ele>
        <time>2021-02-19T17:10:31Z</time>
      </trkpt>
      <trkpt lat="43.2804040" lon="-2.9782150">
        <ele>17.0</ele>
        <time>2021-02-19T17:10:38Z</time>
      </trkpt>
      <trkpt lat="43.2807950" lon="-2.9780620">
        <ele>15.8</ele>
        <time>2021-02-19T17:10:45Z</time>
      </trkpt>
      <trkpt lat="43.2813720" lon="-2.9778510">
        <ele>15.0</ele>
        <time>2021-02-19T17:10:53Z</time>
      </trkpt>
      <trkpt lat="43.2815940" lon="-2.9777760">
        <ele>14.6</ele>
        <time>2021-02-19T17:10:56Z</time>
      </trkpt>
      <trkpt lat="43.2821310" lon="-2.9775270">
        <ele>13.8</ele>
        <time>2021-02-19T17:11:03Z</time>
      </trkpt>
      <trkpt lat="43.2824190" lon="-2.9773660">
        <ele>13.4</ele>
        <time>2021-02-19T17:11:07Z</time>
      </trkpt>
      <trkpt lat="43.2827270" lon="-2.9772110">
        <ele>12.6</ele>
        <time>2021-02-19T17:11:11Z</time>
      </trkpt>
      <trkpt lat="43.2829520" lon="-2.9770960">
        <ele>12.4</ele>
        <time>2021-02-19T17:11:14Z</time>
      </trkpt>
      <trkpt lat="43.2834830" lon="-2.9768360">
        <ele>11.6</ele>
        <time>2021-02-19T17:11:21Z</time>
      </trkpt>
      <trkpt lat="43.2838760" lon="-2.9766500">
        <ele>11.4</ele>
        <time>2021-02-19T17:11:25Z</time>
      </trkpt>
      <trkpt lat="43.2844070" lon="-2.9764100">
        <ele>11.0</ele>
        <time>2021-02-19T17:11:32Z</time>
      </trkpt>
      <trkpt lat="43.2849380" lon="-2.9761370">
        <ele>10.8</ele>
        <time>2021-02-19T17:11:40Z</time>
      </trkpt>
      <trkpt lat="43.2855060" lon="-2.9759510">
        <ele>10.6</ele>
        <time>2021-02-19T17:11:47Z</time>
      </trkpt>
      <trkpt lat="43.2860620" lon="-2.9758280">
        <ele>10.4</ele>
        <time>2021-02-19T17:11:53Z</time>
      </trkpt>
      <trkpt lat="43.2861430" lon="-2.9758110">
        <ele>10.4</ele>
        <time>2021-02-19T17:11:54Z</time>
      </trkpt>
      <trkpt lat="43.2867190" lon="-2.9757180">
        <ele>10.0</ele>
        <time>2021-02-19T17:12:01Z</time>
      </trkpt>
      <trkpt lat="43.2873240" lon="-2.9756070">
        <ele>10.0</ele>
        <time>2021-02-19T17:12:08Z</time>
      </trkpt>
      <trkpt lat="43.2879110" lon="-2.9755220">
        <ele>10.0</ele>
        <time>2021-02-19T17:12:16Z</time>
      </trkpt>
      <trkpt lat="43.2884860" lon="-2.9755470">
        <ele>10.2</ele>
        <time>2021-02-19T17:12:23Z</time>
      </trkpt>
      <trkpt lat="43.2890630" lon="-2.9756030">
        <ele>10.8</ele>
        <time>2021-02-19T17:12:30Z</time>
      </trkpt>
      <trkpt lat="43.2895220" lon="-2.9756070">
        <ele>10.2</ele>
        <time>2021-02-19T17:12:37Z</time>
      </trkpt>
      <trkpt lat="43.2897360" lon="-2.9755860">
        <ele>9.8</ele>
        <time>2021-02-19T17:12:43Z</time>
      </trkpt>
      <trkpt lat="43.2898160" lon="-2.9755440">
        <ele>9.8</ele>
        <time>2021-02-19T17:12:45Z</time>
      </trkpt>
      <trkpt lat="43.2899870" lon="-2.9754610">
        <ele>9.8</ele>
        <time>2021-02-19T17:12:50Z</time>
      </trkpt>
      <trkpt lat="43.2900210" lon="-2.9754930">
        <ele>10.0</ele>
        <time>2021-02-19T17:12:54Z</time>
      </trkpt>
      <trkpt lat="43.2900610" lon="-2.9755410">
        <ele>9.6</ele>
        <time>2021-02-19T17:13:55Z</time>
      </trkpt>
      <trkpt lat="43.2900760" lon="-2.9755730">
        <ele>9.6</ele>
        <time>2021-02-19T17:13:56Z</time>
      </trkpt>
      <trkpt lat="43.2900650" lon="-2.9759630">
        <ele>9.6</ele>
        <time>2021-02-19T17:14:04Z</time>
      </trkpt>
      <trkpt lat="43.2900950" lon="-2.9761130">
        <ele>9.6</ele>
        <time>2021-02-19T17:14:06Z</time>
      </trkpt>
      <trkpt lat="43.2901580" lon="-2.9762640">
        <ele>9.6</ele>
        <time>2021-02-19T17:14:08Z</time>
      </trkpt>
      <trkpt lat="43.2902950" lon="-2.9765030">
        <ele>9.6</ele>
        <time>2021-02-19T17:14:12Z</time>
      </trkpt>
      <trkpt lat="43.2903300" lon="-2.9766490">
        <ele>9.4</ele>
        <time>2021-02-19T17:14:14Z</time>
      </trkpt>
      <trkpt lat="43.2903420" lon="-2.9767310">
        <ele>9.4</ele>
        <time>2021-02-19T17:14:15Z</time>
      </trkpt>
      <trkpt lat="43.2903490" lon="-2.9768190">
        <ele>9.4</ele>
        <time>2021-02-19T17:14:16Z</time>
      </trkpt>
      <trkpt lat="43.2903570" lon="-2.9772970">
        <ele>9.0</ele>
        <time>2021-02-19T17:14:21Z</time>
      </trkpt>
      <trkpt lat="43.2904200" lon="-2.9776020">
        <ele>9.0</ele>
        <time>2021-02-19T17:14:24Z</time>
      </trkpt>
      <trkpt lat="43.2904880" lon="-2.9777950">
        <ele>9.2</ele>
        <time>2021-02-19T17:14:26Z</time>
      </trkpt>
      <trkpt lat="43.2906230" lon="-2.9781700">
        <ele>9.6</ele>
        <time>2021-02-19T17:14:30Z</time>
      </trkpt>
      <trkpt lat="43.2906960" lon="-2.9783530">
        <ele>10.2</ele>
        <time>2021-02-19T17:14:32Z</time>
      </trkpt>
      <trkpt lat="43.2907310" lon="-2.9784450">
        <ele>10.4</ele>
        <time>2021-02-19T17:14:33Z</time>
      </trkpt>
      <trkpt lat="43.2908010" lon="-2.9786230">
        <ele>10.8</ele>
        <time>2021-02-19T17:14:35Z</time>
      </trkpt>
      <trkpt lat="43.2908680" lon="-2.9787970">
        <ele>11.0</ele>
        <time>2021-02-19T17:14:37Z</time>
      </trkpt>
      <trkpt lat="43.2909010" lon="-2.9788820">
        <ele>11.0</ele>
        <time>2021-02-19T17:14:38Z</time>
      </trkpt>
      <trkpt lat="43.2909330" lon="-2.9789670">
        <ele>11.0</ele>
        <time>2021-02-19T17:14:39Z</time>
      </trkpt>
      <trkpt lat="43.2910020" lon="-2.9791340">
        <ele>11.2</ele>
        <time>2021-02-19T17:14:41Z</time>
      </trkpt>
      <trkpt lat="43.2910690" lon="-2.9793050">
        <ele>11.6</ele>
        <time>2021-02-19T17:14:43Z</time>
      </trkpt>
      <trkpt lat="43.2910990" lon="-2.9793930">
        <ele>11.6</ele>
        <time>2021-02-19T17:14:44Z</time>
      </trkpt>
      <trkpt lat="43.2911510" lon="-2.9795700">
        <ele>11.8</ele>
        <time>2021-02-19T17:14:46Z</time>
      </trkpt>
      <trkpt lat="43.2911980" lon="-2.9797570">
        <ele>12.0</ele>
        <time>2021-02-19T17:14:48Z</time>
      </trkpt>
      <trkpt lat="43.2912380" lon="-2.9799520">
        <ele>12.2</ele>
        <time>2021-02-19T17:14:50Z</time>
      </trkpt>
      <trkpt lat="43.2912900" lon="-2.9802490">
        <ele>12.4</ele>
        <time>2021-02-19T17:14:53Z</time>
      </trkpt>
      <trkpt lat="43.2913230" lon="-2.9808160">
        <ele>12.4</ele>
        <time>2021-02-19T17:14:59Z</time>
      </trkpt>
      <trkpt lat="43.2913420" lon="-2.9815040">
        <ele>12.6</ele>
        <time>2021-02-19T17:15:07Z</time>
      </trkpt>
      <trkpt lat="43.2913450" lon="-2.9822440">
        <ele>13.0</ele>
        <time>2021-02-19T17:15:15Z</time>
      </trkpt>
      <trkpt lat="43.2913590" lon="-2.9829950">
        <ele>13.6</ele>
        <time>2021-02-19T17:15:24Z</time>
      </trkpt>
      <trkpt lat="43.2913580" lon="-2.9831480">
        <ele>13.6</ele>
        <time>2021-02-19T17:15:26Z</time>
      </trkpt>
      <trkpt lat="43.2913790" lon="-2.9838570">
        <ele>14.8</ele>
        <time>2021-02-19T17:15:36Z</time>
      </trkpt>
      <trkpt lat="43.2913780" lon="-2.9839690">
        <ele>15.8</ele>
        <time>2021-02-19T17:15:39Z</time>
      </trkpt>
      <trkpt lat="43.2913800" lon="-2.9839780">
        <ele>16.2</ele>
        <time>2021-02-19T17:15:41Z</time>
      </trkpt>
      <trkpt lat="43.2913890" lon="-2.9840290">
        <ele>17.2</ele>
        <time>2021-02-19T17:16:23Z</time>
      </trkpt>
      <trkpt lat="43.2913720" lon="-2.9841800">
        <ele>17.4</ele>
        <time>2021-02-19T17:16:32Z</time>
      </trkpt>
      <trkpt lat="43.2913790" lon="-2.9842060">
        <ele>17.2</ele>
        <time>2021-02-19T17:17:22Z</time>
      </trkpt>
      <trkpt lat="43.2913840" lon="-2.9847100">
        <ele>17.2</ele>
        <time>2021-02-19T17:17:31Z</time>
      </trkpt>
      <trkpt lat="43.2913820" lon="-2.9848010">
        <ele>17.2</ele>
        <time>2021-02-19T17:17:32Z</time>
      </trkpt>
      <trkpt lat="43.2913870" lon="-2.9848960">
        <ele>17.2</ele>
        <time>2021-02-19T17:17:33Z</time>
      </trkpt>
      <trkpt lat="43.2914090" lon="-2.9851930">
        <ele>17.2</ele>
        <time>2021-02-19T17:17:35Z</time>
      </trkpt>
      <trkpt lat="43.2914090" lon="-2.9854200">
        <ele>17.0</ele>
        <time>2021-02-19T17:17:38Z</time>
      </trkpt>
      <trkpt lat="43.2914140" lon="-2.9855340">
        <ele>16.6</ele>
        <time>2021-02-19T17:17:39Z</time>
      </trkpt>
      <trkpt lat="43.2914440" lon="-2.9857500">
        <ele>15.6</ele>
        <time>2021-02-19T17:17:41Z</time>
      </trkpt>
      <trkpt lat="43.2915200" lon="-2.9859420">
        <ele>14.8</ele>
        <time>2021-02-19T17:17:43Z</time>
      </trkpt>
      <trkpt lat="43.2916170" lon="-2.9860880">
        <ele>14.4</ele>
        <time>2021-02-19T17:17:45Z</time>
      </trkpt>
      <trkpt lat="43.2917370" lon="-2.9861800">
        <ele>13.4</ele>
        <time>2021-02-19T17:17:47Z</time>
      </trkpt>
      <trkpt lat="43.2918070" lon="-2.9862120">
        <ele>13.2</ele>
        <time>2021-02-19T17:17:48Z</time>
      </trkpt>
      <trkpt lat="43.2918740" lon="-2.9862500">
        <ele>13.0</ele>
        <time>2021-02-19T17:17:49Z</time>
      </trkpt>
      <trkpt lat="43.2919400" lon="-2.9862870">
        <ele>12.8</ele>
        <time>2021-02-19T17:17:50Z</time>
      </trkpt>
      <trkpt lat="43.2921350" lon="-2.9863890">
        <ele>12.6</ele>
        <time>2021-02-19T17:17:53Z</time>
      </trkpt>
      <trkpt lat="43.2922640" lon="-2.9864590">
        <ele>12.8</ele>
        <time>2021-02-19T17:17:55Z</time>
      </trkpt>
      <trkpt lat="43.2924010" lon="-2.9865220">
        <ele>12.8</ele>
        <time>2021-02-19T17:17:57Z</time>
      </trkpt>
      <trkpt lat="43.2926000" lon="-2.9866350">
        <ele>12.8</ele>
        <time>2021-02-19T17:17:59Z</time>
      </trkpt>
      <trkpt lat="43.2926670" lon="-2.9866750">
        <ele>12.8</ele>
        <time>2021-02-19T17:18:00Z</time>
      </trkpt>
      <trkpt lat="43.2927340" lon="-2.9867140">
        <ele>12.8</ele>
        <time>2021-02-19T17:18:01Z</time>
      </trkpt>
      <trkpt lat="43.2929600" lon="-2.9868220">
        <ele>13.4</ele>
        <time>2021-02-19T17:18:05Z</time>
      </trkpt>
      <trkpt lat="43.2930860" lon="-2.9867710">
        <ele>14.4</ele>
        <time>2021-02-19T17:18:08Z</time>
      </trkpt>
      <trkpt lat="43.2931100" lon="-2.9867170">
        <ele>15.2</ele>
        <time>2021-02-19T17:18:10Z</time>
      </trkpt>
      <trkpt lat="43.2931260" lon="-2.9866570">
        <ele>15.4</ele>
        <time>2021-02-19T17:18:11Z</time>
      </trkpt>
      <trkpt lat="43.2931320" lon="-2.9865940">
        <ele>15.6</ele>
        <time>2021-02-19T17:18:12Z</time>
      </trkpt>
      <trkpt lat="43.2931090" lon="-2.9864430">
        <ele>15.8</ele>
        <time>2021-02-19T17:18:14Z</time>
      </trkpt>
      <trkpt lat="43.2930670" lon="-2.9862350">
        <ele>16.2</ele>
        <time>2021-02-19T17:18:16Z</time>
      </trkpt>
      <trkpt lat="43.2930520" lon="-2.9861670">
        <ele>16.4</ele>
        <time>2021-02-19T17:18:17Z</time>
      </trkpt>
      <trkpt lat="43.2930520" lon="-2.9861350">
        <ele>16.6</ele>
        <time>2021-02-19T17:18:18Z</time>
      </trkpt>
      <trkpt lat="43.2930510" lon="-2.9861040">
        <ele>16.6</ele>
        <time>2021-02-19T17:18:19Z</time>
      </trkpt>
      <trkpt lat="43.2930510" lon="-2.9860500">
        <ele>16.8</ele>
        <time>2021-02-19T17:18:20Z</time>
      </trkpt>
      <trkpt lat="43.2930210" lon="-2.9858430">
        <ele>17.6</ele>
        <time>2021-02-19T17:18:24Z</time>
      </trkpt>
      <trkpt lat="43.2930210" lon="-2.9857510">
        <ele>18.6</ele>
        <time>2021-02-19T17:18:28Z</time>
      </trkpt>
      <trkpt lat="43.2929180" lon="-2.9856480">
        <ele>18.8</ele>
        <time>2021-02-19T17:18:35Z</time>
      </trkpt>
      <trkpt lat="43.2928290" lon="-2.9854830">
        <ele>19.0</ele>
        <time>2021-02-19T17:18:40Z</time>
      </trkpt>
      <trkpt lat="43.2928050" lon="-2.9847590">
        <ele>18.8</ele>
        <time>2021-02-19T17:18:51Z</time>
      </trkpt>
      <trkpt lat="43.2928220" lon="-2.9846220">
        <ele>18.6</ele>
        <time>2021-02-19T17:18:53Z</time>
      </trkpt>
      <trkpt lat="43.2929220" lon="-2.9844150">
        <ele>18.6</ele>
        <time>2021-02-19T17:18:55Z</time>
      </trkpt>
      <trkpt lat="43.2931980" lon="-2.9840640">
        <ele>18.8</ele>
        <time>2021-02-19T17:19:03Z</time>
      </trkpt>
      <trkpt lat="43.2932970" lon="-2.9839370">
        <ele>19.2</ele>
        <time>2021-02-19T17:19:05Z</time>
      </trkpt>
      <trkpt lat="43.2933240" lon="-2.9838930">
        <ele>19.8</ele>
        <time>2021-02-19T17:19:07Z</time>
      </trkpt>
      <trkpt lat="43.2933870" lon="-2.9838320">
        <ele>20.6</ele>
        <time>2021-02-19T17:19:08Z</time>
      </trkpt>
      <trkpt lat="43.2934180" lon="-2.9838460">
        <ele>21.0</ele>
        <time>2021-02-19T17:19:09Z</time>
      </trkpt>
      <trkpt lat="43.2934510" lon="-2.9839090">
        <ele>21.4</ele>
        <time>2021-02-19T17:19:11Z</time>
      </trkpt>
      <trkpt lat="43.2934670" lon="-2.9839930">
        <ele>22.2</ele>
        <time>2021-02-19T17:19:13Z</time>
      </trkpt>
      <trkpt lat="43.2934670" lon="-2.9841250">
        <ele>23.4</ele>
        <time>2021-02-19T17:19:17Z</time>
      </trkpt>
      <trkpt lat="43.2934390" lon="-2.9842490">
        <ele>23.8</ele>
        <time>2021-02-19T17:19:18Z</time>
      </trkpt>
      <trkpt lat="43.2928360" lon="-2.9851910">
        <ele>-5.2</ele>
        <time>2021-02-19T14:36:11Z</time>
      </trkpt>
      <trkpt lat="43.2928300" lon="-2.9852530">
        <ele>-6.8</ele>
        <time>2021-02-19T14:36:12Z</time>
      </trkpt>
      <trkpt lat="43.2928300" lon="-2.9853120">
        <ele>-9.4</ele>
        <time>2021-02-19T14:36:13Z</time>
      </trkpt>
      <trkpt lat="43.2928300" lon="-2.9853600">
        <ele>-10.6</ele>
        <time>2021-02-19T14:36:14Z</time>
      </trkpt>
      <trkpt lat="43.2927510" lon="-2.9855910">
        <ele>-12.2</ele>
        <time>2021-02-19T14:36:19Z</time>
      </trkpt>
      <trkpt lat="43.2927150" lon="-2.9856040">
        <ele>-13.6</ele>
        <time>2021-02-19T14:36:20Z</time>
      </trkpt>
      <trkpt lat="43.2925790" lon="-2.9856510">
        <ele>-12.6</ele>
        <time>2021-02-19T14:36:23Z</time>
      </trkpt>
      <trkpt lat="43.2924940" lon="-2.9857690">
        <ele>-14.8</ele>
        <time>2021-02-19T14:36:26Z</time>
      </trkpt>
      <trkpt lat="43.2924310" lon="-2.9859460">
        <ele>-13.8</ele>
        <time>2021-02-19T14:36:29Z</time>
      </trkpt>
      <trkpt lat="43.2923780" lon="-2.9861440">
        <ele>-14.0</ele>
        <time>2021-02-19T14:36:32Z</time>
      </trkpt>
      <trkpt lat="43.2923520" lon="-2.9862530">
        <ele>-14.8</ele>
        <time>2021-02-19T14:36:34Z</time>
      </trkpt>
      <trkpt lat="43.2923480" lon="-2.9862960">
        <ele>-15.0</ele>
        <time>2021-02-19T14:36:35Z</time>
      </trkpt>
      <trkpt lat="43.2923490" lon="-2.9863320">
        <ele>-15.0</ele>
        <time>2021-02-19T14:36:36Z</time>
      </trkpt>
      <trkpt lat="43.2923360" lon="-2.9863970">
        <ele>-15.2</ele>
        <time>2021-02-19T14:36:38Z</time>
      </trkpt>
      <trkpt lat="43.2923210" lon="-2.9864180">
        <ele>-15.2</ele>
        <time>2021-02-19T14:36:39Z</time>
      </trkpt>
      <trkpt lat="43.2923050" lon="-2.9864200">
        <ele>-15.2</ele>
        <time>2021-02-19T14:36:40Z</time>
      </trkpt>
      <trkpt lat="43.2922110" lon="-2.9864020">
        <ele>-15.4</ele>
        <time>2021-02-19T14:36:44Z</time>
      </trkpt>
      <trkpt lat="43.2921780" lon="-2.9863890">
        <ele>-15.6</ele>
        <time>2021-02-19T14:36:45Z</time>
      </trkpt>
      <trkpt lat="43.2921480" lon="-2.9863710">
        <ele>-15.8</ele>
        <time>2021-02-19T14:36:46Z</time>
      </trkpt>
      <trkpt lat="43.2921280" lon="-2.9863620">
        <ele>-16.0</ele>
        <time>2021-02-19T14:36:47Z</time>
      </trkpt>
      <trkpt lat="43.2921120" lon="-2.9863480">
        <ele>-16.0</ele>
        <time>2021-02-19T14:36:48Z</time>
      </trkpt>
      <trkpt lat="43.2921060" lon="-2.9863350">
        <ele>-16.0</ele>
        <time>2021-02-19T14:36:49Z</time>
      </trkpt>
      <trkpt lat="43.2921200" lon="-2.9862810">
        <ele>-16.0</ele>
        <time>2021-02-19T14:36:51Z</time>
      </trkpt>
      <trkpt lat="43.2920110" lon="-2.9862770">
        <ele>-17.8</ele>
        <time>2021-02-19T14:37:18Z</time>
      </trkpt>
      <trkpt lat="43.2919220" lon="-2.9862490">
        <ele>-17.8</ele>
        <time>2021-02-19T14:37:21Z</time>
      </trkpt>
      <trkpt lat="43.2917790" lon="-2.9861750">
        <ele>-18.2</ele>
        <time>2021-02-19T14:37:25Z</time>
      </trkpt>
      <trkpt lat="43.2916660" lon="-2.9861150">
        <ele>-18.4</ele>
        <time>2021-02-19T14:37:28Z</time>
      </trkpt>
      <trkpt lat="43.2916060" lon="-2.9860360">
        <ele>-18.8</ele>
        <time>2021-02-19T14:37:30Z</time>
      </trkpt>
      <trkpt lat="43.2915640" lon="-2.9859410">
        <ele>-19.6</ele>
        <time>2021-02-19T14:37:32Z</time>
      </trkpt>
      <trkpt lat="43.2915440" lon="-2.9858280">
        <ele>-19.6</ele>
        <time>2021-02-19T14:37:34Z</time>
      </trkpt>
      <trkpt lat="43.2915350" lon="-2.9856670">
        <ele>-19.8</ele>
        <time>2021-02-19T14:37:37Z</time>
      </trkpt>
      <trkpt lat="43.2915360" lon="-2.9853730">
        <ele>-19.4</ele>
        <time>2021-02-19T14:37:42Z</time>
      </trkpt>
      <trkpt lat="43.2915370" lon="-2.9853120">
        <ele>-19.0</ele>
        <time>2021-02-19T14:37:43Z</time>
      </trkpt>
      <trkpt lat="43.2915460" lon="-2.9850570">
        <ele>-17.8</ele>
        <time>2021-02-19T14:37:47Z</time>
      </trkpt>
      <trkpt lat="43.2915160" lon="-2.9846340">
        <ele>-16.4</ele>
        <time>2021-02-19T14:37:55Z</time>
      </trkpt>
      <trkpt lat="43.2915400" lon="-2.9844460">
        <ele>-15.2</ele>
        <time>2021-02-19T14:37:59Z</time>
      </trkpt>
      <trkpt lat="43.2916080" lon="-2.9843650">
        <ele>-14.4</ele>
        <time>2021-02-19T14:38:02Z</time>
      </trkpt>
      <trkpt lat="43.2916370" lon="-2.9843460">
        <ele>-14.0</ele>
        <time>2021-02-19T14:38:03Z</time>
      </trkpt>
      <trkpt lat="43.2916830" lon="-2.9843050">
        <ele>-13.4</ele>
        <time>2021-02-19T14:38:05Z</time>
      </trkpt>
      <trkpt lat="43.2916950" lon="-2.9842830">
        <ele>-13.0</ele>
        <time>2021-02-19T14:38:06Z</time>
      </trkpt>
      <trkpt lat="43.2917080" lon="-2.9842460">
        <ele>-12.6</ele>
        <time>2021-02-19T14:38:10Z</time>
      </trkpt>
      <trkpt lat="43.2916880" lon="-2.9841510">
        <ele>-13.8</ele>
        <time>2021-02-19T14:39:11Z</time>
      </trkpt>
      <trkpt lat="43.2916670" lon="-2.9841180">
        <ele>-14.0</ele>
        <time>2021-02-19T14:39:13Z</time>
      </trkpt>
      <trkpt lat="43.2915460" lon="-2.9840320">
        <ele>-15.2</ele>
        <time>2021-02-19T14:39:18Z</time>
      </trkpt>
      <trkpt lat="43.2914790" lon="-2.9839450">
        <ele>-15.6</ele>
        <time>2021-02-19T14:39:21Z</time>
      </trkpt>
      <trkpt lat="43.2914550" lon="-2.9838660">
        <ele>-16.0</ele>
        <time>2021-02-19T14:39:23Z</time>
      </trkpt>
      <trkpt lat="43.2914330" lon="-2.9836310">
        <ele>-16.4</ele>
        <time>2021-02-19T14:39:28Z</time>
      </trkpt>
      <trkpt lat="43.2914180" lon="-2.9834170">
        <ele>-16.6</ele>
        <time>2021-02-19T14:39:32Z</time>
      </trkpt>
      <trkpt lat="43.2913700" lon="-2.9832660">
        <ele>-16.8</ele>
        <time>2021-02-19T14:39:37Z</time>
      </trkpt>
      <trkpt lat="43.2913380" lon="-2.9831760">
        <ele>-16.8</ele>
        <time>2021-02-19T14:39:39Z</time>
      </trkpt>
      <trkpt lat="43.2913080" lon="-2.9825800">
        <ele>-17.4</ele>
        <time>2021-02-19T14:39:46Z</time>
      </trkpt>
      <trkpt lat="43.2912920" lon="-2.9818120">
        <ele>-17.6</ele>
        <time>2021-02-19T14:39:54Z</time>
      </trkpt>
      <trkpt lat="43.2912870" lon="-2.9816220">
        <ele>-17.8</ele>
        <time>2021-02-19T14:39:56Z</time>
      </trkpt>
      <trkpt lat="43.2912860" lon="-2.9815250">
        <ele>-17.8</ele>
        <time>2021-02-19T14:39:57Z</time>
      </trkpt>
      <trkpt lat="43.2912850" lon="-2.9813300">
        <ele>-18.0</ele>
        <time>2021-02-19T14:39:59Z</time>
      </trkpt>
      <trkpt lat="43.2912860" lon="-2.9812350">
        <ele>-18.0</ele>
        <time>2021-02-19T14:40:00Z</time>
      </trkpt>
      <trkpt lat="43.2912620" lon="-2.9804220">
        <ele>-17.8</ele>
        <time>2021-02-19T14:40:08Z</time>
      </trkpt>
      <trkpt lat="43.2912570" lon="-2.9803220">
        <ele>-18.2</ele>
        <time>2021-02-19T14:40:09Z</time>
      </trkpt>
      <trkpt lat="43.2912470" lon="-2.9802220">
        <ele>-18.2</ele>
        <time>2021-02-19T14:40:10Z</time>
      </trkpt>
      <trkpt lat="43.2912360" lon="-2.9801220">
        <ele>-18.4</ele>
        <time>2021-02-19T14:40:11Z</time>
      </trkpt>
      <trkpt lat="43.2911820" lon="-2.9798260">
        <ele>-18.8</ele>
        <time>2021-02-19T14:40:14Z</time>
      </trkpt>
      <trkpt lat="43.2910840" lon="-2.9794660">
        <ele>-19.0</ele>
        <time>2021-02-19T14:40:18Z</time>
      </trkpt>
      <trkpt lat="43.2910460" lon="-2.9793800">
        <ele>-19.0</ele>
        <time>2021-02-19T14:40:19Z</time>
      </trkpt>
      <trkpt lat="43.2909730" lon="-2.9792260">
        <ele>-19.0</ele>
        <time>2021-02-19T14:40:21Z</time>
      </trkpt>
      <trkpt lat="43.2909470" lon="-2.9791460">
        <ele>-19.0</ele>
        <time>2021-02-19T14:40:22Z</time>
      </trkpt>
      <trkpt lat="43.2909220" lon="-2.9790640">
        <ele>-19.0</ele>
        <time>2021-02-19T14:40:23Z</time>
      </trkpt>
      <trkpt lat="43.2908990" lon="-2.9789810">
        <ele>-19.0</ele>
        <time>2021-02-19T14:40:24Z</time>
      </trkpt>
      <trkpt lat="43.2906440" lon="-2.9783050">
        <ele>-18.6</ele>
        <time>2021-02-19T14:40:32Z</time>
      </trkpt>
      <trkpt lat="43.2905540" lon="-2.9780470">
        <ele>-18.6</ele>
        <time>2021-02-19T14:40:35Z</time>
      </trkpt>
      <trkpt lat="43.2905150" lon="-2.9779630">
        <ele>-18.6</ele>
        <time>2021-02-19T14:40:36Z</time>
      </trkpt>
      <trkpt lat="43.2904390" lon="-2.9777980">
        <ele>-18.6</ele>
        <time>2021-02-19T14:40:38Z</time>
      </trkpt>
      <trkpt lat="43.2903100" lon="-2.9773090">
        <ele>-18.4</ele>
        <time>2021-02-19T14:40:44Z</time>
      </trkpt>
      <trkpt lat="43.2903050" lon="-2.9772230">
        <ele>-18.4</ele>
        <time>2021-02-19T14:40:45Z</time>
      </trkpt>
      <trkpt lat="43.2903010" lon="-2.9771390">
        <ele>-18.4</ele>
        <time>2021-02-19T14:40:46Z</time>
      </trkpt>
      <trkpt lat="43.2902810" lon="-2.9768040">
        <ele>-18.4</ele>
        <time>2021-02-19T14:40:50Z</time>
      </trkpt>
      <trkpt lat="43.2900180" lon="-2.9761960">
        <ele>-19.6</ele>
        <time>2021-02-19T14:40:58Z</time>
      </trkpt>
      <trkpt lat="43.2898620" lon="-2.9759210">
        <ele>-20.4</ele>
        <time>2021-02-19T14:41:02Z</time>
      </trkpt>
      <trkpt lat="43.2897820" lon="-2.9758160">
        <ele>-20.6</ele>
        <time>2021-02-19T14:41:04Z</time>
      </trkpt>
      <trkpt lat="43.2897400" lon="-2.9757720">
        <ele>-20.8</ele>
        <time>2021-02-19T14:41:05Z</time>
      </trkpt>
      <trkpt lat="43.2896340" lon="-2.9757320">
        <ele>-21.0</ele>
        <time>2021-02-19T14:41:07Z</time>
      </trkpt>
      <trkpt lat="43.2894790" lon="-2.9756750">
        <ele>-21.2</ele>
        <time>2021-02-19T14:41:10Z</time>
      </trkpt>
      <trkpt lat="43.2891930" lon="-2.9756590">
        <ele>-21.6</ele>
        <time>2021-02-19T14:41:15Z</time>
      </trkpt>
      <trkpt lat="43.2886290" lon="-2.9756210">
        <ele>-21.6</ele>
        <time>2021-02-19T14:41:25Z</time>
      </trkpt>
      <trkpt lat="43.2881720" lon="-2.9755940">
        <ele>-20.6</ele>
        <time>2021-02-19T14:41:34Z</time>
      </trkpt>
      <trkpt lat="43.2875970" lon="-2.9756470">
        <ele>-21.2</ele>
        <time>2021-02-19T14:41:45Z</time>
      </trkpt>
      <trkpt lat="43.2870340" lon="-2.9758010">
        <ele>-20.4</ele>
        <time>2021-02-19T14:41:56Z</time>
      </trkpt>
      <trkpt lat="43.2864880" lon="-2.9758960">
        <ele>-20.0</ele>
        <time>2021-02-19T14:42:07Z</time>
      </trkpt>
      <trkpt lat="43.2861730" lon="-2.9759670">
        <ele>-19.6</ele>
        <time>2021-02-19T14:42:13Z</time>
      </trkpt>
      <trkpt lat="43.2857430" lon="-2.9760350">
        <ele>-19.2</ele>
        <time>2021-02-19T14:42:21Z</time>
      </trkpt>
      <trkpt lat="43.2853460" lon="-2.9761750">
        <ele>-19.6</ele>
        <time>2021-02-19T14:42:29Z</time>
      </trkpt>
      <trkpt lat="43.2848880" lon="-2.9765810">
        <ele>-19.8</ele>
        <time>2021-02-19T14:42:40Z</time>
      </trkpt>
      <trkpt lat="43.2846490" lon="-2.9768150">
        <ele>-18.6</ele>
        <time>2021-02-19T14:42:46Z</time>
      </trkpt>
      <trkpt lat="43.2845290" lon="-2.9769000">
        <ele>-18.2</ele>
        <time>2021-02-19T14:42:49Z</time>
      </trkpt>
      <trkpt lat="43.2844210" lon="-2.9769470">
        <ele>-17.4</ele>
        <time>2021-02-19T14:42:52Z</time>
      </trkpt>
      <trkpt lat="43.2842530" lon="-2.9770110">
        <ele>-16.2</ele>
        <time>2021-02-19T14:42:57Z</time>
      </trkpt>
      <trkpt lat="43.2841230" lon="-2.9770410">
        <ele>-15.0</ele>
        <time>2021-02-19T14:43:01Z</time>
      </trkpt>
      <trkpt lat="43.2839510" lon="-2.9770950">
        <ele>-13.8</ele>
        <time>2021-02-19T14:43:07Z</time>
      </trkpt>
      <trkpt lat="43.2838210" lon="-2.9771910">
        <ele>-12.8</ele>
        <time>2021-02-19T14:43:12Z</time>
      </trkpt>
      <trkpt lat="43.2836640" lon="-2.9772990">
        <ele>-11.6</ele>
        <time>2021-02-19T14:43:18Z</time>
      </trkpt>
      <trkpt lat="43.2835130" lon="-2.9774700">
        <ele>-10.4</ele>
        <time>2021-02-19T14:43:24Z</time>
      </trkpt>
      <trkpt lat="43.2833740" lon="-2.9776350">
        <ele>-9.4</ele>
        <time>2021-02-19T14:43:30Z</time>
      </trkpt>
      <trkpt lat="43.2832710" lon="-2.9778190">
        <ele>-8.2</ele>
        <time>2021-02-19T14:43:36Z</time>
      </trkpt>
      <trkpt lat="43.2832400" lon="-2.9778900">
        <ele>-7.2</ele>
        <time>2021-02-19T14:43:38Z</time>
      </trkpt>
      <trkpt lat="43.2831760" lon="-2.9780670">
        <ele>-6.2</ele>
        <time>2021-02-19T14:43:43Z</time>
      </trkpt>
      <trkpt lat="43.2831000" lon="-2.9783320">
        <ele>-5.2</ele>
        <time>2021-02-19T14:43:50Z</time>
      </trkpt>
      <trkpt lat="43.2830810" lon="-2.9784130">
        <ele>-4.0</ele>
        <time>2021-02-19T14:43:52Z</time>
      </trkpt>
      <trkpt lat="43.2830540" lon="-2.9785320">
        <ele>-2.6</ele>
        <time>2021-02-19T14:43:55Z</time>
      </trkpt>
      <trkpt lat="43.2830160" lon="-2.9787050">
        <ele>-1.6</ele>
        <time>2021-02-19T14:43:59Z</time>
      </trkpt>
      <trkpt lat="43.2829720" lon="-2.9789360">
        <ele>-0.6</ele>
        <time>2021-02-19T14:44:04Z</time>
      </trkpt>
      <trkpt lat="43.2829460" lon="-2.9790880">
        <ele>-0.4</ele>
        <time>2021-02-19T14:44:07Z</time>
      </trkpt>
      <trkpt lat="43.2827100" lon="-2.9797920">
        <ele>0.4</ele>
        <time>2021-02-19T14:44:21Z</time>
      </trkpt>
      <trkpt lat="43.2826480" lon="-2.9799010">
        <ele>0.6</ele>
        <time>2021-02-19T14:44:24Z</time>
      </trkpt>
      <trkpt lat="43.2824620" lon="-2.9799600">
        <ele>1.0</ele>
        <time>2021-02-19T14:44:29Z</time>
      </trkpt>
      <trkpt lat="43.2823480" lon="-2.9802330">
        <ele>1.8</ele>
        <time>2021-02-19T14:44:33Z</time>
      </trkpt>
      <trkpt lat="43.2821980" lon="-2.9803050">
        <ele>2.6</ele>
        <time>2021-02-19T14:44:37Z</time>
      </trkpt>
      <trkpt lat="43.2821260" lon="-2.9803080">
        <ele>2.8</ele>
        <time>2021-02-19T14:44:39Z</time>
      </trkpt>
      <trkpt lat="43.2818830" lon="-2.9801990">
        <ele>3.6</ele>
        <time>2021-02-19T14:44:46Z</time>
      </trkpt>
      <trkpt lat="43.2816560" lon="-2.9800760">
        <ele>3.8</ele>
        <time>2021-02-19T14:44:52Z</time>
      </trkpt>
      <trkpt lat="43.2816120" lon="-2.9800530">
        <ele>3.8</ele>
        <time>2021-02-19T14:44:53Z</time>
      </trkpt>
      <trkpt lat="43.2813620" lon="-2.9799270">
        <ele>3.8</ele>
        <time>2021-02-19T14:44:58Z</time>
      </trkpt>
      <trkpt lat="43.2810540" lon="-2.9797870">
        <ele>3.2</ele>
        <time>2021-02-19T14:45:03Z</time>
      </trkpt>
      <trkpt lat="43.2809120" lon="-2.9797370">
        <ele>2.6</ele>
        <time>2021-02-19T14:45:05Z</time>
      </trkpt>
      <trkpt lat="43.2807740" lon="-2.9796780">
        <ele>1.4</ele>
        <time>2021-02-19T14:45:07Z</time>
      </trkpt>
      <trkpt lat="43.2806430" lon="-2.9796150">
        <ele>0.2</ele>
        <time>2021-02-19T14:45:09Z</time>
      </trkpt>
      <trkpt lat="43.2804370" lon="-2.9795090">
        <ele>-1.2</ele>
        <time>2021-02-19T14:45:12Z</time>
      </trkpt>
      <trkpt lat="43.2801350" lon="-2.9793560">
        <ele>-2.4</ele>
        <time>2021-02-19T14:45:16Z</time>
      </trkpt>
      <trkpt lat="43.2797980" lon="-2.9791940">
        <ele>-4.2</ele>
        <time>2021-02-19T14:45:20Z</time>
      </trkpt>
      <trkpt lat="43.2795730" lon="-2.9790880">
        <ele>-5.2</ele>
        <time>2021-02-19T14:45:23Z</time>
      </trkpt>
      <trkpt lat="43.2793760" lon="-2.9789950">
        <ele>-6.4</ele>
        <time>2021-02-19T14:45:26Z</time>
      </trkpt>
      <trkpt lat="43.2791800" lon="-2.9789170">
        <ele>-7.4</ele>
        <time>2021-02-19T14:45:29Z</time>
      </trkpt>
      <trkpt lat="43.2791150" lon="-2.9788980">
        <ele>-8.0</ele>
        <time>2021-02-19T14:45:30Z</time>
      </trkpt>
      <trkpt lat="43.2789740" lon="-2.9788680">
        <ele>-9.2</ele>
        <time>2021-02-19T14:45:32Z</time>
      </trkpt>
      <trkpt lat="43.2788140" lon="-2.9788070">
        <ele>-10.2</ele>
        <time>2021-02-19T14:45:34Z</time>
      </trkpt>
      <trkpt lat="43.2787380" lon="-2.9787690">
        <ele>-10.8</ele>
        <time>2021-02-19T14:45:35Z</time>
      </trkpt>
      <trkpt lat="43.2786730" lon="-2.9787170">
        <ele>-11.2</ele>
        <time>2021-02-19T14:45:36Z</time>
      </trkpt>
      <trkpt lat="43.2786140" lon="-2.9786590">
        <ele>-11.8</ele>
        <time>2021-02-19T14:45:37Z</time>
      </trkpt>
      <trkpt lat="43.2785620" lon="-2.9785930">
        <ele>-12.6</ele>
        <time>2021-02-19T14:45:38Z</time>
      </trkpt>
      <trkpt lat="43.2784830" lon="-2.9784540">
        <ele>-13.4</ele>
        <time>2021-02-19T14:45:39Z</time>
      </trkpt>
      <trkpt lat="43.2784530" lon="-2.9783900">
        <ele>-13.6</ele>
        <time>2021-02-19T14:45:41Z</time>
      </trkpt>
      <trkpt lat="43.2783790" lon="-2.9782040">
        <ele>-14.4</ele>
        <time>2021-02-19T14:45:45Z</time>
      </trkpt>
      <trkpt lat="43.2783680" lon="-2.9781430">
        <ele>-15.0</ele>
        <time>2021-02-19T14:45:50Z</time>
      </trkpt>
      <trkpt lat="43.2783490" lon="-2.9780330">
        <ele>-15.4</ele>
        <time>2021-02-19T14:46:14Z</time>
      </trkpt>
      <trkpt lat="43.2783110" lon="-2.9779190">
        <ele>-15.4</ele>
        <time>2021-02-19T14:46:16Z</time>
      </trkpt>
      <trkpt lat="43.2781030" lon="-2.9772240">
        <ele>-15.6</ele>
        <time>2021-02-19T14:46:25Z</time>
      </trkpt>
      <trkpt lat="43.2778760" lon="-2.9764530">
        <ele>-16.4</ele>
        <time>2021-02-19T14:46:34Z</time>
      </trkpt>
      <trkpt lat="43.2777170" lon="-2.9760120">
        <ele>-16.8</ele>
        <time>2021-02-19T14:46:39Z</time>
      </trkpt>
      <trkpt lat="43.2775810" lon="-2.9757890">
        <ele>-18.0</ele>
        <time>2021-02-19T14:46:42Z</time>
      </trkpt>
      <trkpt lat="43.2775520" lon="-2.9755990">
        <ele>-18.2</ele>
        <time>2021-02-19T14:46:44Z</time>
      </trkpt>
      <trkpt lat="43.2775700" lon="-2.9754200">
        <ele>-19.0</ele>
        <time>2021-02-19T14:46:46Z</time>
      </trkpt>
      <trkpt lat="43.2775740" lon="-2.9751820">
        <ele>-20.0</ele>
        <time>2021-02-19T14:46:49Z</time>
      </trkpt>
      <trkpt lat="43.2775130" lon="-2.9749450">
        <ele>-20.0</ele>
        <time>2021-02-19T14:46:52Z</time>
      </trkpt>
      <trkpt lat="43.2774910" lon="-2.9748710">
        <ele>-20.0</ele>
        <time>2021-02-19T14:46:53Z</time>
      </trkpt>
      <trkpt lat="43.2774460" lon="-2.9747270">
        <ele>-20.4</ele>
        <time>2021-02-19T14:46:55Z</time>
      </trkpt>
      <trkpt lat="43.2774220" lon="-2.9746550">
        <ele>-20.4</ele>
        <time>2021-02-19T14:46:56Z</time>
      </trkpt>
      <trkpt lat="43.2773980" lon="-2.9745840">
        <ele>-20.4</ele>
        <time>2021-02-19T14:46:57Z</time>
      </trkpt>
      <trkpt lat="43.2773710" lon="-2.9745110">
        <ele>-20.6</ele>
        <time>2021-02-19T14:46:58Z</time>
      </trkpt>
      <trkpt lat="43.2773460" lon="-2.9744420">
        <ele>-20.6</ele>
        <time>2021-02-19T14:46:59Z</time>
      </trkpt>
      <trkpt lat="43.2773020" lon="-2.9743040">
        <ele>-20.8</ele>
        <time>2021-02-19T14:47:01Z</time>
      </trkpt>
      <trkpt lat="43.2771190" lon="-2.9736890">
        <ele>-19.4</ele>
        <time>2021-02-19T14:47:10Z</time>
      </trkpt>
      <trkpt lat="43.2770700" lon="-2.9735260">
        <ele>-19.0</ele>
        <time>2021-02-19T14:47:13Z</time>
      </trkpt>
      <trkpt lat="43.2770540" lon="-2.9734730">
        <ele>-18.8</ele>
        <time>2021-02-19T14:47:14Z</time>
      </trkpt>
      <trkpt lat="43.2770000" lon="-2.9733320">
        <ele>-17.8</ele>
        <time>2021-02-19T14:47:17Z</time>
      </trkpt>
      <trkpt lat="43.2769280" lon="-2.9731980">
        <ele>-16.6</ele>
        <time>2021-02-19T14:47:20Z</time>
      </trkpt>
      <trkpt lat="43.2768700" lon="-2.9730980">
        <ele>-15.6</ele>
        <time>2021-02-19T14:47:22Z</time>
      </trkpt>
      <trkpt lat="43.2767210" lon="-2.9728310">
        <ele>-15.2</ele>
        <time>2021-02-19T14:47:27Z</time>
      </trkpt>
      <trkpt lat="43.2766950" lon="-2.9727760">
        <ele>-15.2</ele>
        <time>2021-02-19T14:47:28Z</time>
      </trkpt>
      <trkpt lat="43.2766670" lon="-2.9727230">
        <ele>-15.4</ele>
        <time>2021-02-19T14:47:29Z</time>
      </trkpt>
      <trkpt lat="43.2765900" lon="-2.9725560">
        <ele>-16.4</ele>
        <time>2021-02-19T14:47:32Z</time>
      </trkpt>
      <trkpt lat="43.2765600" lon="-2.9724990">
        <ele>-16.6</ele>
        <time>2021-02-19T14:47:33Z</time>
      </trkpt>
      <trkpt lat="43.2765010" lon="-2.9723990">
        <ele>-16.8</ele>
        <time>2021-02-19T14:47:35Z</time>
      </trkpt>
      <trkpt lat="43.2764790" lon="-2.9723450">
        <ele>-16.8</ele>
        <time>2021-02-19T14:47:36Z</time>
      </trkpt>
      <trkpt lat="43.2764500" lon="-2.9722860">
        <ele>-16.8</ele>
        <time>2021-02-19T14:47:37Z</time>
      </trkpt>
      <trkpt lat="43.2764550" lon="-2.9720400">
        <ele>-16.8</ele>
        <time>2021-02-19T14:47:41Z</time>
      </trkpt>
      <trkpt lat="43.2765510" lon="-2.9718610">
        <ele>-16.6</ele>
        <time>2021-02-19T14:47:44Z</time>
      </trkpt>
      <trkpt lat="43.2764690" lon="-2.9715190">
        <ele>-15.2</ele>
        <time>2021-02-19T14:47:50Z</time>
      </trkpt>
      <trkpt lat="43.2763240" lon="-2.9713400">
        <ele>-14.0</ele>
        <time>2021-02-19T14:47:55Z</time>
      </trkpt>
      <trkpt lat="43.2761900" lon="-2.9711460">
        <ele>-13.6</ele>
        <time>2021-02-19T14:48:01Z</time>
      </trkpt>
      <trkpt lat="43.2761900" lon="-2.9709140">
        <ele>-12.6</ele>
        <time>2021-02-19T14:48:05Z</time>
      </trkpt>
      <trkpt lat="43.2761690" lon="-2.9707320">
        <ele>-11.6</ele>
        <time>2021-02-19T14:48:08Z</time>
      </trkpt>
      <trkpt lat="43.2760630" lon="-2.9704990">
        <ele>-10.4</ele>
        <time>2021-02-19T14:48:13Z</time>
      </trkpt>
      <trkpt lat="43.2758860" lon="-2.9703300">
        <ele>-9.4</ele>
        <time>2021-02-19T14:48:19Z</time>
      </trkpt>
      <trkpt lat="43.2758400" lon="-2.9702820">
        <ele>-9.2</ele>
        <time>2021-02-19T14:48:22Z</time>
      </trkpt>
      <trkpt lat="43.2758180" lon="-2.9702430">
        <ele>-9.2</ele>
        <time>2021-02-19T14:48:28Z</time>
      </trkpt>
      <trkpt lat="43.2758280" lon="-2.9701360">
        <ele>-9.2</ele>
        <time>2021-02-19T14:48:38Z</time>
      </trkpt>
      <trkpt lat="43.2758770" lon="-2.9701350">
        <ele>-9.2</ele>
        <time>2021-02-19T14:48:41Z</time>
      </trkpt>
      <trkpt lat="43.2761600" lon="-2.9704030">
        <ele>-9.6</ele>
        <time>2021-02-19T14:48:50Z</time>
      </trkpt>
      <trkpt lat="43.2762240" lon="-2.9705630">
        <ele>-9.8</ele>
        <time>2021-02-19T14:48:53Z</time>
      </trkpt>
      <trkpt lat="43.2762530" lon="-2.9706300">
        <ele>-10.0</ele>
        <time>2021-02-19T14:48:55Z</time>
      </trkpt>
      <trkpt lat="43.2762880" lon="-2.9706490">
        <ele>-10.4</ele>
        <time>2021-02-19T14:48:57Z</time>
      </trkpt>
      <trkpt lat="43.2763060" lon="-2.9706290">
        <ele>-10.6</ele>
        <time>2021-02-19T14:48:58Z</time>
      </trkpt>
      <trkpt lat="43.2763120" lon="-2.9705740">
        <ele>-10.8</ele>
        <time>2021-02-19T14:49:00Z</time>
      </trkpt>
      <trkpt lat="43.2758490" lon="-2.9701400">
        <ele>-10.4</ele>
        <time>2021-02-19T14:49:18Z</time>
      </trkpt>
      <trkpt lat="43.2758230" lon="-2.9701220">
        <ele>-9.2</ele>
        <time>2021-02-19T14:49:19Z</time>
      </trkpt>
      <trkpt lat="43.2756280" lon="-2.9695440">
        <ele>-10.6</ele>
        <time>2021-02-19T14:49:36Z</time>
      </trkpt>
      <trkpt lat="43.2755360" lon="-2.9694350">
        <ele>-9.4</ele>
        <time>2021-02-19T14:49:39Z</time>
      </trkpt>
      <trkpt lat="43.2754440" lon="-2.9694090">
        <ele>-9.4</ele>
        <time>2021-02-19T14:49:41Z</time>
      </trkpt>
      <trkpt lat="43.2751860" lon="-2.9693710">
        <ele>-10.0</ele>
        <time>2021-02-19T14:49:46Z</time>
      </trkpt>
      <trkpt lat="43.2751100" lon="-2.9693090">
        <ele>-10.0</ele>
        <time>2021-02-19T14:49:48Z</time>
      </trkpt>
      <trkpt lat="43.2751060" lon="-2.9691570">
        <ele>-10.6</ele>
        <time>2021-02-19T14:49:51Z</time>
      </trkpt>
      <trkpt lat="43.2751780" lon="-2.9691300">
        <ele>-11.6</ele>
        <time>2021-02-19T14:49:53Z</time>
      </trkpt>
      <trkpt lat="43.2752230" lon="-2.9691510">
        <ele>-11.8</ele>
        <time>2021-02-19T14:49:54Z</time>
      </trkpt>
      <trkpt lat="43.2752660" lon="-2.9691940">
        <ele>-12.2</ele>
        <time>2021-02-19T14:49:55Z</time>
      </trkpt>
      <trkpt lat="43.2753250" lon="-2.9693070">
        <ele>-12.8</ele>
        <time>2021-02-19T14:49:57Z</time>
      </trkpt>
      <trkpt lat="43.2753470" lon="-2.9693620">
        <ele>-13.0</ele>
        <time>2021-02-19T14:49:58Z</time>
      </trkpt>
      <trkpt lat="43.2753520" lon="-2.9694790">
        <ele>-13.4</ele>
        <time>2021-02-19T14:50:01Z</time>
      </trkpt>
      <trkpt lat="43.2753080" lon="-2.9694930">
        <ele>-13.8</ele>
        <time>2021-02-19T14:50:03Z</time>
      </trkpt>
      <trkpt lat="43.2752470" lon="-2.9694530">
        <ele>-14.2</ele>
        <time>2021-02-19T14:50:05Z</time>
      </trkpt>
      <trkpt lat="43.2750950" lon="-2.9693700">
        <ele>-14.8</ele>
        <time>2021-02-19T14:50:09Z</time>
      </trkpt>
      <trkpt lat="43.2750000" lon="-2.9693380">
        <ele>-15.2</ele>
        <time>2021-02-19T14:50:11Z</time>
      </trkpt>
      <trkpt lat="43.2746350" lon="-2.9691290">
        <ele>-16.2</ele>
        <time>2021-02-19T14:50:18Z</time>
      </trkpt>
      <trkpt lat="43.2741870" lon="-2.9686870">
        <ele>-16.8</ele>
        <time>2021-02-19T14:50:26Z</time>
      </trkpt>
      <trkpt lat="43.2740750" lon="-2.9685300">
        <ele>-17.4</ele>
        <time>2021-02-19T14:50:28Z</time>
      </trkpt>
      <trkpt lat="43.2737730" lon="-2.9680900">
        <ele>-18.6</ele>
        <time>2021-02-19T14:50:33Z</time>
      </trkpt>
      <trkpt lat="43.2735960" lon="-2.9678700">
        <ele>-19.8</ele>
        <time>2021-02-19T14:50:36Z</time>
      </trkpt>
      <trkpt lat="43.2734360" lon="-2.9676760">
        <ele>-20.6</ele>
        <time>2021-02-19T14:50:39Z</time>
      </trkpt>
      <trkpt lat="43.2733880" lon="-2.9676120">
        <ele>-20.8</ele>
        <time>2021-02-19T14:50:40Z</time>
      </trkpt>
      <trkpt lat="43.2733420" lon="-2.9675480">
        <ele>-21.2</ele>
        <time>2021-02-19T14:50:41Z</time>
      </trkpt>
      <trkpt lat="43.2729310" lon="-2.9670720">
        <ele>-22.0</ele>
        <time>2021-02-19T14:50:49Z</time>
      </trkpt>
      <trkpt lat="43.2725290" lon="-2.9667100">
        <ele>-21.4</ele>
        <time>2021-02-19T14:50:57Z</time>
      </trkpt>
      <trkpt lat="43.2720730" lon="-2.9663110">
        <ele>-20.4</ele>
        <time>2021-02-19T14:51:07Z</time>
      </trkpt>
      <trkpt lat="43.2718270" lon="-2.9661540">
        <ele>-20.4</ele>
        <time>2021-02-19T14:51:12Z</time>
      </trkpt>
      <trkpt lat="43.2714370" lon="-2.9659220">
        <ele>-20.6</ele>
        <time>2021-02-19T14:51:19Z</time>
      </trkpt>
      <trkpt lat="43.2709970" lon="-2.9656650">
        <ele>-20.6</ele>
        <time>2021-02-19T14:51:28Z</time>
      </trkpt>
      <trkpt lat="43.2706750" lon="-2.9655090">
        <ele>-20.6</ele>
        <time>2021-02-19T14:51:34Z</time>
      </trkpt>
      <trkpt lat="43.2703350" lon="-2.9653390">
        <ele>-21.2</ele>
        <time>2021-02-19T14:51:41Z</time>
      </trkpt>
      <trkpt lat="43.2698540" lon="-2.9649900">
        <ele>-21.0</ele>
        <time>2021-02-19T14:51:51Z</time>
      </trkpt>
      <trkpt lat="43.2697150" lon="-2.9648660">
        <ele>-20.2</ele>
        <time>2021-02-19T14:51:54Z</time>
      </trkpt>
      <trkpt lat="43.2692750" lon="-2.9644170">
        <ele>-19.4</ele>
        <time>2021-02-19T14:52:03Z</time>
      </trkpt>
      <trkpt lat="43.2688110" lon="-2.9639290">
        <ele>-19.2</ele>
        <time>2021-02-19T14:52:13Z</time>
      </trkpt>
      <trkpt lat="43.2685050" lon="-2.9635920">
        <ele>-19.2</ele>
        <time>2021-02-19T14:52:20Z</time>
      </trkpt>
      <trkpt lat="43.2684240" lon="-2.9634900">
        <ele>-19.2</ele>
        <time>2021-02-19T14:52:22Z</time>
      </trkpt>
      <trkpt lat="43.2679870" lon="-2.9630100">
        <ele>-18.8</ele>
        <time>2021-02-19T14:52:32Z</time>
      </trkpt>
      <trkpt lat="43.2675620" lon="-2.9625290">
        <ele>-19.0</ele>
        <time>2021-02-19T14:52:42Z</time>
      </trkpt>
      <trkpt lat="43.2674110" lon="-2.9623500">
        <ele>-18.6</ele>
        <time>2021-02-19T14:52:46Z</time>
      </trkpt>
      <trkpt lat="43.2673390" lon="-2.9622480">
        <ele>-18.4</ele>
        <time>2021-02-19T14:52:48Z</time>
      </trkpt>
      <trkpt lat="43.2669680" lon="-2.9616150">
        <ele>-18.6</ele>
        <time>2021-02-19T14:52:59Z</time>
      </trkpt>
      <trkpt lat="43.2668240" lon="-2.9613810">
        <ele>-20.4</ele>
        <time>2021-02-19T14:53:03Z</time>
      </trkpt>
      <trkpt lat="43.2666680" lon="-2.9611660">
        <ele>-21.6</ele>
        <time>2021-02-19T14:53:07Z</time>
      </trkpt>
      <trkpt lat="43.2663500" lon="-2.9607630">
        <ele>-22.0</ele>
        <time>2021-02-19T14:53:15Z</time>
      </trkpt>
      <trkpt lat="43.2663120" lon="-2.9607090">
        <ele>-22.0</ele>
        <time>2021-02-19T14:53:16Z</time>
      </trkpt>
      <trkpt lat="43.2662660" lon="-2.9606580">
        <ele>-22.0</ele>
        <time>2021-02-19T14:53:17Z</time>
      </trkpt>
      <trkpt lat="43.2661910" lon="-2.9605520">
        <ele>-22.0</ele>
        <time>2021-02-19T14:53:19Z</time>
      </trkpt>
      <trkpt lat="43.2661160" lon="-2.9604410">
        <ele>-22.0</ele>
        <time>2021-02-19T14:53:21Z</time>
      </trkpt>
      <trkpt lat="43.2656790" lon="-2.9598770">
        <ele>-22.2</ele>
        <time>2021-02-19T14:53:31Z</time>
      </trkpt>
      <trkpt lat="43.2652960" lon="-2.9593000">
        <ele>-21.4</ele>
        <time>2021-02-19T14:53:41Z</time>
      </trkpt>
      <trkpt lat="43.2649760" lon="-2.9586640">
        <ele>-21.4</ele>
        <time>2021-02-19T14:53:50Z</time>
      </trkpt>
      <trkpt lat="43.2648560" lon="-2.9583510">
        <ele>-21.6</ele>
        <time>2021-02-19T14:53:54Z</time>
      </trkpt>
      <trkpt lat="43.2648200" lon="-2.9581020">
        <ele>-21.8</ele>
        <time>2021-02-19T14:53:57Z</time>
      </trkpt>
      <trkpt lat="43.2647330" lon="-2.9572850">
        <ele>-21.4</ele>
        <time>2021-02-19T14:54:06Z</time>
      </trkpt>
      <trkpt lat="43.2647410" lon="-2.9567770">
        <ele>-22.6</ele>
        <time>2021-02-19T14:54:12Z</time>
      </trkpt>
      <trkpt lat="43.2648170" lon="-2.9560130">
        <ele>-23.6</ele>
        <time>2021-02-19T14:54:21Z</time>
      </trkpt>
      <trkpt lat="43.2649070" lon="-2.9552620">
        <ele>-23.2</ele>
        <time>2021-02-19T14:54:31Z</time>
      </trkpt>
      <trkpt lat="43.2649890" lon="-2.9544970">
        <ele>-23.2</ele>
        <time>2021-02-19T14:54:41Z</time>
      </trkpt>
      <trkpt lat="43.2650380" lon="-2.9541470">
        <ele>-23.0</ele>
        <time>2021-02-19T14:54:46Z</time>
      </trkpt>
      <trkpt lat="43.2651350" lon="-2.9533840">
        <ele>-22.6</ele>
        <time>2021-02-19T14:54:56Z</time>
      </trkpt>
      <trkpt lat="43.2652430" lon="-2.9526550">
        <ele>-23.2</ele>
        <time>2021-02-19T14:55:13Z</time>
      </trkpt>
      <trkpt lat="43.2652780" lon="-2.9523660">
        <ele>-23.8</ele>
        <time>2021-02-19T14:55:17Z</time>
      </trkpt>
      <trkpt lat="43.2654050" lon="-2.9515790">
        <ele>-24.6</ele>
        <time>2021-02-19T14:55:28Z</time>
      </trkpt>
      <trkpt lat="43.2654890" lon="-2.9508800">
        <ele>-24.8</ele>
        <time>2021-02-19T14:55:38Z</time>
      </trkpt>
      <trkpt lat="43.2655990" lon="-2.9501230">
        <ele>-25.0</ele>
        <time>2021-02-19T14:55:48Z</time>
      </trkpt>
      <trkpt lat="43.2656780" lon="-2.9495540">
        <ele>-25.2</ele>
        <time>2021-02-19T14:55:55Z</time>
      </trkpt>
      <trkpt lat="43.2657020" lon="-2.9489430">
        <ele>-25.4</ele>
        <time>2021-02-19T14:56:02Z</time>
      </trkpt>
      <trkpt lat="43.2657850" lon="-2.9482040">
        <ele>-25.4</ele>
        <time>2021-02-19T14:56:10Z</time>
      </trkpt>
      <trkpt lat="43.2658680" lon="-2.9474340">
        <ele>-24.8</ele>
        <time>2021-02-19T14:56:18Z</time>
      </trkpt>
      <trkpt lat="43.2659150" lon="-2.9469530">
        <ele>-23.8</ele>
        <time>2021-02-19T14:56:26Z</time>
      </trkpt>
      <trkpt lat="43.2659250" lon="-2.9468690">
        <ele>-22.6</ele>
        <time>2021-02-19T14:56:28Z</time>
      </trkpt>
      <trkpt lat="43.2659310" lon="-2.9468300">
        <ele>-21.6</ele>
        <time>2021-02-19T14:56:29Z</time>
      </trkpt>
      <trkpt lat="43.2659430" lon="-2.9467530">
        <ele>-20.6</ele>
        <time>2021-02-19T14:56:31Z</time>
      </trkpt>
      <trkpt lat="43.2659670" lon="-2.9466490">
        <ele>-19.2</ele>
        <time>2021-02-19T14:56:34Z</time>
      </trkpt>
      <trkpt lat="43.2659840" lon="-2.9465850">
        <ele>-18.2</ele>
        <time>2021-02-19T14:56:36Z</time>
      </trkpt>
      <trkpt lat="43.2660140" lon="-2.9464770">
        <ele>-16.8</ele>
        <time>2021-02-19T14:56:39Z</time>
      </trkpt>
      <trkpt lat="43.2660550" lon="-2.9463790">
        <ele>-15.6</ele>
        <time>2021-02-19T14:56:42Z</time>
      </trkpt>
      <trkpt lat="43.2660910" lon="-2.9463260">
        <ele>-14.6</ele>
        <time>2021-02-19T14:56:44Z</time>
      </trkpt>
      <trkpt lat="43.2661350" lon="-2.9462900">
        <ele>-13.6</ele>
        <time>2021-02-19T14:56:46Z</time>
      </trkpt>
      <trkpt lat="43.2662750" lon="-2.9461450">
        <ele>-13.0</ele>
        <time>2021-02-19T14:56:55Z</time>
      </trkpt>
      <trkpt lat="43.2663450" lon="-2.9459530">
        <ele>-12.2</ele>
        <time>2021-02-19T15:02:05Z</time>
      </trkpt>
      <trkpt lat="43.2663560" lon="-2.9459250">
        <ele>-12.2</ele>
        <time>2021-02-19T15:02:06Z</time>
      </trkpt>
      <trkpt lat="43.2664240" lon="-2.9458730">
        <ele>-12.0</ele>
        <time>2021-02-19T15:02:09Z</time>
      </trkpt>
      <trkpt lat="43.2669680" lon="-2.9461810">
        <ele>-11.4</ele>
        <time>2021-02-19T15:02:21Z</time>
      </trkpt>
      <trkpt lat="43.2671880" lon="-2.9463080">
        <ele>-11.4</ele>
        <time>2021-02-19T15:02:25Z</time>
      </trkpt>
      <trkpt lat="43.2672390" lon="-2.9463430">
        <ele>-11.4</ele>
        <time>2021-02-19T15:02:26Z</time>
      </trkpt>
      <trkpt lat="43.2672910" lon="-2.9463850">
        <ele>-11.4</ele>
        <time>2021-02-19T15:02:27Z</time>
      </trkpt>
      <trkpt lat="43.2674280" lon="-2.9465370">
        <ele>-11.4</ele>
        <time>2021-02-19T15:02:30Z</time>
      </trkpt>
      <trkpt lat="43.2674790" lon="-2.9466010">
        <ele>-11.6</ele>
        <time>2021-02-19T15:02:31Z</time>
      </trkpt>
      <trkpt lat="43.2675250" lon="-2.9466630">
        <ele>-11.6</ele>
        <time>2021-02-19T15:02:32Z</time>
      </trkpt>
      <trkpt lat="43.2676160" lon="-2.9468030">
        <ele>-12.0</ele>
        <time>2021-02-19T15:02:34Z</time>
      </trkpt>
      <trkpt lat="43.2676950" lon="-2.9469560">
        <ele>-12.4</ele>
        <time>2021-02-19T15:02:36Z</time>
      </trkpt>
      <trkpt lat="43.2677290" lon="-2.9470370">
        <ele>-12.6</ele>
        <time>2021-02-19T15:02:37Z</time>
      </trkpt>
      <trkpt lat="43.2677620" lon="-2.9471320">
        <ele>-12.8</ele>
        <time>2021-02-19T15:02:38Z</time>
      </trkpt>
      <trkpt lat="43.2678320" lon="-2.9474120">
        <ele>-13.2</ele>
        <time>2021-02-19T15:02:41Z</time>
      </trkpt>
      <trkpt lat="43.2678470" lon="-2.9475160">
        <ele>-13.4</ele>
        <time>2021-02-19T15:02:42Z</time>
      </trkpt>
      <trkpt lat="43.2678670" lon="-2.9477240">
        <ele>-13.6</ele>
        <time>2021-02-19T15:02:44Z</time>
      </trkpt>
      <trkpt lat="43.2678560" lon="-2.9479460">
        <ele>-13.6</ele>
        <time>2021-02-19T15:02:46Z</time>
      </trkpt>
      <trkpt lat="43.2677910" lon="-2.9482940">
        <ele>-13.8</ele>
        <time>2021-02-19T15:02:49Z</time>
      </trkpt>
      <trkpt lat="43.2677100" lon="-2.9486610">
        <ele>-14.4</ele>
        <time>2021-02-19T15:02:52Z</time>
      </trkpt>
      <trkpt lat="43.2676340" lon="-2.9490140">
        <ele>-15.8</ele>
        <time>2021-02-19T15:02:55Z</time>
      </trkpt>
      <trkpt lat="43.2676130" lon="-2.9491180">
        <ele>-16.2</ele>
        <time>2021-02-19T15:02:56Z</time>
      </trkpt>
      <trkpt lat="43.2675960" lon="-2.9492120">
        <ele>-16.4</ele>
        <time>2021-02-19T15:02:57Z</time>
      </trkpt>
      <trkpt lat="43.2675860" lon="-2.9492970">
        <ele>-16.8</ele>
        <time>2021-02-19T15:02:58Z</time>
      </trkpt>
      <trkpt lat="43.2675830" lon="-2.9493740">
        <ele>-17.2</ele>
        <time>2021-02-19T15:02:59Z</time>
      </trkpt>
      <trkpt lat="43.2675870" lon="-2.9494400">
        <ele>-17.4</ele>
        <time>2021-02-19T15:03:00Z</time>
      </trkpt>
      <trkpt lat="43.2675990" lon="-2.9494940">
        <ele>-18.0</ele>
        <time>2021-02-19T15:03:01Z</time>
      </trkpt>
      <trkpt lat="43.2676210" lon="-2.9495380">
        <ele>-18.4</ele>
        <time>2021-02-19T15:03:02Z</time>
      </trkpt>
      <trkpt lat="43.2676600" lon="-2.9495840">
        <ele>-19.2</ele>
        <time>2021-02-19T15:03:03Z</time>
      </trkpt>
      <trkpt lat="43.2677020" lon="-2.9496270">
        <ele>-19.8</ele>
        <time>2021-02-19T15:03:04Z</time>
      </trkpt>
      <trkpt lat="43.2677450" lon="-2.9496710">
        <ele>-20.4</ele>
        <time>2021-02-19T15:03:05Z</time>
      </trkpt>
      <trkpt lat="43.2677890" lon="-2.9497190">
        <ele>-21.0</ele>
        <time>2021-02-19T15:03:06Z</time>
      </trkpt>
      <trkpt lat="43.2678730" lon="-2.9498410">
        <ele>-21.6</ele>
        <time>2021-02-19T15:03:08Z</time>
      </trkpt>
      <trkpt lat="43.2679190" lon="-2.9499990">
        <ele>-21.8</ele>
        <time>2021-02-19T15:03:10Z</time>
      </trkpt>
      <trkpt lat="43.2679370" lon="-2.9500780">
        <ele>-22.0</ele>
        <time>2021-02-19T15:03:11Z</time>
      </trkpt>
      <trkpt lat="43.2679540" lon="-2.9501560">
        <ele>-22.2</ele>
        <time>2021-02-19T15:03:12Z</time>
      </trkpt>
      <trkpt lat="43.2680140" lon="-2.9504590">
        <ele>-23.0</ele>
        <time>2021-02-19T15:03:16Z</time>
      </trkpt>
      <trkpt lat="43.2680440" lon="-2.9505940">
        <ele>-23.4</ele>
        <time>2021-02-19T15:03:18Z</time>
      </trkpt>
      <trkpt lat="43.2680560" lon="-2.9506530">
        <ele>-23.6</ele>
        <time>2021-02-19T15:03:19Z</time>
      </trkpt>
      <trkpt lat="43.2680610" lon="-2.9507110">
        <ele>-23.6</ele>
        <time>2021-02-19T15:03:20Z</time>
      </trkpt>
      <trkpt lat="43.2680770" lon="-2.9508210">
        <ele>-23.6</ele>
        <time>2021-02-19T15:03:21Z</time>
      </trkpt>
      <trkpt lat="43.2680770" lon="-2.9508210">
        <ele>-23.6</ele>
        <time>2021-02-19T15:03:22Z</time>
      </trkpt>
      <trkpt lat="43.2680870" lon="-2.9508690">
        <ele>-23.6</ele>
        <time>2021-02-19T15:03:23Z</time>
      </trkpt>
      <trkpt lat="43.2680930" lon="-2.9508940">
        <ele>-23.6</ele>
        <time>2021-02-19T15:03:24Z</time>
      </trkpt>
      <trkpt lat="43.2681260" lon="-2.9516430">
        <ele>-22.6</ele>
        <time>2021-02-19T15:03:40Z</time>
      </trkpt>
      <trkpt lat="43.2681680" lon="-2.9519840">
        <ele>-24.0</ele>
        <time>2021-02-19T15:03:46Z</time>
      </trkpt>
      <trkpt lat="43.2681960" lon="-2.9521140">
        <ele>-24.2</ele>
        <time>2021-02-19T15:03:48Z</time>
      </trkpt>
      <trkpt lat="43.2682280" lon="-2.9523060">
        <ele>-24.2</ele>
        <time>2021-02-19T15:03:51Z</time>
      </trkpt>
      <trkpt lat="43.2683680" lon="-2.9530280">
        <ele>-23.4</ele>
        <time>2021-02-19T15:04:00Z</time>
      </trkpt>
      <trkpt lat="43.2683780" lon="-2.9531030">
        <ele>-23.0</ele>
        <time>2021-02-19T15:04:01Z</time>
      </trkpt>
      <trkpt lat="43.2684620" lon="-2.9536480">
        <ele>-22.4</ele>
        <time>2021-02-19T15:04:09Z</time>
      </trkpt>
      <trkpt lat="43.2684390" lon="-2.9537730">
        <ele>-22.6</ele>
        <time>2021-02-19T15:04:11Z</time>
      </trkpt>
      <trkpt lat="43.2683810" lon="-2.9538470">
        <ele>-22.6</ele>
        <time>2021-02-19T15:04:13Z</time>
      </trkpt>
      <trkpt lat="43.2681010" lon="-2.9540330">
        <ele>-22.2</ele>
        <time>2021-02-19T15:04:26Z</time>
      </trkpt>
      <trkpt lat="43.2680400" lon="-2.9541170">
        <ele>-21.4</ele>
        <time>2021-02-19T15:04:30Z</time>
      </trkpt>
      <trkpt lat="43.2675030" lon="-2.9544480">
        <ele>-21.2</ele>
        <time>2021-02-19T15:04:44Z</time>
      </trkpt>
      <trkpt lat="43.2671070" lon="-2.9547110">
        <ele>-21.2</ele>
        <time>2021-02-19T15:04:52Z</time>
      </trkpt>
      <trkpt lat="43.2670110" lon="-2.9547240">
        <ele>-21.2</ele>
        <time>2021-02-19T15:04:54Z</time>
      </trkpt>
      <trkpt lat="43.2669220" lon="-2.9546720">
        <ele>-21.0</ele>
        <time>2021-02-19T15:04:56Z</time>
      </trkpt>
      <trkpt lat="43.2668500" lon="-2.9545590">
        <ele>-21.0</ele>
        <time>2021-02-19T15:04:58Z</time>
      </trkpt>
      <trkpt lat="43.2667730" lon="-2.9544440">
        <ele>-21.4</ele>
        <time>2021-02-19T15:05:00Z</time>
      </trkpt>
      <trkpt lat="43.2666760" lon="-2.9543690">
        <ele>-21.8</ele>
        <time>2021-02-19T15:05:02Z</time>
      </trkpt>
      <trkpt lat="43.2664990" lon="-2.9543180">
        <ele>-22.6</ele>
        <time>2021-02-19T15:05:05Z</time>
      </trkpt>
      <trkpt lat="43.2660290" lon="-2.9541960">
        <ele>-23.0</ele>
        <time>2021-02-19T15:05:13Z</time>
      </trkpt>
      <trkpt lat="43.2659650" lon="-2.9542590">
        <ele>-23.0</ele>
        <time>2021-02-19T15:05:15Z</time>
      </trkpt>
      <trkpt lat="43.2659200" lon="-2.9543720">
        <ele>-23.2</ele>
        <time>2021-02-19T15:05:17Z</time>
      </trkpt>
      <trkpt lat="43.2658820" lon="-2.9547130">
        <ele>-23.2</ele>
        <time>2021-02-19T15:05:22Z</time>
      </trkpt>
      <trkpt lat="43.2658340" lon="-2.9550610">
        <ele>-23.6</ele>
        <time>2021-02-19T15:05:27Z</time>
      </trkpt>
      <trkpt lat="43.2657730" lon="-2.9554780">
        <ele>-23.8</ele>
        <time>2021-02-19T15:05:33Z</time>
      </trkpt>
      <trkpt lat="43.2657610" lon="-2.9556210">
        <ele>-24.0</ele>
        <time>2021-02-19T15:05:35Z</time>
      </trkpt>
      <trkpt lat="43.2657040" lon="-2.9563540">
        <ele>-24.2</ele>
        <time>2021-02-19T15:05:45Z</time>
      </trkpt>
      <trkpt lat="43.2656740" lon="-2.9571190">
        <ele>-23.6</ele>
        <time>2021-02-19T15:05:56Z</time>
      </trkpt>
      <trkpt lat="43.2656920" lon="-2.9577630">
        <ele>-23.2</ele>
        <time>2021-02-19T15:06:04Z</time>
      </trkpt>
      <trkpt lat="43.2658380" lon="-2.9584430">
        <ele>-22.4</ele>
        <time>2021-02-19T15:06:13Z</time>
      </trkpt>
      <trkpt lat="43.2660350" lon="-2.9588640">
        <ele>-22.6</ele>
        <time>2021-02-19T15:06:19Z</time>
      </trkpt>
      <trkpt lat="43.2662010" lon="-2.9591130">
        <ele>-22.6</ele>
        <time>2021-02-19T15:06:23Z</time>
      </trkpt>
      <trkpt lat="43.2665970" lon="-2.9596550">
        <ele>-23.0</ele>
        <time>2021-02-19T15:06:33Z</time>
      </trkpt>
      <trkpt lat="43.2669930" lon="-2.9601620">
        <ele>-22.8</ele>
        <time>2021-02-19T15:06:42Z</time>
      </trkpt>
      <trkpt lat="43.2671720" lon="-2.9603820">
        <ele>-22.8</ele>
        <time>2021-02-19T15:06:46Z</time>
      </trkpt>
      <trkpt lat="43.2675200" lon="-2.9607890">
        <ele>-23.2</ele>
        <time>2021-02-19T15:06:54Z</time>
      </trkpt>
      <trkpt lat="43.2678460" lon="-2.9612170">
        <ele>-23.2</ele>
        <time>2021-02-19T15:07:02Z</time>
      </trkpt>
      <trkpt lat="43.2681860" lon="-2.9614050">
        <ele>-22.6</ele>
        <time>2021-02-19T15:07:15Z</time>
      </trkpt>
      <trkpt lat="43.2681210" lon="-2.9614180">
        <ele>-20.8</ele>
        <time>2021-02-19T15:07:45Z</time>
      </trkpt>
      <trkpt lat="43.2680120" lon="-2.9613500">
        <ele>-20.0</ele>
        <time>2021-02-19T15:07:49Z</time>
      </trkpt>
      <trkpt lat="43.2678380" lon="-2.9611550">
        <ele>-19.8</ele>
        <time>2021-02-19T15:07:54Z</time>
      </trkpt>
      <trkpt lat="43.2676720" lon="-2.9609640">
        <ele>-19.8</ele>
        <time>2021-02-19T15:07:58Z</time>
      </trkpt>
      <trkpt lat="43.2674630" lon="-2.9607070">
        <ele>-20.0</ele>
        <time>2021-02-19T15:08:03Z</time>
      </trkpt>
      <trkpt lat="43.2674220" lon="-2.9606580">
        <ele>-20.0</ele>
        <time>2021-02-19T15:08:04Z</time>
      </trkpt>
      <trkpt lat="43.2673780" lon="-2.9606100">
        <ele>-20.2</ele>
        <time>2021-02-19T15:08:05Z</time>
      </trkpt>
      <trkpt lat="43.2672910" lon="-2.9605150">
        <ele>-20.0</ele>
        <time>2021-02-19T15:08:07Z</time>
      </trkpt>
      <trkpt lat="43.2671600" lon="-2.9603760">
        <ele>-19.8</ele>
        <time>2021-02-19T15:08:10Z</time>
      </trkpt>
      <trkpt lat="43.2671190" lon="-2.9603240">
        <ele>-19.8</ele>
        <time>2021-02-19T15:08:11Z</time>
      </trkpt>
      <trkpt lat="43.2669880" lon="-2.9601700">
        <ele>-19.8</ele>
        <time>2021-02-19T15:08:14Z</time>
      </trkpt>
      <trkpt lat="43.2666190" lon="-2.9597460">
        <ele>-20.2</ele>
        <time>2021-02-19T15:08:22Z</time>
      </trkpt>
      <trkpt lat="43.2665240" lon="-2.9596370">
        <ele>-20.8</ele>
        <time>2021-02-19T15:08:24Z</time>
      </trkpt>
      <trkpt lat="43.2662380" lon="-2.9592290">
        <ele>-22.0</ele>
        <time>2021-02-19T15:08:31Z</time>
      </trkpt>
      <trkpt lat="43.2660650" lon="-2.9589570">
        <ele>-23.0</ele>
        <time>2021-02-19T15:08:36Z</time>
      </trkpt>
      <trkpt lat="43.2659540" lon="-2.9587740">
        <ele>-23.8</ele>
        <time>2021-02-19T15:08:40Z</time>
      </trkpt>
      <trkpt lat="43.2659050" lon="-2.9586710">
        <ele>-23.8</ele>
        <time>2021-02-19T15:08:41Z</time>
      </trkpt>
      <trkpt lat="43.2658360" lon="-2.9585040">
        <ele>-23.8</ele>
        <time>2021-02-19T15:08:45Z</time>
      </trkpt>
      <trkpt lat="43.2657540" lon="-2.9582510">
        <ele>-24.0</ele>
        <time>2021-02-19T15:08:49Z</time>
      </trkpt>
      <trkpt lat="43.2656050" lon="-2.9574820">
        <ele>-24.2</ele>
        <time>2021-02-19T15:09:00Z</time>
      </trkpt>
      <trkpt lat="43.2655860" lon="-2.9572560">
        <ele>-24.2</ele>
        <time>2021-02-19T15:09:03Z</time>
      </trkpt>
      <trkpt lat="43.2656300" lon="-2.9565180">
        <ele>-24.2</ele>
        <time>2021-02-19T15:09:13Z</time>
      </trkpt>
      <trkpt lat="43.2656850" lon="-2.9557150">
        <ele>-24.8</ele>
        <time>2021-02-19T15:09:23Z</time>
      </trkpt>
      <trkpt lat="43.2657030" lon="-2.9555520">
        <ele>-25.2</ele>
        <time>2021-02-19T15:09:25Z</time>
      </trkpt>
      <trkpt lat="43.2658090" lon="-2.9548190">
        <ele>-24.4</ele>
        <time>2021-02-19T15:09:34Z</time>
      </trkpt>
      <trkpt lat="43.2658700" lon="-2.9545160">
        <ele>-24.2</ele>
        <time>2021-02-19T15:09:38Z</time>
      </trkpt>
      <trkpt lat="43.2659070" lon="-2.9542860">
        <ele>-24.0</ele>
        <time>2021-02-19T15:09:41Z</time>
      </trkpt>
      <trkpt lat="43.2659330" lon="-2.9541510">
        <ele>-23.8</ele>
        <time>2021-02-19T15:09:43Z</time>
      </trkpt>
      <trkpt lat="43.2660020" lon="-2.9541000">
        <ele>-23.8</ele>
        <time>2021-02-19T15:09:45Z</time>
      </trkpt>
      <trkpt lat="43.2663650" lon="-2.9541830">
        <ele>-23.0</ele>
        <time>2021-02-19T15:09:53Z</time>
      </trkpt>
      <trkpt lat="43.2667390" lon="-2.9542870">
        <ele>-22.4</ele>
        <time>2021-02-19T15:10:00Z</time>
      </trkpt>
      <trkpt lat="43.2668330" lon="-2.9543770">
        <ele>-22.2</ele>
        <time>2021-02-19T15:10:02Z</time>
      </trkpt>
      <trkpt lat="43.2669150" lon="-2.9544940">
        <ele>-21.8</ele>
        <time>2021-02-19T15:10:04Z</time>
      </trkpt>
      <trkpt lat="43.2669930" lon="-2.9545780">
        <ele>-21.4</ele>
        <time>2021-02-19T15:10:06Z</time>
      </trkpt>
      <trkpt lat="43.2670770" lon="-2.9545820">
        <ele>-21.2</ele>
        <time>2021-02-19T15:10:08Z</time>
      </trkpt>
      <trkpt lat="43.2671620" lon="-2.9545300">
        <ele>-21.0</ele>
        <time>2021-02-19T15:10:10Z</time>
      </trkpt>
      <trkpt lat="43.2672760" lon="-2.9544380">
        <ele>-20.8</ele>
        <time>2021-02-19T15:10:13Z</time>
      </trkpt>
      <trkpt lat="43.2677660" lon="-2.9541020">
        <ele>-20.2</ele>
        <time>2021-02-19T15:10:25Z</time>
      </trkpt>
      <trkpt lat="43.2677880" lon="-2.9540890">
        <ele>-20.2</ele>
        <time>2021-02-19T15:10:29Z</time>
      </trkpt>
      <trkpt lat="43.2678030" lon="-2.9540380">
        <ele>-18.2</ele>
        <time>2021-02-19T15:11:46Z</time>
      </trkpt>
      <trkpt lat="43.2678190" lon="-2.9540100">
        <ele>-18.2</ele>
        <time>2021-02-19T15:11:47Z</time>
      </trkpt>
      <trkpt lat="43.2678320" lon="-2.9539730">
        <ele>-17.8</ele>
        <time>2021-02-19T15:11:48Z</time>
      </trkpt>
      <trkpt lat="43.2678270" lon="-2.9538820">
        <ele>-17.6</ele>
        <time>2021-02-19T15:11:50Z</time>
      </trkpt>
      <trkpt lat="43.2676850" lon="-2.9534570">
        <ele>-17.2</ele>
        <time>2021-02-19T15:11:56Z</time>
      </trkpt>
      <trkpt lat="43.2675520" lon="-2.9528150">
        <ele>-17.0</ele>
        <time>2021-02-19T15:12:03Z</time>
      </trkpt>
      <trkpt lat="43.2674520" lon="-2.9521340">
        <ele>-18.6</ele>
        <time>2021-02-19T15:12:10Z</time>
      </trkpt>
      <trkpt lat="43.2674410" lon="-2.9520330">
        <ele>-19.0</ele>
        <time>2021-02-19T15:12:11Z</time>
      </trkpt>
      <trkpt lat="43.2673390" lon="-2.9513180">
        <ele>-19.6</ele>
        <time>2021-02-19T15:12:19Z</time>
      </trkpt>
      <trkpt lat="43.2673130" lon="-2.9512420">
        <ele>-19.6</ele>
        <time>2021-02-19T15:12:20Z</time>
      </trkpt>
      <trkpt lat="43.2672840" lon="-2.9511670">
        <ele>-19.6</ele>
        <time>2021-02-19T15:12:21Z</time>
      </trkpt>
      <trkpt lat="43.2672300" lon="-2.9510090">
        <ele>-19.6</ele>
        <time>2021-02-19T15:12:23Z</time>
      </trkpt>
      <trkpt lat="43.2671870" lon="-2.9508330">
        <ele>-19.6</ele>
        <time>2021-02-19T15:12:25Z</time>
      </trkpt>
      <trkpt lat="43.2671560" lon="-2.9506350">
        <ele>-19.6</ele>
        <time>2021-02-19T15:12:27Z</time>
      </trkpt>
      <trkpt lat="43.2671470" lon="-2.9505350">
        <ele>-19.6</ele>
        <time>2021-02-19T15:12:28Z</time>
      </trkpt>
      <trkpt lat="43.2671390" lon="-2.9502300">
        <ele>-19.8</ele>
        <time>2021-02-19T15:12:31Z</time>
      </trkpt>
      <trkpt lat="43.2671450" lon="-2.9501300">
        <ele>-19.8</ele>
        <time>2021-02-19T15:12:32Z</time>
      </trkpt>
      <trkpt lat="43.2671670" lon="-2.9499350">
        <ele>-20.8</ele>
        <time>2021-02-19T15:12:34Z</time>
      </trkpt>
      <trkpt lat="43.2671990" lon="-2.9497780">
        <ele>-22.0</ele>
        <time>2021-02-19T15:12:36Z</time>
      </trkpt>
      <trkpt lat="43.2672270" lon="-2.9497270">
        <ele>-22.2</ele>
        <time>2021-02-19T15:12:37Z</time>
      </trkpt>
      <trkpt lat="43.2673090" lon="-2.9496600">
        <ele>-22.4</ele>
        <time>2021-02-19T15:12:39Z</time>
      </trkpt>
      <trkpt lat="43.2674100" lon="-2.9495750">
        <ele>-23.0</ele>
        <time>2021-02-19T15:12:41Z</time>
      </trkpt>
      <trkpt lat="43.2674630" lon="-2.9495390">
        <ele>-23.2</ele>
        <time>2021-02-19T15:12:42Z</time>
      </trkpt>
      <trkpt lat="43.2676020" lon="-2.9495360">
        <ele>-23.4</ele>
        <time>2021-02-19T15:12:44Z</time>
      </trkpt>
      <trkpt lat="43.2677830" lon="-2.9495450">
        <ele>-23.6</ele>
        <time>2021-02-19T15:12:47Z</time>
      </trkpt>
      <trkpt lat="43.2678460" lon="-2.9495220">
        <ele>-23.6</ele>
        <time>2021-02-19T15:12:48Z</time>
      </trkpt>
      <trkpt lat="43.2679020" lon="-2.9494830">
        <ele>-23.6</ele>
        <time>2021-02-19T15:12:49Z</time>
      </trkpt>
      <trkpt lat="43.2679650" lon="-2.9493570">
        <ele>-23.8</ele>
        <time>2021-02-19T15:12:51Z</time>
      </trkpt>
      <trkpt lat="43.2679860" lon="-2.9492970">
        <ele>-23.8</ele>
        <time>2021-02-19T15:12:52Z</time>
      </trkpt>
      <trkpt lat="43.2680040" lon="-2.9492430">
        <ele>-24.2</ele>
        <time>2021-02-19T15:12:53Z</time>
      </trkpt>
      <trkpt lat="43.2680170" lon="-2.9491950">
        <ele>-24.4</ele>
        <time>2021-02-19T15:12:54Z</time>
      </trkpt>
      <trkpt lat="43.2680260" lon="-2.9490600">
        <ele>-24.8</ele>
        <time>2021-02-19T15:12:57Z</time>
      </trkpt>
      <trkpt lat="43.2679340" lon="-2.9488450">
        <ele>-25.0</ele>
        <time>2021-02-19T15:13:08Z</time>
      </trkpt>
      <trkpt lat="43.2681050" lon="-2.9470320">
        <ele>-22.2</ele>
        <time>2021-02-19T15:16:28Z</time>
      </trkpt>
      <trkpt lat="43.2681050" lon="-2.9470320">
        <ele>-22.2</ele>
        <time>2021-02-19T15:16:29Z</time>
      </trkpt>
      <trkpt lat="43.2681430" lon="-2.9469940">
        <ele>-22.4</ele>
        <time>2021-02-19T15:16:36Z</time>
      </trkpt>
      <trkpt lat="43.2681640" lon="-2.9469800">
        <ele>-22.4</ele>
        <time>2021-02-19T15:16:37Z</time>
      </trkpt>
      <trkpt lat="43.2681840" lon="-2.9469670">
        <ele>-22.6</ele>
        <time>2021-02-19T15:16:38Z</time>
      </trkpt>
      <trkpt lat="43.2682260" lon="-2.9469470">
        <ele>-22.6</ele>
        <time>2021-02-19T15:16:40Z</time>
      </trkpt>
      <trkpt lat="43.2682620" lon="-2.9469300">
        <ele>-23.0</ele>
        <time>2021-02-19T15:16:42Z</time>
      </trkpt>
      <trkpt lat="43.2683100" lon="-2.9469050">
        <ele>-23.2</ele>
        <time>2021-02-19T15:16:45Z</time>
      </trkpt>
      <trkpt lat="43.2683620" lon="-2.9468870">
        <ele>-23.6</ele>
        <time>2021-02-19T15:16:48Z</time>
      </trkpt>
      <trkpt lat="43.2683780" lon="-2.9468890">
        <ele>-23.6</ele>
        <time>2021-02-19T15:16:49Z</time>
      </trkpt>
      <trkpt lat="43.2683930" lon="-2.9468920">
        <ele>-23.8</ele>
        <time>2021-02-19T15:16:50Z</time>
      </trkpt>
      <trkpt lat="43.2684290" lon="-2.9468690">
        <ele>-23.8</ele>
        <time>2021-02-19T15:16:52Z</time>
      </trkpt>
      <trkpt lat="43.2684460" lon="-2.9468380">
        <ele>-24.0</ele>
        <time>2021-02-19T15:16:53Z</time>
      </trkpt>
      <trkpt lat="43.2684640" lon="-2.9467990">
        <ele>-24.0</ele>
        <time>2021-02-19T15:16:54Z</time>
      </trkpt>
      <trkpt lat="43.2684850" lon="-2.9467550">
        <ele>-24.2</ele>
        <time>2021-02-19T15:16:55Z</time>
      </trkpt>
      <trkpt lat="43.2685050" lon="-2.9467020">
        <ele>-24.2</ele>
        <time>2021-02-19T15:16:56Z</time>
      </trkpt>
      <trkpt lat="43.2685780" lon="-2.9465250">
        <ele>-24.4</ele>
        <time>2021-02-19T15:16:59Z</time>
      </trkpt>
      <trkpt lat="43.2686180" lon="-2.9463750">
        <ele>-24.4</ele>
        <time>2021-02-19T15:17:01Z</time>
      </trkpt>
      <trkpt lat="43.2686930" lon="-2.9460470">
        <ele>-24.6</ele>
        <time>2021-02-19T15:17:05Z</time>
      </trkpt>
      <trkpt lat="43.2687160" lon="-2.9459750">
        <ele>-24.6</ele>
        <time>2021-02-19T15:17:06Z</time>
      </trkpt>
      <trkpt lat="43.2687490" lon="-2.9459220">
        <ele>-24.6</ele>
        <time>2021-02-19T15:17:07Z</time>
      </trkpt>
      <trkpt lat="43.2687690" lon="-2.9458490">
        <ele>-24.6</ele>
        <time>2021-02-19T15:17:08Z</time>
      </trkpt>
      <trkpt lat="43.2688540" lon="-2.9454530">
        <ele>-24.4</ele>
        <time>2021-02-19T15:17:16Z</time>
      </trkpt>
      <trkpt lat="43.2688430" lon="-2.9454480">
        <ele>-24.2</ele>
        <time>2021-02-19T15:17:18Z</time>
      </trkpt>
      <trkpt lat="43.2688220" lon="-2.9453840">
        <ele>-22.6</ele>
        <time>2021-02-19T15:17:58Z</time>
      </trkpt>
      <trkpt lat="43.2688320" lon="-2.9453520">
        <ele>-22.6</ele>
        <time>2021-02-19T15:17:59Z</time>
      </trkpt>
      <trkpt lat="43.2689610" lon="-2.9448550">
        <ele>-22.4</ele>
        <time>2021-02-19T15:18:08Z</time>
      </trkpt>
      <trkpt lat="43.2690810" lon="-2.9442840">
        <ele>-21.4</ele>
        <time>2021-02-19T15:18:16Z</time>
      </trkpt>
      <trkpt lat="43.2691570" lon="-2.9440140">
        <ele>-21.2</ele>
        <time>2021-02-19T15:18:20Z</time>
      </trkpt>
      <trkpt lat="43.2691870" lon="-2.9439620">
        <ele>-21.2</ele>
        <time>2021-02-19T15:18:21Z</time>
      </trkpt>
      <trkpt lat="43.2692400" lon="-2.9438510">
        <ele>-21.2</ele>
        <time>2021-02-19T15:18:23Z</time>
      </trkpt>
      <trkpt lat="43.2692790" lon="-2.9437240">
        <ele>-21.4</ele>
        <time>2021-02-19T15:18:25Z</time>
      </trkpt>
      <trkpt lat="43.2693110" lon="-2.9435790">
        <ele>-21.4</ele>
        <time>2021-02-19T15:18:27Z</time>
      </trkpt>
      <trkpt lat="43.2693220" lon="-2.9434940">
        <ele>-21.4</ele>
        <time>2021-02-19T15:18:28Z</time>
      </trkpt>
      <trkpt lat="43.2693350" lon="-2.9434110">
        <ele>-21.6</ele>
        <time>2021-02-19T15:18:29Z</time>
      </trkpt>
      <trkpt lat="43.2693530" lon="-2.9433370">
        <ele>-21.6</ele>
        <time>2021-02-19T15:18:30Z</time>
      </trkpt>
      <trkpt lat="43.2693740" lon="-2.9428890">
        <ele>-22.0</ele>
        <time>2021-02-19T15:18:35Z</time>
      </trkpt>
      <trkpt lat="43.2693960" lon="-2.9427200">
        <ele>-22.2</ele>
        <time>2021-02-19T15:18:37Z</time>
      </trkpt>
      <trkpt lat="43.2694050" lon="-2.9425360">
        <ele>-22.4</ele>
        <time>2021-02-19T15:18:39Z</time>
      </trkpt>
      <trkpt lat="43.2694130" lon="-2.9424500">
        <ele>-22.4</ele>
        <time>2021-02-19T15:18:40Z</time>
      </trkpt>
      <trkpt lat="43.2694680" lon="-2.9421350">
        <ele>-22.6</ele>
        <time>2021-02-19T15:18:44Z</time>
      </trkpt>
      <trkpt lat="43.2695100" lon="-2.9419050">
        <ele>-22.6</ele>
        <time>2021-02-19T15:18:47Z</time>
      </trkpt>
      <trkpt lat="43.2695530" lon="-2.9417670">
        <ele>-21.6</ele>
        <time>2021-02-19T15:18:49Z</time>
      </trkpt>
      <trkpt lat="43.2695780" lon="-2.9416980">
        <ele>-21.2</ele>
        <time>2021-02-19T15:18:50Z</time>
      </trkpt>
      <trkpt lat="43.2696280" lon="-2.9415480">
        <ele>-21.0</ele>
        <time>2021-02-19T15:18:52Z</time>
      </trkpt>
      <trkpt lat="43.2696710" lon="-2.9413880">
        <ele>-20.8</ele>
        <time>2021-02-19T15:18:54Z</time>
      </trkpt>
      <trkpt lat="43.2696890" lon="-2.9413000">
        <ele>-20.6</ele>
        <time>2021-02-19T15:18:55Z</time>
      </trkpt>
      <trkpt lat="43.2696930" lon="-2.9410920">
        <ele>-20.8</ele>
        <time>2021-02-19T15:18:57Z</time>
      </trkpt>
      <trkpt lat="43.2697250" lon="-2.9409280">
        <ele>-21.0</ele>
        <time>2021-02-19T15:18:59Z</time>
      </trkpt>
      <trkpt lat="43.2698150" lon="-2.9406200">
        <ele>-21.4</ele>
        <time>2021-02-19T15:19:03Z</time>
      </trkpt>
      <trkpt lat="43.2699090" lon="-2.9403370">
        <ele>-22.4</ele>
        <time>2021-02-19T15:19:07Z</time>
      </trkpt>
      <trkpt lat="43.2699650" lon="-2.9399880">
        <ele>-23.4</ele>
        <time>2021-02-19T15:19:12Z</time>
      </trkpt>
      <trkpt lat="43.2699750" lon="-2.9399180">
        <ele>-23.6</ele>
        <time>2021-02-19T15:19:13Z</time>
      </trkpt>
      <trkpt lat="43.2700750" lon="-2.9391780">
        <ele>-23.8</ele>
        <time>2021-02-19T15:19:23Z</time>
      </trkpt>
      <trkpt lat="43.2701610" lon="-2.9389110">
        <ele>-23.6</ele>
        <time>2021-02-19T15:19:30Z</time>
      </trkpt>
      <trkpt lat="43.2702240" lon="-2.9389160">
        <ele>-23.4</ele>
        <time>2021-02-19T15:19:32Z</time>
      </trkpt>
      <trkpt lat="43.2702820" lon="-2.9389680">
        <ele>-23.4</ele>
        <time>2021-02-19T15:19:34Z</time>
      </trkpt>
      <trkpt lat="43.2703340" lon="-2.9390820">
        <ele>-23.4</ele>
        <time>2021-02-19T15:19:36Z</time>
      </trkpt>
      <trkpt lat="43.2704760" lon="-2.9395790">
        <ele>-23.2</ele>
        <time>2021-02-19T15:19:44Z</time>
      </trkpt>
      <trkpt lat="43.2705660" lon="-2.9397910">
        <ele>-22.6</ele>
        <time>2021-02-19T15:19:48Z</time>
      </trkpt>
      <trkpt lat="43.2707510" lon="-2.9402060">
        <ele>-21.6</ele>
        <time>2021-02-19T15:19:57Z</time>
      </trkpt>
      <trkpt lat="43.2708110" lon="-2.9403460">
        <ele>-20.4</ele>
        <time>2021-02-19T15:20:00Z</time>
      </trkpt>
      <trkpt lat="43.2709390" lon="-2.9405900">
        <ele>-19.2</ele>
        <time>2021-02-19T15:20:06Z</time>
      </trkpt>
      <trkpt lat="43.2709960" lon="-2.9407360">
        <ele>-17.8</ele>
        <time>2021-02-19T15:20:11Z</time>
      </trkpt>
      <trkpt lat="43.2709940" lon="-2.9407530">
        <ele>-17.6</ele>
        <time>2021-02-19T15:20:13Z</time>
      </trkpt>
      <trkpt lat="43.2709910" lon="-2.9408150">
        <ele>-16.4</ele>
        <time>2021-02-19T15:20:24Z</time>
      </trkpt>
      <trkpt lat="43.2710930" lon="-2.9410300">
        <ele>-15.8</ele>
        <time>2021-02-19T15:20:29Z</time>
      </trkpt>
      <trkpt lat="43.2713390" lon="-2.9413010">
        <ele>-15.4</ele>
        <time>2021-02-19T15:20:37Z</time>
      </trkpt>
      <trkpt lat="43.2714410" lon="-2.9413560">
        <ele>-14.8</ele>
        <time>2021-02-19T15:20:40Z</time>
      </trkpt>
      <trkpt lat="43.2715050" lon="-2.9415230">
        <ele>-14.4</ele>
        <time>2021-02-19T15:20:44Z</time>
      </trkpt>
      <trkpt lat="43.2715200" lon="-2.9417110">
        <ele>-14.2</ele>
        <time>2021-02-19T15:20:47Z</time>
      </trkpt>
      <trkpt lat="43.2715840" lon="-2.9421060">
        <ele>-13.4</ele>
        <time>2021-02-19T15:20:53Z</time>
      </trkpt>
      <trkpt lat="43.2716140" lon="-2.9421710">
        <ele>-13.2</ele>
        <time>2021-02-19T15:20:54Z</time>
      </trkpt>
      <trkpt lat="43.2717800" lon="-2.9425260">
        <ele>-12.2</ele>
        <time>2021-02-19T15:21:00Z</time>
      </trkpt>
      <trkpt lat="43.2719790" lon="-2.9430650">
        <ele>-10.8</ele>
        <time>2021-02-19T15:21:09Z</time>
      </trkpt>
      <trkpt lat="43.2721360" lon="-2.9434290">
        <ele>-9.8</ele>
        <time>2021-02-19T15:21:15Z</time>
      </trkpt>
      <trkpt lat="43.2722020" lon="-2.9435860">
        <ele>-9.6</ele>
        <time>2021-02-19T15:21:18Z</time>
      </trkpt>
      <trkpt lat="43.2722420" lon="-2.9437080">
        <ele>-9.6</ele>
        <time>2021-02-19T15:21:20Z</time>
      </trkpt>
      <trkpt lat="43.2724780" lon="-2.9441740">
        <ele>-8.4</ele>
        <time>2021-02-19T15:21:29Z</time>
      </trkpt>
      <trkpt lat="43.2726330" lon="-2.9448890">
        <ele>-7.4</ele>
        <time>2021-02-19T15:21:38Z</time>
      </trkpt>
      <trkpt lat="43.2726370" lon="-2.9449600">
        <ele>-7.4</ele>
        <time>2021-02-19T15:21:39Z</time>
      </trkpt>
      <trkpt lat="43.2726820" lon="-2.9452050">
        <ele>-6.6</ele>
        <time>2021-02-19T15:21:43Z</time>
      </trkpt>
      <trkpt lat="43.2727180" lon="-2.9453600">
        <ele>-6.4</ele>
        <time>2021-02-19T15:21:46Z</time>
      </trkpt>
      <trkpt lat="43.2727550" lon="-2.9458720">
        <ele>-5.2</ele>
        <time>2021-02-19T15:21:55Z</time>
      </trkpt>
      <trkpt lat="43.2727720" lon="-2.9460430">
        <ele>-4.0</ele>
        <time>2021-02-19T15:21:59Z</time>
      </trkpt>
      <trkpt lat="43.2728400" lon="-2.9463200">
        <ele>-3.4</ele>
        <time>2021-02-19T15:22:05Z</time>
      </trkpt>
      <trkpt lat="43.2728330" lon="-2.9463840">
        <ele>-3.2</ele>
        <time>2021-02-19T15:22:06Z</time>
      </trkpt>
      <trkpt lat="43.2728310" lon="-2.9464990">
        <ele>-3.0</ele>
        <time>2021-02-19T15:22:08Z</time>
      </trkpt>
      <trkpt lat="43.2727630" lon="-2.9468010">
        <ele>-2.6</ele>
        <time>2021-02-19T15:22:13Z</time>
      </trkpt>
      <trkpt lat="43.2728040" lon="-2.9469810">
        <ele>-2.0</ele>
        <time>2021-02-19T15:22:17Z</time>
      </trkpt>
      <trkpt lat="43.2728150" lon="-2.9470560">
        <ele>-1.4</ele>
        <time>2021-02-19T15:22:22Z</time>
      </trkpt>
      <trkpt lat="43.2726990" lon="-2.9472610">
        <ele>-0.6</ele>
        <time>2021-02-19T15:22:39Z</time>
      </trkpt>
      <trkpt lat="43.2727990" lon="-2.9480060">
        <ele>-0.4</ele>
        <time>2021-02-19T15:22:52Z</time>
      </trkpt>
      <trkpt lat="43.2728490" lon="-2.9486050">
        <ele>-0.6</ele>
        <time>2021-02-19T15:23:00Z</time>
      </trkpt>
      <trkpt lat="43.2728230" lon="-2.9490570">
        <ele>-0.4</ele>
        <time>2021-02-19T15:23:06Z</time>
      </trkpt>
      <trkpt lat="43.2727900" lon="-2.9494460">
        <ele>0.2</ele>
        <time>2021-02-19T15:23:11Z</time>
      </trkpt>
      <trkpt lat="43.2728030" lon="-2.9495220">
        <ele>0.6</ele>
        <time>2021-02-19T15:23:12Z</time>
      </trkpt>
      <trkpt lat="43.2728390" lon="-2.9498680">
        <ele>1.4</ele>
        <time>2021-02-19T15:23:17Z</time>
      </trkpt>
      <trkpt lat="43.2728600" lon="-2.9500000">
        <ele>1.6</ele>
        <time>2021-02-19T15:23:19Z</time>
      </trkpt>
      <trkpt lat="43.2728820" lon="-2.9502760">
        <ele>2.0</ele>
        <time>2021-02-19T15:23:23Z</time>
      </trkpt>
      <trkpt lat="43.2729290" lon="-2.9504430">
        <ele>2.6</ele>
        <time>2021-02-19T15:23:26Z</time>
      </trkpt>
      <trkpt lat="43.2729920" lon="-2.9509430">
        <ele>3.0</ele>
        <time>2021-02-19T15:23:33Z</time>
      </trkpt>
      <trkpt lat="43.2730210" lon="-2.9513960">
        <ele>3.4</ele>
        <time>2021-02-19T15:23:40Z</time>
      </trkpt>
      <trkpt lat="43.2730230" lon="-2.9515750">
        <ele>3.8</ele>
        <time>2021-02-19T15:23:43Z</time>
      </trkpt>
      <trkpt lat="43.2730410" lon="-2.9516300">
        <ele>4.0</ele>
        <time>2021-02-19T15:23:44Z</time>
      </trkpt>
      <trkpt lat="43.2732090" lon="-2.9518820">
        <ele>4.6</ele>
        <time>2021-02-19T15:23:50Z</time>
      </trkpt>
      <trkpt lat="43.2732510" lon="-2.9519070">
        <ele>5.0</ele>
        <time>2021-02-19T15:23:51Z</time>
      </trkpt>
      <trkpt lat="43.2734370" lon="-2.9520430">
        <ele>5.8</ele>
        <time>2021-02-19T15:23:55Z</time>
      </trkpt>
      <trkpt lat="43.2735330" lon="-2.9521770">
        <ele>6.0</ele>
        <time>2021-02-19T15:23:57Z</time>
      </trkpt>
      <trkpt lat="43.2737110" lon="-2.9525210">
        <ele>6.2</ele>
        <time>2021-02-19T15:24:01Z</time>
      </trkpt>
      <trkpt lat="43.2740920" lon="-2.9531450">
        <ele>6.0</ele>
        <time>2021-02-19T15:24:08Z</time>
      </trkpt>
      <trkpt lat="43.2742440" lon="-2.9533700">
        <ele>4.8</ele>
        <time>2021-02-19T15:24:11Z</time>
      </trkpt>
      <trkpt lat="43.2743640" lon="-2.9534900">
        <ele>3.6</ele>
        <time>2021-02-19T15:24:13Z</time>
      </trkpt>
      <trkpt lat="43.2745090" lon="-2.9535620">
        <ele>2.4</ele>
        <time>2021-02-19T15:24:15Z</time>
      </trkpt>
      <trkpt lat="43.2750820" lon="-2.9537960">
        <ele>1.6</ele>
        <time>2021-02-19T15:24:23Z</time>
      </trkpt>
      <trkpt lat="43.2756230" lon="-2.9540490">
        <ele>2.6</ele>
        <time>2021-02-19T15:24:33Z</time>
      </trkpt>
      <trkpt lat="43.2757660" lon="-2.9540940">
        <ele>3.4</ele>
        <time>2021-02-19T15:24:36Z</time>
      </trkpt>
      <trkpt lat="43.2759990" lon="-2.9541580">
        <ele>4.8</ele>
        <time>2021-02-19T15:24:41Z</time>
      </trkpt>
      <trkpt lat="43.2761720" lon="-2.9542010">
        <ele>6.0</ele>
        <time>2021-02-19T15:24:45Z</time>
      </trkpt>
      <trkpt lat="43.2763430" lon="-2.9542460">
        <ele>7.0</ele>
        <time>2021-02-19T15:24:49Z</time>
      </trkpt>
      <trkpt lat="43.2765000" lon="-2.9543100">
        <ele>8.4</ele>
        <time>2021-02-19T15:24:53Z</time>
      </trkpt>
      <trkpt lat="43.2767150" lon="-2.9543970">
        <ele>9.4</ele>
        <time>2021-02-19T15:24:59Z</time>
      </trkpt>
      <trkpt lat="43.2768280" lon="-2.9544340">
        <ele>10.4</ele>
        <time>2021-02-19T15:25:02Z</time>
      </trkpt>
      <trkpt lat="43.2769640" lon="-2.9544930">
        <ele>11.6</ele>
        <time>2021-02-19T15:25:06Z</time>
      </trkpt>
      <trkpt lat="43.2771290" lon="-2.9546120">
        <ele>12.6</ele>
        <time>2021-02-19T15:25:11Z</time>
      </trkpt>
      <trkpt lat="43.2773080" lon="-2.9547040">
        <ele>13.8</ele>
        <time>2021-02-19T15:25:16Z</time>
      </trkpt>
      <trkpt lat="43.2774110" lon="-2.9547540">
        <ele>15.0</ele>
        <time>2021-02-19T15:25:19Z</time>
      </trkpt>
      <trkpt lat="43.2775140" lon="-2.9548320">
        <ele>16.0</ele>
        <time>2021-02-19T15:25:22Z</time>
      </trkpt>
      <trkpt lat="43.2776830" lon="-2.9549470">
        <ele>17.0</ele>
        <time>2021-02-19T15:25:27Z</time>
      </trkpt>
      <trkpt lat="43.2778240" lon="-2.9550220">
        <ele>18.4</ele>
        <time>2021-02-19T15:25:31Z</time>
      </trkpt>
      <trkpt lat="43.2779840" lon="-2.9551370">
        <ele>19.6</ele>
        <time>2021-02-19T15:25:36Z</time>
      </trkpt>
      <trkpt lat="43.2781160" lon="-2.9552080">
        <ele>20.8</ele>
        <time>2021-02-19T15:25:40Z</time>
      </trkpt>
      <trkpt lat="43.2782450" lon="-2.9552850">
        <ele>22.2</ele>
        <time>2021-02-19T15:25:44Z</time>
      </trkpt>
      <trkpt lat="43.2784030" lon="-2.9553760">
        <ele>23.4</ele>
        <time>2021-02-19T15:25:49Z</time>
      </trkpt>
      <trkpt lat="43.2785910" lon="-2.9554970">
        <ele>24.6</ele>
        <time>2021-02-19T15:25:55Z</time>
      </trkpt>
      <trkpt lat="43.2787130" lon="-2.9555660">
        <ele>25.8</ele>
        <time>2021-02-19T15:25:59Z</time>
      </trkpt>
      <trkpt lat="43.2788370" lon="-2.9556470">
        <ele>27.0</ele>
        <time>2021-02-19T15:26:03Z</time>
      </trkpt>
      <trkpt lat="43.2789640" lon="-2.9557210">
        <ele>28.2</ele>
        <time>2021-02-19T15:26:07Z</time>
      </trkpt>
      <trkpt lat="43.2791390" lon="-2.9558290">
        <ele>29.2</ele>
        <time>2021-02-19T15:26:13Z</time>
      </trkpt>
      <trkpt lat="43.2793140" lon="-2.9559330">
        <ele>30.4</ele>
        <time>2021-02-19T15:26:19Z</time>
      </trkpt>
      <trkpt lat="43.2795000" lon="-2.9560200">
        <ele>31.2</ele>
        <time>2021-02-19T15:26:25Z</time>
      </trkpt>
      <trkpt lat="43.2795950" lon="-2.9560640">
        <ele>31.4</ele>
        <time>2021-02-19T15:26:28Z</time>
      </trkpt>
      <trkpt lat="43.2797820" lon="-2.9561510">
        <ele>32.4</ele>
        <time>2021-02-19T15:26:34Z</time>
      </trkpt>
      <trkpt lat="43.2798840" lon="-2.9561870">
        <ele>33.6</ele>
        <time>2021-02-19T15:26:37Z</time>
      </trkpt>
      <trkpt lat="43.2800090" lon="-2.9562410">
        <ele>35.0</ele>
        <time>2021-02-19T15:26:41Z</time>
      </trkpt>
      <trkpt lat="43.2800720" lon="-2.9562640">
        <ele>36.0</ele>
        <time>2021-02-19T15:26:43Z</time>
      </trkpt>
      <trkpt lat="43.2801660" lon="-2.9563020">
        <ele>37.0</ele>
        <time>2021-02-19T15:26:46Z</time>
      </trkpt>
      <trkpt lat="43.2804830" lon="-2.9563990">
        <ele>38.4</ele>
        <time>2021-02-19T15:26:55Z</time>
      </trkpt>
      <trkpt lat="43.2806900" lon="-2.9564550">
        <ele>39.4</ele>
        <time>2021-02-19T15:27:01Z</time>
      </trkpt>
      <trkpt lat="43.2807990" lon="-2.9564770">
        <ele>40.4</ele>
        <time>2021-02-19T15:27:04Z</time>
      </trkpt>
      <trkpt lat="43.2810500" lon="-2.9565140">
        <ele>41.6</ele>
        <time>2021-02-19T15:27:11Z</time>
      </trkpt>
      <trkpt lat="43.2812150" lon="-2.9565470">
        <ele>42.6</ele>
        <time>2021-02-19T15:27:16Z</time>
      </trkpt>
      <trkpt lat="43.2814110" lon="-2.9565630">
        <ele>43.6</ele>
        <time>2021-02-19T15:27:22Z</time>
      </trkpt>
      <trkpt lat="43.2814470" lon="-2.9565580">
        <ele>43.8</ele>
        <time>2021-02-19T15:27:23Z</time>
      </trkpt>
      <trkpt lat="43.2814850" lon="-2.9565530">
        <ele>44.0</ele>
        <time>2021-02-19T15:27:24Z</time>
      </trkpt>
      <trkpt lat="43.2815470" lon="-2.9565560">
        <ele>44.2</ele>
        <time>2021-02-19T15:27:25Z</time>
      </trkpt>
      <trkpt lat="43.2815470" lon="-2.9565560">
        <ele>44.4</ele>
        <time>2021-02-19T15:27:26Z</time>
      </trkpt>
      <trkpt lat="43.2816150" lon="-2.9565550">
        <ele>44.8</ele>
        <time>2021-02-19T15:27:28Z</time>
      </trkpt>
      <trkpt lat="43.2816510" lon="-2.9565570">
        <ele>45.0</ele>
        <time>2021-02-19T15:27:29Z</time>
      </trkpt>
      <trkpt lat="43.2817200" lon="-2.9565690">
        <ele>45.4</ele>
        <time>2021-02-19T15:27:31Z</time>
      </trkpt>
      <trkpt lat="43.2818240" lon="-2.9565910">
        <ele>46.2</ele>
        <time>2021-02-19T15:27:34Z</time>
      </trkpt>
      <trkpt lat="43.2821390" lon="-2.9566490">
        <ele>47.0</ele>
        <time>2021-02-19T15:27:43Z</time>
      </trkpt>
      <trkpt lat="43.2821760" lon="-2.9566550">
        <ele>47.2</ele>
        <time>2021-02-19T15:27:44Z</time>
      </trkpt>
      <trkpt lat="43.2822810" lon="-2.9566750">
        <ele>47.4</ele>
        <time>2021-02-19T15:27:47Z</time>
      </trkpt>
      <trkpt lat="43.2823910" lon="-2.9567060">
        <ele>47.8</ele>
        <time>2021-02-19T15:27:50Z</time>
      </trkpt>
      <trkpt lat="43.2824990" lon="-2.9567370">
        <ele>48.4</ele>
        <time>2021-02-19T15:27:53Z</time>
      </trkpt>
      <trkpt lat="43.2827230" lon="-2.9568110">
        <ele>49.4</ele>
        <time>2021-02-19T15:27:59Z</time>
      </trkpt>
      <trkpt lat="43.2828690" lon="-2.9568800">
        <ele>50.0</ele>
        <time>2021-02-19T15:28:03Z</time>
      </trkpt>
      <trkpt lat="43.2829760" lon="-2.9569470">
        <ele>50.4</ele>
        <time>2021-02-19T15:28:06Z</time>
      </trkpt>
      <trkpt lat="43.2830130" lon="-2.9569680">
        <ele>50.4</ele>
        <time>2021-02-19T15:28:07Z</time>
      </trkpt>
      <trkpt lat="43.2830880" lon="-2.9570080">
        <ele>50.8</ele>
        <time>2021-02-19T15:28:09Z</time>
      </trkpt>
      <trkpt lat="43.2831240" lon="-2.9570330">
        <ele>50.8</ele>
        <time>2021-02-19T15:28:10Z</time>
      </trkpt>
      <trkpt lat="43.2831580" lon="-2.9570590">
        <ele>51.2</ele>
        <time>2021-02-19T15:28:11Z</time>
      </trkpt>
      <trkpt lat="43.2831940" lon="-2.9570810">
        <ele>51.4</ele>
        <time>2021-02-19T15:28:12Z</time>
      </trkpt>
      <trkpt lat="43.2832310" lon="-2.9571050">
        <ele>51.6</ele>
        <time>2021-02-19T15:28:13Z</time>
      </trkpt>
      <trkpt lat="43.2832660" lon="-2.9571310">
        <ele>51.8</ele>
        <time>2021-02-19T15:28:14Z</time>
      </trkpt>
      <trkpt lat="43.2833020" lon="-2.9571590">
        <ele>52.0</ele>
        <time>2021-02-19T15:28:15Z</time>
      </trkpt>
      <trkpt lat="43.2833360" lon="-2.9571870">
        <ele>52.2</ele>
        <time>2021-02-19T15:28:16Z</time>
      </trkpt>
      <trkpt lat="43.2834680" lon="-2.9573060">
        <ele>52.8</ele>
        <time>2021-02-19T15:28:20Z</time>
      </trkpt>
      <trkpt lat="43.2836210" lon="-2.9574640">
        <ele>53.8</ele>
        <time>2021-02-19T15:28:25Z</time>
      </trkpt>
      <trkpt lat="43.2837180" lon="-2.9575670">
        <ele>55.2</ele>
        <time>2021-02-19T15:28:28Z</time>
      </trkpt>
      <trkpt lat="43.2838400" lon="-2.9576980">
        <ele>56.4</ele>
        <time>2021-02-19T15:28:32Z</time>
      </trkpt>
      <trkpt lat="43.2839370" lon="-2.9577840">
        <ele>57.0</ele>
        <time>2021-02-19T15:28:35Z</time>
      </trkpt>
      <trkpt lat="43.2841100" lon="-2.9579320">
        <ele>57.4</ele>
        <time>2021-02-19T15:28:40Z</time>
      </trkpt>
      <trkpt lat="43.2842530" lon="-2.9580480">
        <ele>58.6</ele>
        <time>2021-02-19T15:28:44Z</time>
      </trkpt>
      <trkpt lat="43.2844080" lon="-2.9581540">
        <ele>59.8</ele>
        <time>2021-02-19T15:28:48Z</time>
      </trkpt>
      <trkpt lat="43.2846110" lon="-2.9582660">
        <ele>60.8</ele>
        <time>2021-02-19T15:28:53Z</time>
      </trkpt>
      <trkpt lat="43.2846910" lon="-2.9583050">
        <ele>61.0</ele>
        <time>2021-02-19T15:28:54Z</time>
      </trkpt>
      <trkpt lat="43.2848180" lon="-2.9583610">
        <ele>61.4</ele>
        <time>2021-02-19T15:28:58Z</time>
      </trkpt>
      <trkpt lat="43.2851140" lon="-2.9584470">
        <ele>61.8</ele>
        <time>2021-02-19T15:29:05Z</time>
      </trkpt>
      <trkpt lat="43.2854600" lon="-2.9584550">
        <ele>62.6</ele>
        <time>2021-02-19T15:29:12Z</time>
      </trkpt>
      <trkpt lat="43.2856090" lon="-2.9584490">
        <ele>62.8</ele>
        <time>2021-02-19T15:29:15Z</time>
      </trkpt>
      <trkpt lat="43.2857100" lon="-2.9584550">
        <ele>63.0</ele>
        <time>2021-02-19T15:29:17Z</time>
      </trkpt>
      <trkpt lat="43.2862700" lon="-2.9585490">
        <ele>63.0</ele>
        <time>2021-02-19T15:29:28Z</time>
      </trkpt>
      <trkpt lat="43.2867360" lon="-2.9587710">
        <ele>63.4</ele>
        <time>2021-02-19T15:29:37Z</time>
      </trkpt>
      <trkpt lat="43.2868940" lon="-2.9588730">
        <ele>63.4</ele>
        <time>2021-02-19T15:29:40Z</time>
      </trkpt>
      <trkpt lat="43.2870970" lon="-2.9590380">
        <ele>63.6</ele>
        <time>2021-02-19T15:29:44Z</time>
      </trkpt>
      <trkpt lat="43.2874200" lon="-2.9594140">
        <ele>64.0</ele>
        <time>2021-02-19T15:29:51Z</time>
      </trkpt>
      <trkpt lat="43.2876480" lon="-2.9596960">
        <ele>64.0</ele>
        <time>2021-02-19T15:29:56Z</time>
      </trkpt>
      <trkpt lat="43.2880530" lon="-2.9601930">
        <ele>63.8</ele>
        <time>2021-02-19T15:30:05Z</time>
      </trkpt>
      <trkpt lat="43.2885540" lon="-2.9605890">
        <ele>64.0</ele>
        <time>2021-02-19T15:30:14Z</time>
      </trkpt>
      <trkpt lat="43.2890960" lon="-2.9607020">
        <ele>64.2</ele>
        <time>2021-02-19T15:30:23Z</time>
      </trkpt>
      <trkpt lat="43.2893100" lon="-2.9606740">
        <ele>65.0</ele>
        <time>2021-02-19T15:30:28Z</time>
      </trkpt>
      <trkpt lat="43.2894660" lon="-2.9606110">
        <ele>66.2</ele>
        <time>2021-02-19T15:30:32Z</time>
      </trkpt>
      <trkpt lat="43.2895020" lon="-2.9605830">
        <ele>66.6</ele>
        <time>2021-02-19T15:30:33Z</time>
      </trkpt>
      <trkpt lat="43.2895670" lon="-2.9605150">
        <ele>67.4</ele>
        <time>2021-02-19T15:30:35Z</time>
      </trkpt>
      <trkpt lat="43.2896810" lon="-2.9603670">
        <ele>68.6</ele>
        <time>2021-02-19T15:30:39Z</time>
      </trkpt>
      <trkpt lat="43.2897640" lon="-2.9601950">
        <ele>69.6</ele>
        <time>2021-02-19T15:30:43Z</time>
      </trkpt>
      <trkpt lat="43.2897510" lon="-2.9598650">
        <ele>71.2</ele>
        <time>2021-02-19T15:30:51Z</time>
      </trkpt>
      <trkpt lat="43.2897280" lon="-2.9597880">
        <ele>72.8</ele>
        <time>2021-02-19T15:30:53Z</time>
      </trkpt>
      <trkpt lat="43.2896830" lon="-2.9596470">
        <ele>74.0</ele>
        <time>2021-02-19T15:30:57Z</time>
      </trkpt>
      <trkpt lat="43.2895970" lon="-2.9594920">
        <ele>75.4</ele>
        <time>2021-02-19T15:31:03Z</time>
      </trkpt>
      <trkpt lat="43.2895440" lon="-2.9594350">
        <ele>76.8</ele>
        <time>2021-02-19T15:31:06Z</time>
      </trkpt>
      <trkpt lat="43.2895140" lon="-2.9594110">
        <ele>78.0</ele>
        <time>2021-02-19T15:31:08Z</time>
      </trkpt>
      <trkpt lat="43.2894370" lon="-2.9593930">
        <ele>79.2</ele>
        <time>2021-02-19T15:31:12Z</time>
      </trkpt>
      <trkpt lat="43.2893760" lon="-2.9593890">
        <ele>80.4</ele>
        <time>2021-02-19T15:31:15Z</time>
      </trkpt>
      <trkpt lat="43.2893170" lon="-2.9593860">
        <ele>81.6</ele>
        <time>2021-02-19T15:31:18Z</time>
      </trkpt>
      <trkpt lat="43.2892040" lon="-2.9593820">
        <ele>83.0</ele>
        <time>2021-02-19T15:31:24Z</time>
      </trkpt>
      <trkpt lat="43.2891270" lon="-2.9593880">
        <ele>84.2</ele>
        <time>2021-02-19T15:31:28Z</time>
      </trkpt>
      <trkpt lat="43.2890470" lon="-2.9594020">
        <ele>85.4</ele>
        <time>2021-02-19T15:31:32Z</time>
      </trkpt>
      <trkpt lat="43.2889620" lon="-2.9594060">
        <ele>86.6</ele>
        <time>2021-02-19T15:31:36Z</time>
      </trkpt>
      <trkpt lat="43.2888920" lon="-2.9594090">
        <ele>87.8</ele>
        <time>2021-02-19T15:31:39Z</time>
      </trkpt>
      <trkpt lat="43.2888460" lon="-2.9593990">
        <ele>88.4</ele>
        <time>2021-02-19T15:31:41Z</time>
      </trkpt>
      <trkpt lat="43.2888220" lon="-2.9593990">
        <ele>89.0</ele>
        <time>2021-02-19T15:31:42Z</time>
      </trkpt>
      <trkpt lat="43.2886960" lon="-2.9593690">
        <ele>90.0</ele>
        <time>2021-02-19T15:31:48Z</time>
      </trkpt>
      <trkpt lat="43.2885690" lon="-2.9593120">
        <ele>90.4</ele>
        <time>2021-02-19T15:31:54Z</time>
      </trkpt>
      <trkpt lat="43.2885270" lon="-2.9592820">
        <ele>91.2</ele>
        <time>2021-02-19T15:31:56Z</time>
      </trkpt>
      <trkpt lat="43.2884420" lon="-2.9592240">
        <ele>92.2</ele>
        <time>2021-02-19T15:32:00Z</time>
      </trkpt>
      <trkpt lat="43.2883360" lon="-2.9591020">
        <ele>93.2</ele>
        <time>2021-02-19T15:32:06Z</time>
      </trkpt>
      <trkpt lat="43.2882790" lon="-2.9590080">
        <ele>94.6</ele>
        <time>2021-02-19T15:32:10Z</time>
      </trkpt>
      <trkpt lat="43.2882050" lon="-2.9588310">
        <ele>95.8</ele>
        <time>2021-02-19T15:32:16Z</time>
      </trkpt>
      <trkpt lat="43.2881720" lon="-2.9587360">
        <ele>96.8</ele>
        <time>2021-02-19T15:32:19Z</time>
      </trkpt>
      <trkpt lat="43.2881100" lon="-2.9584350">
        <ele>97.8</ele>
        <time>2021-02-19T15:32:28Z</time>
      </trkpt>
      <trkpt lat="43.2880770" lon="-2.9582670">
        <ele>99.0</ele>
        <time>2021-02-19T15:32:33Z</time>
      </trkpt>
      <trkpt lat="43.2880520" lon="-2.9581440">
        <ele>100.0</ele>
        <time>2021-02-19T15:32:37Z</time>
      </trkpt>
      <trkpt lat="43.2880110" lon="-2.9579880">
        <ele>101.2</ele>
        <time>2021-02-19T15:32:42Z</time>
      </trkpt>
      <trkpt lat="43.2878490" lon="-2.9576900">
        <ele>102.2</ele>
        <time>2021-02-19T15:32:53Z</time>
      </trkpt>
      <trkpt lat="43.2877630" lon="-2.9576110">
        <ele>103.0</ele>
        <time>2021-02-19T15:32:57Z</time>
      </trkpt>
      <trkpt lat="43.2877140" lon="-2.9575840">
        <ele>103.4</ele>
        <time>2021-02-19T15:32:59Z</time>
      </trkpt>
      <trkpt lat="43.2876180" lon="-2.9575510">
        <ele>104.8</ele>
        <time>2021-02-19T15:33:03Z</time>
      </trkpt>
      <trkpt lat="43.2874730" lon="-2.9575400">
        <ele>105.8</ele>
        <time>2021-02-19T15:33:09Z</time>
      </trkpt>
      <trkpt lat="43.2873970" lon="-2.9575380">
        <ele>107.0</ele>
        <time>2021-02-19T15:33:12Z</time>
      </trkpt>
      <trkpt lat="43.2873010" lon="-2.9575430">
        <ele>108.2</ele>
        <time>2021-02-19T15:33:16Z</time>
      </trkpt>
      <trkpt lat="43.2871560" lon="-2.9575260">
        <ele>109.2</ele>
        <time>2021-02-19T15:33:22Z</time>
      </trkpt>
      <trkpt lat="43.2870320" lon="-2.9574940">
        <ele>110.2</ele>
        <time>2021-02-19T15:33:27Z</time>
      </trkpt>
      <trkpt lat="43.2869080" lon="-2.9574370">
        <ele>111.2</ele>
        <time>2021-02-19T15:33:32Z</time>
      </trkpt>
      <trkpt lat="43.2868140" lon="-2.9573700">
        <ele>112.4</ele>
        <time>2021-02-19T15:33:36Z</time>
      </trkpt>
      <trkpt lat="43.2866930" lon="-2.9572730">
        <ele>113.6</ele>
        <time>2021-02-19T15:33:41Z</time>
      </trkpt>
      <trkpt lat="43.2865840" lon="-2.9571650">
        <ele>114.6</ele>
        <time>2021-02-19T15:33:46Z</time>
      </trkpt>
      <trkpt lat="43.2864730" lon="-2.9570380">
        <ele>115.6</ele>
        <time>2021-02-19T15:33:51Z</time>
      </trkpt>
      <trkpt lat="43.2863650" lon="-2.9569000">
        <ele>116.8</ele>
        <time>2021-02-19T15:33:56Z</time>
      </trkpt>
      <trkpt lat="43.2862290" lon="-2.9567260">
        <ele>118.0</ele>
        <time>2021-02-19T15:34:03Z</time>
      </trkpt>
      <trkpt lat="43.2861310" lon="-2.9566050">
        <ele>118.6</ele>
        <time>2021-02-19T15:34:08Z</time>
      </trkpt>
      <trkpt lat="43.2860500" lon="-2.9565040">
        <ele>119.2</ele>
        <time>2021-02-19T15:34:12Z</time>
      </trkpt>
      <trkpt lat="43.2859350" lon="-2.9563480">
        <ele>120.6</ele>
        <time>2021-02-19T15:34:18Z</time>
      </trkpt>
      <trkpt lat="43.2857990" lon="-2.9561580">
        <ele>121.8</ele>
        <time>2021-02-19T15:34:25Z</time>
      </trkpt>
      <trkpt lat="43.2857050" lon="-2.9560200">
        <ele>122.8</ele>
        <time>2021-02-19T15:34:30Z</time>
      </trkpt>
      <trkpt lat="43.2855840" lon="-2.9558480">
        <ele>123.8</ele>
        <time>2021-02-19T15:34:36Z</time>
      </trkpt>
      <trkpt lat="43.2853940" lon="-2.9555780">
        <ele>124.6</ele>
        <time>2021-02-19T15:34:45Z</time>
      </trkpt>
      <trkpt lat="43.2853530" lon="-2.9555160">
        <ele>125.0</ele>
        <time>2021-02-19T15:34:47Z</time>
      </trkpt>
      <trkpt lat="43.2852880" lon="-2.9554300">
        <ele>126.0</ele>
        <time>2021-02-19T15:34:50Z</time>
      </trkpt>
      <trkpt lat="43.2852270" lon="-2.9553240">
        <ele>126.6</ele>
        <time>2021-02-19T15:34:53Z</time>
      </trkpt>
      <trkpt lat="43.2851870" lon="-2.9552640">
        <ele>127.2</ele>
        <time>2021-02-19T15:34:55Z</time>
      </trkpt>
      <trkpt lat="43.2850760" lon="-2.9551060">
        <ele>128.2</ele>
        <time>2021-02-19T15:35:00Z</time>
      </trkpt>
      <trkpt lat="43.2850540" lon="-2.9550750">
        <ele>128.4</ele>
        <time>2021-02-19T15:35:01Z</time>
      </trkpt>
      <trkpt lat="43.2849040" lon="-2.9548100">
        <ele>129.4</ele>
        <time>2021-02-19T15:35:08Z</time>
      </trkpt>
      <trkpt lat="43.2847860" lon="-2.9546560">
        <ele>130.4</ele>
        <time>2021-02-19T15:35:13Z</time>
      </trkpt>
      <trkpt lat="43.2846900" lon="-2.9545340">
        <ele>131.4</ele>
        <time>2021-02-19T15:35:17Z</time>
      </trkpt>
      <trkpt lat="43.2846660" lon="-2.9545040">
        <ele>131.8</ele>
        <time>2021-02-19T15:35:18Z</time>
      </trkpt>
      <trkpt lat="43.2845690" lon="-2.9543950">
        <ele>132.8</ele>
        <time>2021-02-19T15:35:22Z</time>
      </trkpt>
      <trkpt lat="43.2844420" lon="-2.9542650">
        <ele>133.6</ele>
        <time>2021-02-19T15:35:27Z</time>
      </trkpt>
      <trkpt lat="43.2843920" lon="-2.9542150">
        <ele>133.8</ele>
        <time>2021-02-19T15:35:29Z</time>
      </trkpt>
      <trkpt lat="43.2842870" lon="-2.9541100">
        <ele>135.0</ele>
        <time>2021-02-19T15:35:33Z</time>
      </trkpt>
      <trkpt lat="43.2840460" lon="-2.9538880">
        <ele>136.0</ele>
        <time>2021-02-19T15:35:42Z</time>
      </trkpt>
      <trkpt lat="43.2836780" lon="-2.9535580">
        <ele>137.4</ele>
        <time>2021-02-19T15:35:55Z</time>
      </trkpt>
      <trkpt lat="43.2835730" lon="-2.9534690">
        <ele>138.4</ele>
        <time>2021-02-19T15:35:58Z</time>
      </trkpt>
      <trkpt lat="43.2831950" lon="-2.9531120">
        <ele>139.6</ele>
        <time>2021-02-19T15:36:08Z</time>
      </trkpt>
      <trkpt lat="43.2827040" lon="-2.9527130">
        <ele>140.6</ele>
        <time>2021-02-19T15:36:20Z</time>
      </trkpt>
      <trkpt lat="43.2821970" lon="-2.9524420">
        <ele>140.6</ele>
        <time>2021-02-19T15:36:31Z</time>
      </trkpt>
      <trkpt lat="43.2820630" lon="-2.9523580">
        <ele>140.8</ele>
        <time>2021-02-19T15:36:34Z</time>
      </trkpt>
      <trkpt lat="43.2819200" lon="-2.9522760">
        <ele>141.0</ele>
        <time>2021-02-19T15:36:37Z</time>
      </trkpt>
      <trkpt lat="43.2816470" lon="-2.9521030">
        <ele>141.8</ele>
        <time>2021-02-19T15:36:43Z</time>
      </trkpt>
      <trkpt lat="43.2814520" lon="-2.9519290">
        <ele>142.8</ele>
        <time>2021-02-19T15:36:48Z</time>
      </trkpt>
      <trkpt lat="43.2811010" lon="-2.9515340">
        <ele>143.2</ele>
        <time>2021-02-19T15:36:58Z</time>
      </trkpt>
      <trkpt lat="43.2809060" lon="-2.9512690">
        <ele>143.8</ele>
        <time>2021-02-19T15:37:04Z</time>
      </trkpt>
      <trkpt lat="43.2808790" lon="-2.9512260">
        <ele>143.8</ele>
        <time>2021-02-19T15:37:05Z</time>
      </trkpt>
      <trkpt lat="43.2806470" lon="-2.9508460">
        <ele>145.0</ele>
        <time>2021-02-19T15:37:13Z</time>
      </trkpt>
      <trkpt lat="43.2803730" lon="-2.9502460">
        <ele>146.0</ele>
        <time>2021-02-19T15:37:23Z</time>
      </trkpt>
      <trkpt lat="43.2801500" lon="-2.9496120">
        <ele>147.0</ele>
        <time>2021-02-19T15:37:33Z</time>
      </trkpt>
      <trkpt lat="43.2800770" lon="-2.9493540">
        <ele>147.0</ele>
        <time>2021-02-19T15:37:37Z</time>
      </trkpt>
      <trkpt lat="43.2800410" lon="-2.9492240">
        <ele>147.0</ele>
        <time>2021-02-19T15:37:39Z</time>
      </trkpt>
      <trkpt lat="43.2799810" lon="-2.9490210">
        <ele>147.0</ele>
        <time>2021-02-19T15:37:42Z</time>
      </trkpt>
      <trkpt lat="43.2799000" lon="-2.9487330">
        <ele>147.2</ele>
        <time>2021-02-19T15:37:46Z</time>
      </trkpt>
      <trkpt lat="43.2798600" lon="-2.9485880">
        <ele>147.4</ele>
        <time>2021-02-19T15:37:48Z</time>
      </trkpt>
      <trkpt lat="43.2798420" lon="-2.9485140">
        <ele>147.4</ele>
        <time>2021-02-19T15:37:49Z</time>
      </trkpt>
      <trkpt lat="43.2796930" lon="-2.9479980">
        <ele>148.2</ele>
        <time>2021-02-19T15:37:56Z</time>
      </trkpt>
      <trkpt lat="43.2795360" lon="-2.9474150">
        <ele>149.2</ele>
        <time>2021-02-19T15:38:04Z</time>
      </trkpt>
      <trkpt lat="43.2793690" lon="-2.9468320">
        <ele>149.8</ele>
        <time>2021-02-19T15:38:12Z</time>
      </trkpt>
      <trkpt lat="43.2793100" lon="-2.9464900">
        <ele>150.4</ele>
        <time>2021-02-19T15:38:17Z</time>
      </trkpt>
      <trkpt lat="43.2793100" lon="-2.9461490">
        <ele>150.8</ele>
        <time>2021-02-19T15:38:22Z</time>
      </trkpt>
      <trkpt lat="43.2794750" lon="-2.9454010">
        <ele>151.4</ele>
        <time>2021-02-19T15:38:33Z</time>
      </trkpt>
      <trkpt lat="43.2795180" lon="-2.9452720">
        <ele>151.4</ele>
        <time>2021-02-19T15:38:35Z</time>
      </trkpt>
      <trkpt lat="43.2797450" lon="-2.9445970">
        <ele>152.2</ele>
        <time>2021-02-19T15:38:46Z</time>
      </trkpt>
      <trkpt lat="43.2797770" lon="-2.9444680">
        <ele>152.4</ele>
        <time>2021-02-19T15:38:48Z</time>
      </trkpt>
      <trkpt lat="43.2798820" lon="-2.9437870">
        <ele>153.4</ele>
        <time>2021-02-19T15:38:58Z</time>
      </trkpt>
      <trkpt lat="43.2798720" lon="-2.9434270">
        <ele>154.4</ele>
        <time>2021-02-19T15:39:03Z</time>
      </trkpt>
      <trkpt lat="43.2798450" lon="-2.9429270">
        <ele>155.6</ele>
        <time>2021-02-19T15:39:10Z</time>
      </trkpt>
      <trkpt lat="43.2798260" lon="-2.9425080">
        <ele>156.8</ele>
        <time>2021-02-19T15:39:16Z</time>
      </trkpt>
      <trkpt lat="43.2798110" lon="-2.9423020">
        <ele>158.0</ele>
        <time>2021-02-19T15:39:19Z</time>
      </trkpt>
      <trkpt lat="43.2798010" lon="-2.9420400">
        <ele>159.0</ele>
        <time>2021-02-19T15:39:23Z</time>
      </trkpt>
      <trkpt lat="43.2797620" lon="-2.9414520">
        <ele>160.0</ele>
        <time>2021-02-19T15:39:32Z</time>
      </trkpt>
      <trkpt lat="43.2797580" lon="-2.9413810">
        <ele>160.0</ele>
        <time>2021-02-19T15:39:33Z</time>
      </trkpt>
      <trkpt lat="43.2797190" lon="-2.9409500">
        <ele>161.2</ele>
        <time>2021-02-19T15:39:39Z</time>
      </trkpt>
      <trkpt lat="43.2796750" lon="-2.9402460">
        <ele>162.2</ele>
        <time>2021-02-19T15:39:49Z</time>
      </trkpt>
      <trkpt lat="43.2795660" lon="-2.9395700">
        <ele>163.2</ele>
        <time>2021-02-19T15:39:58Z</time>
      </trkpt>
      <trkpt lat="43.2792500" lon="-2.9389730">
        <ele>164.2</ele>
        <time>2021-02-19T15:40:08Z</time>
      </trkpt>
      <trkpt lat="43.2792160" lon="-2.9389190">
        <ele>164.2</ele>
        <time>2021-02-19T15:40:09Z</time>
      </trkpt>
      <trkpt lat="43.2789840" lon="-2.9385610">
        <ele>165.4</ele>
        <time>2021-02-19T15:40:16Z</time>
      </trkpt>
      <trkpt lat="43.2787660" lon="-2.9382230">
        <ele>166.4</ele>
        <time>2021-02-19T15:40:23Z</time>
      </trkpt>
      <trkpt lat="43.2784230" lon="-2.9376970">
        <ele>167.4</ele>
        <time>2021-02-19T15:40:33Z</time>
      </trkpt>
      <trkpt lat="43.2782750" lon="-2.9374530">
        <ele>168.4</ele>
        <time>2021-02-19T15:40:38Z</time>
      </trkpt>
      <trkpt lat="43.2782460" lon="-2.9373950">
        <ele>168.6</ele>
        <time>2021-02-19T15:40:39Z</time>
      </trkpt>
      <trkpt lat="43.2781880" lon="-2.9372770">
        <ele>169.0</ele>
        <time>2021-02-19T15:40:41Z</time>
      </trkpt>
      <trkpt lat="43.2780390" lon="-2.9370320">
        <ele>169.6</ele>
        <time>2021-02-19T15:40:45Z</time>
      </trkpt>
      <trkpt lat="43.2779780" lon="-2.9369070">
        <ele>170.0</ele>
        <time>2021-02-19T15:40:47Z</time>
      </trkpt>
      <trkpt lat="43.2779380" lon="-2.9367750">
        <ele>170.6</ele>
        <time>2021-02-19T15:40:49Z</time>
      </trkpt>
      <trkpt lat="43.2779260" lon="-2.9367070">
        <ele>170.8</ele>
        <time>2021-02-19T15:40:50Z</time>
      </trkpt>
      <trkpt lat="43.2778870" lon="-2.9362050">
        <ele>171.8</ele>
        <time>2021-02-19T15:40:57Z</time>
      </trkpt>
      <trkpt lat="43.2778640" lon="-2.9357800">
        <ele>173.0</ele>
        <time>2021-02-19T15:41:03Z</time>
      </trkpt>
      <trkpt lat="43.2778650" lon="-2.9356410">
        <ele>173.4</ele>
        <time>2021-02-19T15:41:05Z</time>
      </trkpt>
      <trkpt lat="43.2778800" lon="-2.9355050">
        <ele>174.0</ele>
        <time>2021-02-19T15:41:07Z</time>
      </trkpt>
      <trkpt lat="43.2779310" lon="-2.9353100">
        <ele>174.6</ele>
        <time>2021-02-19T15:41:10Z</time>
      </trkpt>
      <trkpt lat="43.2779850" lon="-2.9351950">
        <ele>175.0</ele>
        <time>2021-02-19T15:41:12Z</time>
      </trkpt>
      <trkpt lat="43.2782960" lon="-2.9348120">
        <ele>176.2</ele>
        <time>2021-02-19T15:41:20Z</time>
      </trkpt>
      <trkpt lat="43.2786210" lon="-2.9344870">
        <ele>176.4</ele>
        <time>2021-02-19T15:41:27Z</time>
      </trkpt>
      <trkpt lat="43.2790310" lon="-2.9339910">
        <ele>176.8</ele>
        <time>2021-02-19T15:41:37Z</time>
      </trkpt>
      <trkpt lat="43.2790620" lon="-2.9339390">
        <ele>177.0</ele>
        <time>2021-02-19T15:41:38Z</time>
      </trkpt>
      <trkpt lat="43.2791670" lon="-2.9337300">
        <ele>177.2</ele>
        <time>2021-02-19T15:41:42Z</time>
      </trkpt>
      <trkpt lat="43.2791950" lon="-2.9334900">
        <ele>177.2</ele>
        <time>2021-02-19T15:41:46Z</time>
      </trkpt>
      <trkpt lat="43.2791660" lon="-2.9332540">
        <ele>177.2</ele>
        <time>2021-02-19T15:41:50Z</time>
      </trkpt>
      <trkpt lat="43.2789820" lon="-2.9325050">
        <ele>178.2</ele>
        <time>2021-02-19T15:42:03Z</time>
      </trkpt>
      <trkpt lat="43.2789680" lon="-2.9324470">
        <ele>178.2</ele>
        <time>2021-02-19T15:42:04Z</time>
      </trkpt>
      <trkpt lat="43.2788360" lon="-2.9319130">
        <ele>179.4</ele>
        <time>2021-02-19T15:42:14Z</time>
      </trkpt>
      <trkpt lat="43.2786490" lon="-2.9311650">
        <ele>180.2</ele>
        <time>2021-02-19T15:42:27Z</time>
      </trkpt>
      <trkpt lat="43.2786270" lon="-2.9309920">
        <ele>180.6</ele>
        <time>2021-02-19T15:42:30Z</time>
      </trkpt>
      <trkpt lat="43.2786230" lon="-2.9309330">
        <ele>180.8</ele>
        <time>2021-02-19T15:42:31Z</time>
      </trkpt>
      <trkpt lat="43.2786620" lon="-2.9306380">
        <ele>181.6</ele>
        <time>2021-02-19T15:42:36Z</time>
      </trkpt>
      <trkpt lat="43.2787140" lon="-2.9302880">
        <ele>182.4</ele>
        <time>2021-02-19T15:42:42Z</time>
      </trkpt>
      <trkpt lat="43.2787180" lon="-2.9302260">
        <ele>182.6</ele>
        <time>2021-02-19T15:42:43Z</time>
      </trkpt>
      <trkpt lat="43.2787140" lon="-2.9301020">
        <ele>182.6</ele>
        <time>2021-02-19T15:42:45Z</time>
      </trkpt>
      <trkpt lat="43.2786880" lon="-2.9299760">
        <ele>182.8</ele>
        <time>2021-02-19T15:42:47Z</time>
      </trkpt>
      <trkpt lat="43.2786410" lon="-2.9298460">
        <ele>182.8</ele>
        <time>2021-02-19T15:42:49Z</time>
      </trkpt>
      <trkpt lat="43.2783550" lon="-2.9293310">
        <ele>183.6</ele>
        <time>2021-02-19T15:42:58Z</time>
      </trkpt>
      <trkpt lat="43.2782340" lon="-2.9291360">
        <ele>184.6</ele>
        <time>2021-02-19T15:43:02Z</time>
      </trkpt>
      <trkpt lat="43.2780300" lon="-2.9288730">
        <ele>185.4</ele>
        <time>2021-02-19T15:43:08Z</time>
      </trkpt>
      <trkpt lat="43.2779090" lon="-2.9287070">
        <ele>185.6</ele>
        <time>2021-02-19T15:43:11Z</time>
      </trkpt>
      <trkpt lat="43.2775170" lon="-2.9281190">
        <ele>185.6</ele>
        <time>2021-02-19T15:43:22Z</time>
      </trkpt>
      <trkpt lat="43.2773190" lon="-2.9277440">
        <ele>185.4</ele>
        <time>2021-02-19T15:43:28Z</time>
      </trkpt>
      <trkpt lat="43.2770670" lon="-2.9270190">
        <ele>184.8</ele>
        <time>2021-02-19T15:43:36Z</time>
      </trkpt>
      <trkpt lat="43.2770370" lon="-2.9269220">
        <ele>184.6</ele>
        <time>2021-02-19T15:43:37Z</time>
      </trkpt>
      <trkpt lat="43.2769150" lon="-2.9265390">
        <ele>183.4</ele>
        <time>2021-02-19T15:43:41Z</time>
      </trkpt>
      <trkpt lat="43.2767510" lon="-2.9260520">
        <ele>182.0</ele>
        <time>2021-02-19T15:43:46Z</time>
      </trkpt>
      <trkpt lat="43.2766340" lon="-2.9257740">
        <ele>181.0</ele>
        <time>2021-02-19T15:43:49Z</time>
      </trkpt>
      <trkpt lat="43.2764470" lon="-2.9252890">
        <ele>180.0</ele>
        <time>2021-02-19T15:43:55Z</time>
      </trkpt>
      <trkpt lat="43.2763450" lon="-2.9250760">
        <ele>179.4</ele>
        <time>2021-02-19T15:43:58Z</time>
      </trkpt>
      <trkpt lat="43.2762540" lon="-2.9249690">
        <ele>179.2</ele>
        <time>2021-02-19T15:44:00Z</time>
      </trkpt>
      <trkpt lat="43.2760890" lon="-2.9248720">
        <ele>179.0</ele>
        <time>2021-02-19T15:44:03Z</time>
      </trkpt>
      <trkpt lat="43.2759930" lon="-2.9247610">
        <ele>179.0</ele>
        <time>2021-02-19T15:44:05Z</time>
      </trkpt>
      <trkpt lat="43.2758770" lon="-2.9245340">
        <ele>179.0</ele>
        <time>2021-02-19T15:44:08Z</time>
      </trkpt>
      <trkpt lat="43.2754020" lon="-2.9240830">
        <ele>179.8</ele>
        <time>2021-02-19T15:44:18Z</time>
      </trkpt>
      <trkpt lat="43.2751320" lon="-2.9239100">
        <ele>180.4</ele>
        <time>2021-02-19T15:44:24Z</time>
      </trkpt>
      <trkpt lat="43.2750190" lon="-2.9237790">
        <ele>181.2</ele>
        <time>2021-02-19T15:44:27Z</time>
      </trkpt>
      <trkpt lat="43.2747830" lon="-2.9234900">
        <ele>182.2</ele>
        <time>2021-02-19T15:44:33Z</time>
      </trkpt>
      <trkpt lat="43.2745830" lon="-2.9232550">
        <ele>183.4</ele>
        <time>2021-02-19T15:44:38Z</time>
      </trkpt>
      <trkpt lat="43.2742310" lon="-2.9227610">
        <ele>184.6</ele>
        <time>2021-02-19T15:44:48Z</time>
      </trkpt>
      <trkpt lat="43.2740160" lon="-2.9224950">
        <ele>185.8</ele>
        <time>2021-02-19T15:44:54Z</time>
      </trkpt>
      <trkpt lat="43.2738880" lon="-2.9223070">
        <ele>186.8</ele>
        <time>2021-02-19T15:44:58Z</time>
      </trkpt>
      <trkpt lat="43.2738580" lon="-2.9222550">
        <ele>186.8</ele>
        <time>2021-02-19T15:44:59Z</time>
      </trkpt>
      <trkpt lat="43.2738330" lon="-2.9221960">
        <ele>186.8</ele>
        <time>2021-02-19T15:45:00Z</time>
      </trkpt>
      <trkpt lat="43.2736980" lon="-2.9218820">
        <ele>187.8</ele>
        <time>2021-02-19T15:45:05Z</time>
      </trkpt>
      <trkpt lat="43.2736160" lon="-2.9211110">
        <ele>188.6</ele>
        <time>2021-02-19T15:45:15Z</time>
      </trkpt>
      <trkpt lat="43.2736090" lon="-2.9208880">
        <ele>188.8</ele>
        <time>2021-02-19T15:45:18Z</time>
      </trkpt>
      <trkpt lat="43.2736160" lon="-2.9201910">
        <ele>189.0</ele>
        <time>2021-02-19T15:45:27Z</time>
      </trkpt>
      <trkpt lat="43.2736820" lon="-2.9198300">
        <ele>189.0</ele>
        <time>2021-02-19T15:45:32Z</time>
      </trkpt>
      <trkpt lat="43.2736910" lon="-2.9196860">
        <ele>188.8</ele>
        <time>2021-02-19T15:45:34Z</time>
      </trkpt>
      <trkpt lat="43.2736730" lon="-2.9195560">
        <ele>188.4</ele>
        <time>2021-02-19T15:45:36Z</time>
      </trkpt>
      <trkpt lat="43.2735790" lon="-2.9193920">
        <ele>188.2</ele>
        <time>2021-02-19T15:45:39Z</time>
      </trkpt>
      <trkpt lat="43.2734860" lon="-2.9193200">
        <ele>188.2</ele>
        <time>2021-02-19T15:45:41Z</time>
      </trkpt>
      <trkpt lat="43.2731930" lon="-2.9191860">
        <ele>188.4</ele>
        <time>2021-02-19T15:45:47Z</time>
      </trkpt>
      <trkpt lat="43.2728920" lon="-2.9189720">
        <ele>189.2</ele>
        <time>2021-02-19T15:45:54Z</time>
      </trkpt>
      <trkpt lat="43.2727940" lon="-2.9188310">
        <ele>189.8</ele>
        <time>2021-02-19T15:45:57Z</time>
      </trkpt>
      <trkpt lat="43.2727690" lon="-2.9187760">
        <ele>190.0</ele>
        <time>2021-02-19T15:45:58Z</time>
      </trkpt>
      <trkpt lat="43.2725410" lon="-2.9181990">
        <ele>191.0</ele>
        <time>2021-02-19T15:46:08Z</time>
      </trkpt>
      <trkpt lat="43.2724060" lon="-2.9178570">
        <ele>191.8</ele>
        <time>2021-02-19T15:46:14Z</time>
      </trkpt>
      <trkpt lat="43.2723540" lon="-2.9177030">
        <ele>192.2</ele>
        <time>2021-02-19T15:46:17Z</time>
      </trkpt>
      <trkpt lat="43.2723430" lon="-2.9176470">
        <ele>192.2</ele>
        <time>2021-02-19T15:46:18Z</time>
      </trkpt>
      <trkpt lat="43.2723300" lon="-2.9174570">
        <ele>193.0</ele>
        <time>2021-02-19T15:46:21Z</time>
      </trkpt>
      <trkpt lat="43.2723350" lon="-2.9173910">
        <ele>193.2</ele>
        <time>2021-02-19T15:46:22Z</time>
      </trkpt>
      <trkpt lat="43.2723440" lon="-2.9173250">
        <ele>193.4</ele>
        <time>2021-02-19T15:46:23Z</time>
      </trkpt>
      <trkpt lat="43.2723720" lon="-2.9171950">
        <ele>194.0</ele>
        <time>2021-02-19T15:46:25Z</time>
      </trkpt>
      <trkpt lat="43.2724100" lon="-2.9170670">
        <ele>194.2</ele>
        <time>2021-02-19T15:46:27Z</time>
      </trkpt>
      <trkpt lat="43.2726050" lon="-2.9164460">
        <ele>195.2</ele>
        <time>2021-02-19T15:46:37Z</time>
      </trkpt>
      <trkpt lat="43.2726570" lon="-2.9161550">
        <ele>195.8</ele>
        <time>2021-02-19T15:46:42Z</time>
      </trkpt>
      <trkpt lat="43.2726650" lon="-2.9160390">
        <ele>196.2</ele>
        <time>2021-02-19T15:46:44Z</time>
      </trkpt>
      <trkpt lat="43.2726740" lon="-2.9157990">
        <ele>197.6</ele>
        <time>2021-02-19T15:46:48Z</time>
      </trkpt>
      <trkpt lat="43.2726790" lon="-2.9154560">
        <ele>198.4</ele>
        <time>2021-02-19T15:46:53Z</time>
      </trkpt>
      <trkpt lat="43.2726350" lon="-2.9152960">
        <ele>198.6</ele>
        <time>2021-02-19T15:46:55Z</time>
      </trkpt>
      <trkpt lat="43.2726030" lon="-2.9152150">
        <ele>198.6</ele>
        <time>2021-02-19T15:46:56Z</time>
      </trkpt>
      <trkpt lat="43.2723020" lon="-2.9145580">
        <ele>199.0</ele>
        <time>2021-02-19T15:47:06Z</time>
      </trkpt>
      <trkpt lat="43.2720980" lon="-2.9142050">
        <ele>199.6</ele>
        <time>2021-02-19T15:47:14Z</time>
      </trkpt>
      <trkpt lat="43.2720760" lon="-2.9141870">
        <ele>200.2</ele>
        <time>2021-02-19T15:47:18Z</time>
      </trkpt>
      <trkpt lat="43.2720260" lon="-2.9141170">
        <ele>201.0</ele>
        <time>2021-02-19T15:47:38Z</time>
      </trkpt>
      <trkpt lat="43.2720140" lon="-2.9140920">
        <ele>201.0</ele>
        <time>2021-02-19T15:47:39Z</time>
      </trkpt>
      <trkpt lat="43.2718450" lon="-2.9138120">
        <ele>201.2</ele>
        <time>2021-02-19T15:47:46Z</time>
      </trkpt>
      <trkpt lat="43.2716350" lon="-2.9133850">
        <ele>202.2</ele>
        <time>2021-02-19T15:47:54Z</time>
      </trkpt>
      <trkpt lat="43.2713030" lon="-2.9127750">
        <ele>203.0</ele>
        <time>2021-02-19T15:48:05Z</time>
      </trkpt>
      <trkpt lat="43.2712170" lon="-2.9126060">
        <ele>203.2</ele>
        <time>2021-02-19T15:48:08Z</time>
      </trkpt>
      <trkpt lat="43.2709320" lon="-2.9120520">
        <ele>204.4</ele>
        <time>2021-02-19T15:48:18Z</time>
      </trkpt>
      <trkpt lat="43.2707780" lon="-2.9117430">
        <ele>205.4</ele>
        <time>2021-02-19T15:48:24Z</time>
      </trkpt>
      <trkpt lat="43.2706460" lon="-2.9114720">
        <ele>206.4</ele>
        <time>2021-02-19T15:48:29Z</time>
      </trkpt>
      <trkpt lat="43.2704860" lon="-2.9112080">
        <ele>207.2</ele>
        <time>2021-02-19T15:48:34Z</time>
      </trkpt>
      <trkpt lat="43.2704560" lon="-2.9110790">
        <ele>207.4</ele>
        <time>2021-02-19T15:48:36Z</time>
      </trkpt>
      <trkpt lat="43.2704790" lon="-2.9109490">
        <ele>207.8</ele>
        <time>2021-02-19T15:48:38Z</time>
      </trkpt>
      <trkpt lat="43.2705910" lon="-2.9106960">
        <ele>208.4</ele>
        <time>2021-02-19T15:48:42Z</time>
      </trkpt>
      <trkpt lat="43.2706230" lon="-2.9105420">
        <ele>208.6</ele>
        <time>2021-02-19T15:48:44Z</time>
      </trkpt>
      <trkpt lat="43.2706480" lon="-2.9097800">
        <ele>209.4</ele>
        <time>2021-02-19T15:48:54Z</time>
      </trkpt>
      <trkpt lat="43.2706560" lon="-2.9095730">
        <ele>209.6</ele>
        <time>2021-02-19T15:48:57Z</time>
      </trkpt>
      <trkpt lat="43.2706530" lon="-2.9095100">
        <ele>209.8</ele>
        <time>2021-02-19T15:48:58Z</time>
      </trkpt>
      <trkpt lat="43.2706560" lon="-2.9092660">
        <ele>210.8</ele>
        <time>2021-02-19T15:49:02Z</time>
      </trkpt>
      <trkpt lat="43.2706660" lon="-2.9088160">
        <ele>212.2</ele>
        <time>2021-02-19T15:49:09Z</time>
      </trkpt>
      <trkpt lat="43.2707070" lon="-2.9084880">
        <ele>213.4</ele>
        <time>2021-02-19T15:49:14Z</time>
      </trkpt>
      <trkpt lat="43.2707090" lon="-2.9081870">
        <ele>214.6</ele>
        <time>2021-02-19T15:49:19Z</time>
      </trkpt>
      <trkpt lat="43.2707060" lon="-2.9080700">
        <ele>214.8</ele>
        <time>2021-02-19T15:49:21Z</time>
      </trkpt>
      <trkpt lat="43.2706800" lon="-2.9079160">
        <ele>215.6</ele>
        <time>2021-02-19T15:49:24Z</time>
      </trkpt>
      <trkpt lat="43.2705350" lon="-2.9075570">
        <ele>216.4</ele>
        <time>2021-02-19T15:49:32Z</time>
      </trkpt>
      <trkpt lat="43.2704950" lon="-2.9074880">
        <ele>216.6</ele>
        <time>2021-02-19T15:49:34Z</time>
      </trkpt>
      <trkpt lat="43.2704300" lon="-2.9073830">
        <ele>217.8</ele>
        <time>2021-02-19T15:49:37Z</time>
      </trkpt>
      <trkpt lat="43.2703890" lon="-2.9073100">
        <ele>219.0</ele>
        <time>2021-02-19T15:49:39Z</time>
      </trkpt>
      <trkpt lat="43.2702860" lon="-2.9071060">
        <ele>220.0</ele>
        <time>2021-02-19T15:49:44Z</time>
      </trkpt>
      <trkpt lat="43.2701260" lon="-2.9068620">
        <ele>221.2</ele>
        <time>2021-02-19T15:49:50Z</time>
      </trkpt>
      <trkpt lat="43.2700060" lon="-2.9067000">
        <ele>222.4</ele>
        <time>2021-02-19T15:49:54Z</time>
      </trkpt>
      <trkpt lat="43.2698030" lon="-2.9063810">
        <ele>223.6</ele>
        <time>2021-02-19T15:50:01Z</time>
      </trkpt>
      <trkpt lat="43.2695700" lon="-2.9060150">
        <ele>224.6</ele>
        <time>2021-02-19T15:50:09Z</time>
      </trkpt>
      <trkpt lat="43.2694260" lon="-2.9058110">
        <ele>225.0</ele>
        <time>2021-02-19T15:50:13Z</time>
      </trkpt>
      <trkpt lat="43.2690660" lon="-2.9051950">
        <ele>225.6</ele>
        <time>2021-02-19T15:50:24Z</time>
      </trkpt>
      <trkpt lat="43.2689270" lon="-2.9048060">
        <ele>225.6</ele>
        <time>2021-02-19T15:50:30Z</time>
      </trkpt>
      <trkpt lat="43.2689120" lon="-2.9042610">
        <ele>225.6</ele>
        <time>2021-02-19T15:50:37Z</time>
      </trkpt>
      <trkpt lat="43.2689650" lon="-2.9041180">
        <ele>225.6</ele>
        <time>2021-02-19T15:50:39Z</time>
      </trkpt>
      <trkpt lat="43.2691510" lon="-2.9038340">
        <ele>225.8</ele>
        <time>2021-02-19T15:50:43Z</time>
      </trkpt>
      <trkpt lat="43.2693470" lon="-2.9036020">
        <ele>226.0</ele>
        <time>2021-02-19T15:50:47Z</time>
      </trkpt>
      <trkpt lat="43.2694800" lon="-2.9033470">
        <ele>226.2</ele>
        <time>2021-02-19T15:50:51Z</time>
      </trkpt>
      <trkpt lat="43.2694960" lon="-2.9031280">
        <ele>227.0</ele>
        <time>2021-02-19T15:50:55Z</time>
      </trkpt>
      <trkpt lat="43.2694320" lon="-2.9028940">
        <ele>228.0</ele>
        <time>2021-02-19T15:50:59Z</time>
      </trkpt>
      <trkpt lat="43.2693720" lon="-2.9026670">
        <ele>228.8</ele>
        <time>2021-02-19T15:51:03Z</time>
      </trkpt>
      <trkpt lat="43.2693320" lon="-2.9025580">
        <ele>229.4</ele>
        <time>2021-02-19T15:51:05Z</time>
      </trkpt>
      <trkpt lat="43.2692770" lon="-2.9023820">
        <ele>230.6</ele>
        <time>2021-02-19T15:51:08Z</time>
      </trkpt>
      <trkpt lat="43.2692680" lon="-2.9023200">
        <ele>231.0</ele>
        <time>2021-02-19T15:51:09Z</time>
      </trkpt>
      <trkpt lat="43.2692670" lon="-2.9020870">
        <ele>231.6</ele>
        <time>2021-02-19T15:51:13Z</time>
      </trkpt>
      <trkpt lat="43.2693190" lon="-2.9019230">
        <ele>233.0</ele>
        <time>2021-02-19T15:51:16Z</time>
      </trkpt>
      <trkpt lat="43.2693580" lon="-2.9017000">
        <ele>234.0</ele>
        <time>2021-02-19T15:51:20Z</time>
      </trkpt>
      <trkpt lat="43.2693490" lon="-2.9012560">
        <ele>235.2</ele>
        <time>2021-02-19T15:51:28Z</time>
      </trkpt>
      <trkpt lat="43.2693080" lon="-2.9010100">
        <ele>236.2</ele>
        <time>2021-02-19T15:51:33Z</time>
      </trkpt>
      <trkpt lat="43.2692740" lon="-2.9008600">
        <ele>237.4</ele>
        <time>2021-02-19T15:51:36Z</time>
      </trkpt>
      <trkpt lat="43.2692080" lon="-2.9005970">
        <ele>238.4</ele>
        <time>2021-02-19T15:51:41Z</time>
      </trkpt>
      <trkpt lat="43.2691410" lon="-2.9002330">
        <ele>239.6</ele>
        <time>2021-02-19T15:51:48Z</time>
      </trkpt>
      <trkpt lat="43.2691410" lon="-2.9000100">
        <ele>240.6</ele>
        <time>2021-02-19T15:51:52Z</time>
      </trkpt>
      <trkpt lat="43.2691510" lon="-2.8999540">
        <ele>240.8</ele>
        <time>2021-02-19T15:51:53Z</time>
      </trkpt>
      <trkpt lat="43.2691690" lon="-2.8998950">
        <ele>241.0</ele>
        <time>2021-02-19T15:51:54Z</time>
      </trkpt>
      <trkpt lat="43.2692300" lon="-2.8997350">
        <ele>242.0</ele>
        <time>2021-02-19T15:51:57Z</time>
      </trkpt>
      <trkpt lat="43.2693530" lon="-2.8994640">
        <ele>243.0</ele>
        <time>2021-02-19T15:52:02Z</time>
      </trkpt>
      <trkpt lat="43.2694670" lon="-2.8991770">
        <ele>243.6</ele>
        <time>2021-02-19T15:52:08Z</time>
      </trkpt>
      <trkpt lat="43.2696120" lon="-2.8989660">
        <ele>244.0</ele>
        <time>2021-02-19T15:52:14Z</time>
      </trkpt>
      <trkpt lat="43.2697350" lon="-2.8988660">
        <ele>245.2</ele>
        <time>2021-02-19T15:52:18Z</time>
      </trkpt>
      <trkpt lat="43.2698870" lon="-2.8987360">
        <ele>246.4</ele>
        <time>2021-02-19T15:52:22Z</time>
      </trkpt>
      <trkpt lat="43.2702380" lon="-2.8985510">
        <ele>247.4</ele>
        <time>2021-02-19T15:52:31Z</time>
      </trkpt>
      <trkpt lat="43.2705430" lon="-2.8984260">
        <ele>248.4</ele>
        <time>2021-02-19T15:52:38Z</time>
      </trkpt>
      <trkpt lat="43.2705740" lon="-2.8984000">
        <ele>248.4</ele>
        <time>2021-02-19T15:52:39Z</time>
      </trkpt>
      <trkpt lat="43.2707720" lon="-2.8982740">
        <ele>249.6</ele>
        <time>2021-02-19T15:52:46Z</time>
      </trkpt>
      <trkpt lat="43.2709580" lon="-2.8981550">
        <ele>250.8</ele>
        <time>2021-02-19T15:52:53Z</time>
      </trkpt>
      <trkpt lat="43.2711110" lon="-2.8980740">
        <ele>251.8</ele>
        <time>2021-02-19T15:52:58Z</time>
      </trkpt>
      <trkpt lat="43.2713250" lon="-2.8979860">
        <ele>253.2</ele>
        <time>2021-02-19T15:53:03Z</time>
      </trkpt>
      <trkpt lat="43.2715380" lon="-2.8979380">
        <ele>254.2</ele>
        <time>2021-02-19T15:53:09Z</time>
      </trkpt>
      <trkpt lat="43.2716580" lon="-2.8979200">
        <ele>255.4</ele>
        <time>2021-02-19T15:53:12Z</time>
      </trkpt>
      <trkpt lat="43.2718840" lon="-2.8978840">
        <ele>256.8</ele>
        <time>2021-02-19T15:53:18Z</time>
      </trkpt>
      <trkpt lat="43.2720190" lon="-2.8978610">
        <ele>257.8</ele>
        <time>2021-02-19T15:53:22Z</time>
      </trkpt>
      <trkpt lat="43.2721740" lon="-2.8978390">
        <ele>259.0</ele>
        <time>2021-02-19T15:53:26Z</time>
      </trkpt>
      <trkpt lat="43.2725410" lon="-2.8976330">
        <ele>260.0</ele>
        <time>2021-02-19T15:53:33Z</time>
      </trkpt>
      <trkpt lat="43.2728700" lon="-2.8974130">
        <ele>261.0</ele>
        <time>2021-02-19T15:53:39Z</time>
      </trkpt>
      <trkpt lat="43.2730580" lon="-2.8972340">
        <ele>261.8</ele>
        <time>2021-02-19T15:53:43Z</time>
      </trkpt>
      <trkpt lat="43.2730910" lon="-2.8971210">
        <ele>262.0</ele>
        <time>2021-02-19T15:53:45Z</time>
      </trkpt>
      <trkpt lat="43.2731050" lon="-2.8970600">
        <ele>262.2</ele>
        <time>2021-02-19T15:53:46Z</time>
      </trkpt>
      <trkpt lat="43.2731530" lon="-2.8966820">
        <ele>263.2</ele>
        <time>2021-02-19T15:53:52Z</time>
      </trkpt>
      <trkpt lat="43.2731790" lon="-2.8965590">
        <ele>263.4</ele>
        <time>2021-02-19T15:53:54Z</time>
      </trkpt>
      <trkpt lat="43.2732190" lon="-2.8964390">
        <ele>263.4</ele>
        <time>2021-02-19T15:53:56Z</time>
      </trkpt>
      <trkpt lat="43.2734160" lon="-2.8959660">
        <ele>264.0</ele>
        <time>2021-02-19T15:54:05Z</time>
      </trkpt>
      <trkpt lat="43.2734490" lon="-2.8955400">
        <ele>264.2</ele>
        <time>2021-02-19T15:54:11Z</time>
      </trkpt>
      <trkpt lat="43.2734370" lon="-2.8951010">
        <ele>264.2</ele>
        <time>2021-02-19T15:54:17Z</time>
      </trkpt>
      <trkpt lat="43.2733640" lon="-2.8948060">
        <ele>264.4</ele>
        <time>2021-02-19T15:54:21Z</time>
      </trkpt>
      <trkpt lat="43.2731480" lon="-2.8941180">
        <ele>265.4</ele>
        <time>2021-02-19T15:54:32Z</time>
      </trkpt>
      <trkpt lat="43.2729990" lon="-2.8937850">
        <ele>267.0</ele>
        <time>2021-02-19T15:54:40Z</time>
      </trkpt>
      <trkpt lat="43.2729620" lon="-2.8936980">
        <ele>268.0</ele>
        <time>2021-02-19T15:54:43Z</time>
      </trkpt>
      <trkpt lat="43.2725840" lon="-2.8931550">
        <ele>269.0</ele>
        <time>2021-02-19T15:54:58Z</time>
      </trkpt>
      <trkpt lat="43.2725030" lon="-2.8930750">
        <ele>269.0</ele>
        <time>2021-02-19T15:55:00Z</time>
      </trkpt>
      <trkpt lat="43.2720880" lon="-2.8929130">
        <ele>269.8</ele>
        <time>2021-02-19T15:55:08Z</time>
      </trkpt>
      <trkpt lat="43.2719650" lon="-2.8928300">
        <ele>270.2</ele>
        <time>2021-02-19T15:55:11Z</time>
      </trkpt>
      <trkpt lat="43.2717550" lon="-2.8926300">
        <ele>271.2</ele>
        <time>2021-02-19T15:55:16Z</time>
      </trkpt>
      <trkpt lat="43.2714920" lon="-2.8924320">
        <ele>272.0</ele>
        <time>2021-02-19T15:55:21Z</time>
      </trkpt>
      <trkpt lat="43.2714430" lon="-2.8923830">
        <ele>272.2</ele>
        <time>2021-02-19T15:55:22Z</time>
      </trkpt>
      <trkpt lat="43.2714080" lon="-2.8923330">
        <ele>272.6</ele>
        <time>2021-02-19T15:55:23Z</time>
      </trkpt>
      <trkpt lat="43.2713150" lon="-2.8921600">
        <ele>273.2</ele>
        <time>2021-02-19T15:55:26Z</time>
      </trkpt>
      <trkpt lat="43.2712470" lon="-2.8919640">
        <ele>273.8</ele>
        <time>2021-02-19T15:55:29Z</time>
      </trkpt>
      <trkpt lat="43.2711990" lon="-2.8917610">
        <ele>274.4</ele>
        <time>2021-02-19T15:55:32Z</time>
      </trkpt>
      <trkpt lat="43.2711050" lon="-2.8912390">
        <ele>275.4</ele>
        <time>2021-02-19T15:55:40Z</time>
      </trkpt>
      <trkpt lat="43.2709260" lon="-2.8908260">
        <ele>276.6</ele>
        <time>2021-02-19T15:55:47Z</time>
      </trkpt>
      <trkpt lat="43.2707140" lon="-2.8904990">
        <ele>277.6</ele>
        <time>2021-02-19T15:55:53Z</time>
      </trkpt>
      <trkpt lat="43.2704870" lon="-2.8902190">
        <ele>278.6</ele>
        <time>2021-02-19T15:55:59Z</time>
      </trkpt>
      <trkpt lat="43.2702530" lon="-2.8899310">
        <ele>279.8</ele>
        <time>2021-02-19T15:56:05Z</time>
      </trkpt>
      <trkpt lat="43.2700520" lon="-2.8896940">
        <ele>281.0</ele>
        <time>2021-02-19T15:56:10Z</time>
      </trkpt>
      <trkpt lat="43.2699260" lon="-2.8894980">
        <ele>282.0</ele>
        <time>2021-02-19T15:56:14Z</time>
      </trkpt>
      <trkpt lat="43.2698270" lon="-2.8892740">
        <ele>283.2</ele>
        <time>2021-02-19T15:56:18Z</time>
      </trkpt>
      <trkpt lat="43.2697460" lon="-2.8890560">
        <ele>284.2</ele>
        <time>2021-02-19T15:56:22Z</time>
      </trkpt>
      <trkpt lat="43.2697110" lon="-2.8889250">
        <ele>284.8</ele>
        <time>2021-02-19T15:56:24Z</time>
      </trkpt>
      <trkpt lat="43.2696930" lon="-2.8887210">
        <ele>285.4</ele>
        <time>2021-02-19T15:56:27Z</time>
      </trkpt>
      <trkpt lat="43.2697210" lon="-2.8883600">
        <ele>286.6</ele>
        <time>2021-02-19T15:56:33Z</time>
      </trkpt>
      <trkpt lat="43.2697250" lon="-2.8880560">
        <ele>287.2</ele>
        <time>2021-02-19T15:56:38Z</time>
      </trkpt>
      <trkpt lat="43.2697260" lon="-2.8879980">
        <ele>287.4</ele>
        <time>2021-02-19T15:56:39Z</time>
      </trkpt>
      <trkpt lat="43.2697210" lon="-2.8878200">
        <ele>287.8</ele>
        <time>2021-02-19T15:56:42Z</time>
      </trkpt>
      <trkpt lat="43.2697130" lon="-2.8876470">
        <ele>288.8</ele>
        <time>2021-02-19T15:56:45Z</time>
      </trkpt>
      <trkpt lat="43.2696990" lon="-2.8875240">
        <ele>289.2</ele>
        <time>2021-02-19T15:56:47Z</time>
      </trkpt>
      <trkpt lat="43.2696470" lon="-2.8872350">
        <ele>289.8</ele>
        <time>2021-02-19T15:56:52Z</time>
      </trkpt>
      <trkpt lat="43.2696150" lon="-2.8871410">
        <ele>290.2</ele>
        <time>2021-02-19T15:56:54Z</time>
      </trkpt>
      <trkpt lat="43.2695270" lon="-2.8869670">
        <ele>290.8</ele>
        <time>2021-02-19T15:56:58Z</time>
      </trkpt>
      <trkpt lat="43.2695010" lon="-2.8869230">
        <ele>291.0</ele>
        <time>2021-02-19T15:56:59Z</time>
      </trkpt>
      <trkpt lat="43.2693220" lon="-2.8866150">
        <ele>292.2</ele>
        <time>2021-02-19T15:57:05Z</time>
      </trkpt>
      <trkpt lat="43.2691360" lon="-2.8863230">
        <ele>293.2</ele>
        <time>2021-02-19T15:57:11Z</time>
      </trkpt>
      <trkpt lat="43.2688860" lon="-2.8860180">
        <ele>294.2</ele>
        <time>2021-02-19T15:57:17Z</time>
      </trkpt>
      <trkpt lat="43.2686490" lon="-2.8857510">
        <ele>295.4</ele>
        <time>2021-02-19T15:57:23Z</time>
      </trkpt>
      <trkpt lat="43.2684430" lon="-2.8855030">
        <ele>296.4</ele>
        <time>2021-02-19T15:57:29Z</time>
      </trkpt>
      <trkpt lat="43.2682120" lon="-2.8852490">
        <ele>297.6</ele>
        <time>2021-02-19T15:57:35Z</time>
      </trkpt>
      <trkpt lat="43.2679730" lon="-2.8849590">
        <ele>298.8</ele>
        <time>2021-02-19T15:57:42Z</time>
      </trkpt>
      <trkpt lat="43.2677760" lon="-2.8847120">
        <ele>300.0</ele>
        <time>2021-02-19T15:57:48Z</time>
      </trkpt>
      <trkpt lat="43.2676150" lon="-2.8845100">
        <ele>301.0</ele>
        <time>2021-02-19T15:57:53Z</time>
      </trkpt>
      <trkpt lat="43.2672080" lon="-2.8840010">
        <ele>301.6</ele>
        <time>2021-02-19T15:58:04Z</time>
      </trkpt>
      <trkpt lat="43.2671230" lon="-2.8838080">
        <ele>302.2</ele>
        <time>2021-02-19T15:58:07Z</time>
      </trkpt>
      <trkpt lat="43.2670290" lon="-2.8835550">
        <ele>303.4</ele>
        <time>2021-02-19T15:58:11Z</time>
      </trkpt>
      <trkpt lat="43.2669540" lon="-2.8833850">
        <ele>304.6</ele>
        <time>2021-02-19T15:58:14Z</time>
      </trkpt>
      <trkpt lat="43.2668840" lon="-2.8832680">
        <ele>305.6</ele>
        <time>2021-02-19T15:58:16Z</time>
      </trkpt>
      <trkpt lat="43.2667540" lon="-2.8830550">
        <ele>306.8</ele>
        <time>2021-02-19T15:58:20Z</time>
      </trkpt>
      <trkpt lat="43.2665190" lon="-2.8826740">
        <ele>307.2</ele>
        <time>2021-02-19T15:58:27Z</time>
      </trkpt>
      <trkpt lat="43.2662680" lon="-2.8822570">
        <ele>307.8</ele>
        <time>2021-02-19T15:58:35Z</time>
      </trkpt>
      <trkpt lat="43.2661010" lon="-2.8820090">
        <ele>309.0</ele>
        <time>2021-02-19T15:58:40Z</time>
      </trkpt>
      <trkpt lat="43.2659380" lon="-2.8817600">
        <ele>310.0</ele>
        <time>2021-02-19T15:58:45Z</time>
      </trkpt>
      <trkpt lat="43.2657280" lon="-2.8814690">
        <ele>311.2</ele>
        <time>2021-02-19T15:58:51Z</time>
      </trkpt>
      <trkpt lat="43.2654900" lon="-2.8811220">
        <ele>312.2</ele>
        <time>2021-02-19T15:58:58Z</time>
      </trkpt>
      <trkpt lat="43.2654700" lon="-2.8810650">
        <ele>312.4</ele>
        <time>2021-02-19T15:58:59Z</time>
      </trkpt>
      <trkpt lat="43.2653640" lon="-2.8807180">
        <ele>313.4</ele>
        <time>2021-02-19T15:59:05Z</time>
      </trkpt>
      <trkpt lat="43.2652850" lon="-2.8804080">
        <ele>314.6</ele>
        <time>2021-02-19T15:59:10Z</time>
      </trkpt>
      <trkpt lat="43.2651960" lon="-2.8800540">
        <ele>315.6</ele>
        <time>2021-02-19T15:59:16Z</time>
      </trkpt>
      <trkpt lat="43.2651140" lon="-2.8797030">
        <ele>316.6</ele>
        <time>2021-02-19T15:59:22Z</time>
      </trkpt>
      <trkpt lat="43.2650110" lon="-2.8793720">
        <ele>317.8</ele>
        <time>2021-02-19T15:59:28Z</time>
      </trkpt>
      <trkpt lat="43.2649040" lon="-2.8790730">
        <ele>319.0</ele>
        <time>2021-02-19T15:59:34Z</time>
      </trkpt>
      <trkpt lat="43.2648100" lon="-2.8788510">
        <ele>319.4</ele>
        <time>2021-02-19T15:59:39Z</time>
      </trkpt>
      <trkpt lat="43.2646980" lon="-2.8785980">
        <ele>320.0</ele>
        <time>2021-02-19T15:59:45Z</time>
      </trkpt>
      <trkpt lat="43.2645010" lon="-2.8782610">
        <ele>321.2</ele>
        <time>2021-02-19T15:59:53Z</time>
      </trkpt>
      <trkpt lat="43.2642770" lon="-2.8779560">
        <ele>322.2</ele>
        <time>2021-02-19T16:00:01Z</time>
      </trkpt>
      <trkpt lat="43.2641180" lon="-2.8777840">
        <ele>323.2</ele>
        <time>2021-02-19T16:00:06Z</time>
      </trkpt>
      <trkpt lat="43.2640870" lon="-2.8777450">
        <ele>323.4</ele>
        <time>2021-02-19T16:00:07Z</time>
      </trkpt>
      <trkpt lat="43.2639740" lon="-2.8775940">
        <ele>324.6</ele>
        <time>2021-02-19T16:00:11Z</time>
      </trkpt>
      <trkpt lat="43.2638680" lon="-2.8774170">
        <ele>325.8</ele>
        <time>2021-02-19T16:00:16Z</time>
      </trkpt>
      <trkpt lat="43.2637340" lon="-2.8772740">
        <ele>326.8</ele>
        <time>2021-02-19T16:00:21Z</time>
      </trkpt>
      <trkpt lat="43.2635770" lon="-2.8771020">
        <ele>327.4</ele>
        <time>2021-02-19T16:00:27Z</time>
      </trkpt>
      <trkpt lat="43.2635240" lon="-2.8770280">
        <ele>327.8</ele>
        <time>2021-02-19T16:00:29Z</time>
      </trkpt>
      <trkpt lat="43.2634370" lon="-2.8768680">
        <ele>328.8</ele>
        <time>2021-02-19T16:00:33Z</time>
      </trkpt>
      <trkpt lat="43.2633520" lon="-2.8767070">
        <ele>329.2</ele>
        <time>2021-02-19T16:00:37Z</time>
      </trkpt>
      <trkpt lat="43.2633110" lon="-2.8766050">
        <ele>329.4</ele>
        <time>2021-02-19T16:00:39Z</time>
      </trkpt>
      <trkpt lat="43.2632920" lon="-2.8765530">
        <ele>329.4</ele>
        <time>2021-02-19T16:00:40Z</time>
      </trkpt>
      <trkpt lat="43.2632510" lon="-2.8764460">
        <ele>329.6</ele>
        <time>2021-02-19T16:00:42Z</time>
      </trkpt>
      <trkpt lat="43.2632140" lon="-2.8763350">
        <ele>329.8</ele>
        <time>2021-02-19T16:00:44Z</time>
      </trkpt>
      <trkpt lat="43.2631490" lon="-2.8761780">
        <ele>330.6</ele>
        <time>2021-02-19T16:00:47Z</time>
      </trkpt>
      <trkpt lat="43.2631100" lon="-2.8760820">
        <ele>331.0</ele>
        <time>2021-02-19T16:00:49Z</time>
      </trkpt>
      <trkpt lat="43.2630030" lon="-2.8758630">
        <ele>331.8</ele>
        <time>2021-02-19T16:00:54Z</time>
      </trkpt>
      <trkpt lat="43.2629320" lon="-2.8757380">
        <ele>332.0</ele>
        <time>2021-02-19T16:00:57Z</time>
      </trkpt>
      <trkpt lat="43.2628050" lon="-2.8754580">
        <ele>333.0</ele>
        <time>2021-02-19T16:01:03Z</time>
      </trkpt>
      <trkpt lat="43.2626960" lon="-2.8750260">
        <ele>334.2</ele>
        <time>2021-02-19T16:01:11Z</time>
      </trkpt>
      <trkpt lat="43.2626850" lon="-2.8748060">
        <ele>335.4</ele>
        <time>2021-02-19T16:01:15Z</time>
      </trkpt>
      <trkpt lat="43.2626890" lon="-2.8746480">
        <ele>336.4</ele>
        <time>2021-02-19T16:01:18Z</time>
      </trkpt>
      <trkpt lat="43.2626710" lon="-2.8744880">
        <ele>337.2</ele>
        <time>2021-02-19T16:01:21Z</time>
      </trkpt>
      <trkpt lat="43.2626230" lon="-2.8742700">
        <ele>337.4</ele>
        <time>2021-02-19T16:01:25Z</time>
      </trkpt>
      <trkpt lat="43.2625310" lon="-2.8738960">
        <ele>337.8</ele>
        <time>2021-02-19T16:01:31Z</time>
      </trkpt>
      <trkpt lat="43.2624430" lon="-2.8736600">
        <ele>338.4</ele>
        <time>2021-02-19T16:01:35Z</time>
      </trkpt>
      <trkpt lat="43.2623590" lon="-2.8734970">
        <ele>338.8</ele>
        <time>2021-02-19T16:01:38Z</time>
      </trkpt>
      <trkpt lat="43.2621700" lon="-2.8732170">
        <ele>339.4</ele>
        <time>2021-02-19T16:01:43Z</time>
      </trkpt>
      <trkpt lat="43.2621310" lon="-2.8731610">
        <ele>339.8</ele>
        <time>2021-02-19T16:01:44Z</time>
      </trkpt>
      <trkpt lat="43.2620330" lon="-2.8729770">
        <ele>340.2</ele>
        <time>2021-02-19T16:01:47Z</time>
      </trkpt>
      <trkpt lat="43.2619910" lon="-2.8728370">
        <ele>340.4</ele>
        <time>2021-02-19T16:01:49Z</time>
      </trkpt>
      <trkpt lat="43.2619710" lon="-2.8726860">
        <ele>340.8</ele>
        <time>2021-02-19T16:01:51Z</time>
      </trkpt>
      <trkpt lat="43.2619700" lon="-2.8726130">
        <ele>341.0</ele>
        <time>2021-02-19T16:01:52Z</time>
      </trkpt>
      <trkpt lat="43.2620020" lon="-2.8724150">
        <ele>341.8</ele>
        <time>2021-02-19T16:01:55Z</time>
      </trkpt>
      <trkpt lat="43.2620450" lon="-2.8722980">
        <ele>342.0</ele>
        <time>2021-02-19T16:01:57Z</time>
      </trkpt>
      <trkpt lat="43.2621220" lon="-2.8721920">
        <ele>342.0</ele>
        <time>2021-02-19T16:01:59Z</time>
      </trkpt>
      <trkpt lat="43.2622500" lon="-2.8719580">
        <ele>342.0</ele>
        <time>2021-02-19T16:02:03Z</time>
      </trkpt>
      <trkpt lat="43.2623020" lon="-2.8718260">
        <ele>342.0</ele>
        <time>2021-02-19T16:02:05Z</time>
      </trkpt>
      <trkpt lat="43.2623030" lon="-2.8715230">
        <ele>342.0</ele>
        <time>2021-02-19T16:02:09Z</time>
      </trkpt>
      <trkpt lat="43.2622640" lon="-2.8713590">
        <ele>342.0</ele>
        <time>2021-02-19T16:02:11Z</time>
      </trkpt>
      <trkpt lat="43.2622050" lon="-2.8712060">
        <ele>342.0</ele>
        <time>2021-02-19T16:02:13Z</time>
      </trkpt>
      <trkpt lat="43.2621180" lon="-2.8710960">
        <ele>342.2</ele>
        <time>2021-02-19T16:02:15Z</time>
      </trkpt>
      <trkpt lat="43.2620140" lon="-2.8710110">
        <ele>342.6</ele>
        <time>2021-02-19T16:02:17Z</time>
      </trkpt>
      <trkpt lat="43.2619160" lon="-2.8709330">
        <ele>343.2</ele>
        <time>2021-02-19T16:02:19Z</time>
      </trkpt>
      <trkpt lat="43.2617320" lon="-2.8707560">
        <ele>344.2</ele>
        <time>2021-02-19T16:02:23Z</time>
      </trkpt>
      <trkpt lat="43.2616960" lon="-2.8707030">
        <ele>344.4</ele>
        <time>2021-02-19T16:02:24Z</time>
      </trkpt>
      <trkpt lat="43.2615940" lon="-2.8705160">
        <ele>345.0</ele>
        <time>2021-02-19T16:02:27Z</time>
      </trkpt>
      <trkpt lat="43.2615010" lon="-2.8703120">
        <ele>345.4</ele>
        <time>2021-02-19T16:02:30Z</time>
      </trkpt>
      <trkpt lat="43.2613380" lon="-2.8699340">
        <ele>346.6</ele>
        <time>2021-02-19T16:02:36Z</time>
      </trkpt>
      <trkpt lat="43.2612500" lon="-2.8697940">
        <ele>347.8</ele>
        <time>2021-02-19T16:02:39Z</time>
      </trkpt>
      <trkpt lat="43.2610820" lon="-2.8695610">
        <ele>349.0</ele>
        <time>2021-02-19T16:02:45Z</time>
      </trkpt>
      <trkpt lat="43.2609640" lon="-2.8693860">
        <ele>350.0</ele>
        <time>2021-02-19T16:02:49Z</time>
      </trkpt>
      <trkpt lat="43.2608100" lon="-2.8691400">
        <ele>351.2</ele>
        <time>2021-02-19T16:02:56Z</time>
      </trkpt>
      <trkpt lat="43.2606970" lon="-2.8689720">
        <ele>352.4</ele>
        <time>2021-02-19T16:03:01Z</time>
      </trkpt>
      <trkpt lat="43.2605910" lon="-2.8688430">
        <ele>353.4</ele>
        <time>2021-02-19T16:03:05Z</time>
      </trkpt>
      <trkpt lat="43.2604030" lon="-2.8686330">
        <ele>354.4</ele>
        <time>2021-02-19T16:03:12Z</time>
      </trkpt>
      <trkpt lat="43.2601790" lon="-2.8685020">
        <ele>355.8</ele>
        <time>2021-02-19T16:03:18Z</time>
      </trkpt>
      <trkpt lat="43.2600580" lon="-2.8684440">
        <ele>357.0</ele>
        <time>2021-02-19T16:03:21Z</time>
      </trkpt>
      <trkpt lat="43.2597700" lon="-2.8683320">
        <ele>358.4</ele>
        <time>2021-02-19T16:03:28Z</time>
      </trkpt>
      <trkpt lat="43.2594660" lon="-2.8682250">
        <ele>359.4</ele>
        <time>2021-02-19T16:03:36Z</time>
      </trkpt>
      <trkpt lat="43.2593180" lon="-2.8681810">
        <ele>360.2</ele>
        <time>2021-02-19T16:03:40Z</time>
      </trkpt>
      <trkpt lat="43.2592790" lon="-2.8681730">
        <ele>360.4</ele>
        <time>2021-02-19T16:03:41Z</time>
      </trkpt>
      <trkpt lat="43.2591300" lon="-2.8681310">
        <ele>361.6</ele>
        <time>2021-02-19T16:03:45Z</time>
      </trkpt>
      <trkpt lat="43.2589140" lon="-2.8680750">
        <ele>362.8</ele>
        <time>2021-02-19T16:03:51Z</time>
      </trkpt>
      <trkpt lat="43.2587700" lon="-2.8680210">
        <ele>364.2</ele>
        <time>2021-02-19T16:03:55Z</time>
      </trkpt>
      <trkpt lat="43.2586430" lon="-2.8679060">
        <ele>365.2</ele>
        <time>2021-02-19T16:03:59Z</time>
      </trkpt>
      <trkpt lat="43.2586140" lon="-2.8678600">
        <ele>365.4</ele>
        <time>2021-02-19T16:04:00Z</time>
      </trkpt>
      <trkpt lat="43.2585700" lon="-2.8677430">
        <ele>365.6</ele>
        <time>2021-02-19T16:04:02Z</time>
      </trkpt>
      <trkpt lat="43.2584470" lon="-2.8672690">
        <ele>366.2</ele>
        <time>2021-02-19T16:04:09Z</time>
      </trkpt>
      <trkpt lat="43.2582120" lon="-2.8667710">
        <ele>366.2</ele>
        <time>2021-02-19T16:04:17Z</time>
      </trkpt>
      <trkpt lat="43.2581450" lon="-2.8666390">
        <ele>366.4</ele>
        <time>2021-02-19T16:04:19Z</time>
      </trkpt>
      <trkpt lat="43.2578930" lon="-2.8660820">
        <ele>367.2</ele>
        <time>2021-02-19T16:04:28Z</time>
      </trkpt>
      <trkpt lat="43.2578350" lon="-2.8659840">
        <ele>367.4</ele>
        <time>2021-02-19T16:04:30Z</time>
      </trkpt>
      <trkpt lat="43.2576760" lon="-2.8657440">
        <ele>368.8</ele>
        <time>2021-02-19T16:04:35Z</time>
      </trkpt>
      <trkpt lat="43.2575500" lon="-2.8655620">
        <ele>369.8</ele>
        <time>2021-02-19T16:04:39Z</time>
      </trkpt>
      <trkpt lat="43.2574210" lon="-2.8653760">
        <ele>370.2</ele>
        <time>2021-02-19T16:04:43Z</time>
      </trkpt>
      <trkpt lat="43.2572650" lon="-2.8651580">
        <ele>370.8</ele>
        <time>2021-02-19T16:04:48Z</time>
      </trkpt>
      <trkpt lat="43.2571600" lon="-2.8649850">
        <ele>372.0</ele>
        <time>2021-02-19T16:04:52Z</time>
      </trkpt>
      <trkpt lat="43.2570410" lon="-2.8647270">
        <ele>373.4</ele>
        <time>2021-02-19T16:04:58Z</time>
      </trkpt>
      <trkpt lat="43.2569890" lon="-2.8645740">
        <ele>374.6</ele>
        <time>2021-02-19T16:05:03Z</time>
      </trkpt>
      <trkpt lat="43.2569780" lon="-2.8645360">
        <ele>375.0</ele>
        <time>2021-02-19T16:05:06Z</time>
      </trkpt>
      <trkpt lat="43.2569950" lon="-2.8645610">
        <ele>376.2</ele>
        <time>2021-02-19T16:05:54Z</time>
      </trkpt>
      <trkpt lat="43.2570710" lon="-2.8648980">
        <ele>376.0</ele>
        <time>2021-02-19T16:06:03Z</time>
      </trkpt>
      <trkpt lat="43.2571880" lon="-2.8651930">
        <ele>375.2</ele>
        <time>2021-02-19T16:06:09Z</time>
      </trkpt>
      <trkpt lat="43.2572400" lon="-2.8653100">
        <ele>374.4</ele>
        <time>2021-02-19T16:06:11Z</time>
      </trkpt>
      <trkpt lat="43.2573150" lon="-2.8654330">
        <ele>374.0</ele>
        <time>2021-02-19T16:06:13Z</time>
      </trkpt>
      <trkpt lat="43.2573980" lon="-2.8655730">
        <ele>373.0</ele>
        <time>2021-02-19T16:06:15Z</time>
      </trkpt>
      <trkpt lat="43.2574370" lon="-2.8656450">
        <ele>372.6</ele>
        <time>2021-02-19T16:06:16Z</time>
      </trkpt>
      <trkpt lat="43.2575220" lon="-2.8658280">
        <ele>371.4</ele>
        <time>2021-02-19T16:06:18Z</time>
      </trkpt>
      <trkpt lat="43.2577150" lon="-2.8661580">
        <ele>370.4</ele>
        <time>2021-02-19T16:06:22Z</time>
      </trkpt>
      <trkpt lat="43.2578120" lon="-2.8663410">
        <ele>369.8</ele>
        <time>2021-02-19T16:06:24Z</time>
      </trkpt>
      <trkpt lat="43.2578510" lon="-2.8664410">
        <ele>369.2</ele>
        <time>2021-02-19T16:06:25Z</time>
      </trkpt>
      <trkpt lat="43.2580190" lon="-2.8668190">
        <ele>368.2</ele>
        <time>2021-02-19T16:06:29Z</time>
      </trkpt>
      <trkpt lat="43.2582600" lon="-2.8672670">
        <ele>367.8</ele>
        <time>2021-02-19T16:06:34Z</time>
      </trkpt>
      <trkpt lat="43.2583380" lon="-2.8674650">
        <ele>367.4</ele>
        <time>2021-02-19T16:06:36Z</time>
      </trkpt>
      <trkpt lat="43.2583910" lon="-2.8676740">
        <ele>367.2</ele>
        <time>2021-02-19T16:06:38Z</time>
      </trkpt>
      <trkpt lat="43.2585180" lon="-2.8679990">
        <ele>367.0</ele>
        <time>2021-02-19T16:06:42Z</time>
      </trkpt>
      <trkpt lat="43.2586240" lon="-2.8680620">
        <ele>366.6</ele>
        <time>2021-02-19T16:06:44Z</time>
      </trkpt>
      <trkpt lat="43.2590460" lon="-2.8681680">
        <ele>366.0</ele>
        <time>2021-02-19T16:06:48Z</time>
      </trkpt>
      <trkpt lat="43.2594360" lon="-2.8682650">
        <ele>365.0</ele>
        <time>2021-02-19T16:06:52Z</time>
      </trkpt>
      <trkpt lat="43.2600160" lon="-2.8684170">
        <ele>364.0</ele>
        <time>2021-02-19T16:06:58Z</time>
      </trkpt>
      <trkpt lat="43.2601110" lon="-2.8684570">
        <ele>363.8</ele>
        <time>2021-02-19T16:06:59Z</time>
      </trkpt>
      <trkpt lat="43.2602750" lon="-2.8685790">
        <ele>362.2</ele>
        <time>2021-02-19T16:07:01Z</time>
      </trkpt>
      <trkpt lat="43.2604810" lon="-2.8688460">
        <ele>360.6</ele>
        <time>2021-02-19T16:07:04Z</time>
      </trkpt>
      <trkpt lat="43.2605420" lon="-2.8689430">
        <ele>359.6</ele>
        <time>2021-02-19T16:07:05Z</time>
      </trkpt>
      <trkpt lat="43.2606580" lon="-2.8691410">
        <ele>358.6</ele>
        <time>2021-02-19T16:07:07Z</time>
      </trkpt>
      <trkpt lat="43.2608780" lon="-2.8694520">
        <ele>357.4</ele>
        <time>2021-02-19T16:07:10Z</time>
      </trkpt>
      <trkpt lat="43.2610290" lon="-2.8696850">
        <ele>355.8</ele>
        <time>2021-02-19T16:07:12Z</time>
      </trkpt>
      <trkpt lat="43.2611930" lon="-2.8699410">
        <ele>354.6</ele>
        <time>2021-02-19T16:07:14Z</time>
      </trkpt>
      <trkpt lat="43.2613350" lon="-2.8702190">
        <ele>353.6</ele>
        <time>2021-02-19T16:07:16Z</time>
      </trkpt>
      <trkpt lat="43.2614840" lon="-2.8704830">
        <ele>352.2</ele>
        <time>2021-02-19T16:07:18Z</time>
      </trkpt>
      <trkpt lat="43.2616780" lon="-2.8708110">
        <ele>350.4</ele>
        <time>2021-02-19T16:07:21Z</time>
      </trkpt>
      <trkpt lat="43.2617630" lon="-2.8708820">
        <ele>349.4</ele>
        <time>2021-02-19T16:07:22Z</time>
      </trkpt>
      <trkpt lat="43.2618660" lon="-2.8709410">
        <ele>348.4</ele>
        <time>2021-02-19T16:07:23Z</time>
      </trkpt>
      <trkpt lat="43.2619630" lon="-2.8710030">
        <ele>347.0</ele>
        <time>2021-02-19T16:07:24Z</time>
      </trkpt>
      <trkpt lat="43.2621420" lon="-2.8711680">
        <ele>345.8</ele>
        <time>2021-02-19T16:07:26Z</time>
      </trkpt>
      <trkpt lat="43.2622190" lon="-2.8712690">
        <ele>345.2</ele>
        <time>2021-02-19T16:07:27Z</time>
      </trkpt>
      <trkpt lat="43.2622890" lon="-2.8713780">
        <ele>344.8</ele>
        <time>2021-02-19T16:07:28Z</time>
      </trkpt>
      <trkpt lat="43.2623480" lon="-2.8714930">
        <ele>344.4</ele>
        <time>2021-02-19T16:07:29Z</time>
      </trkpt>
      <trkpt lat="43.2624350" lon="-2.8717220">
        <ele>344.2</ele>
        <time>2021-02-19T16:07:31Z</time>
      </trkpt>
      <trkpt lat="43.2624680" lon="-2.8719530">
        <ele>343.8</ele>
        <time>2021-02-19T16:07:33Z</time>
      </trkpt>
      <trkpt lat="43.2624470" lon="-2.8721580">
        <ele>343.8</ele>
        <time>2021-02-19T16:07:35Z</time>
      </trkpt>
      <trkpt lat="43.2622680" lon="-2.8724520">
        <ele>343.8</ele>
        <time>2021-02-19T16:07:38Z</time>
      </trkpt>
      <trkpt lat="43.2621710" lon="-2.8726530">
        <ele>343.6</ele>
        <time>2021-02-19T16:07:40Z</time>
      </trkpt>
      <trkpt lat="43.2621410" lon="-2.8727630">
        <ele>343.4</ele>
        <time>2021-02-19T16:07:41Z</time>
      </trkpt>
      <trkpt lat="43.2621100" lon="-2.8729840">
        <ele>342.6</ele>
        <time>2021-02-19T16:07:43Z</time>
      </trkpt>
      <trkpt lat="43.2621110" lon="-2.8730880">
        <ele>342.4</ele>
        <time>2021-02-19T16:07:44Z</time>
      </trkpt>
      <trkpt lat="43.2621340" lon="-2.8732800">
        <ele>341.8</ele>
        <time>2021-02-19T16:07:46Z</time>
      </trkpt>
      <trkpt lat="43.2621700" lon="-2.8734730">
        <ele>341.4</ele>
        <time>2021-02-19T16:07:48Z</time>
      </trkpt>
      <trkpt lat="43.2623290" lon="-2.8742580">
        <ele>340.4</ele>
        <time>2021-02-19T16:07:55Z</time>
      </trkpt>
      <trkpt lat="43.2623720" lon="-2.8743740">
        <ele>340.4</ele>
        <time>2021-02-19T16:07:56Z</time>
      </trkpt>
      <trkpt lat="43.2624750" lon="-2.8747260">
        <ele>339.2</ele>
        <time>2021-02-19T16:07:59Z</time>
      </trkpt>
      <trkpt lat="43.2625530" lon="-2.8750960">
        <ele>338.0</ele>
        <time>2021-02-19T16:08:02Z</time>
      </trkpt>
      <trkpt lat="43.2625890" lon="-2.8752170">
        <ele>337.6</ele>
        <time>2021-02-19T16:08:03Z</time>
      </trkpt>
      <trkpt lat="43.2626760" lon="-2.8755960">
        <ele>337.0</ele>
        <time>2021-02-19T16:08:06Z</time>
      </trkpt>
      <trkpt lat="43.2628240" lon="-2.8760720">
        <ele>335.8</ele>
        <time>2021-02-19T16:08:10Z</time>
      </trkpt>
      <trkpt lat="43.2629160" lon="-2.8764550">
        <ele>334.8</ele>
        <time>2021-02-19T16:08:13Z</time>
      </trkpt>
      <trkpt lat="43.2630590" lon="-2.8768430">
        <ele>333.4</ele>
        <time>2021-02-19T16:08:16Z</time>
      </trkpt>
      <trkpt lat="43.2631500" lon="-2.8770730">
        <ele>332.2</ele>
        <time>2021-02-19T16:08:18Z</time>
      </trkpt>
      <trkpt lat="43.2633720" lon="-2.8774570">
        <ele>330.8</ele>
        <time>2021-02-19T16:08:22Z</time>
      </trkpt>
      <trkpt lat="43.2634880" lon="-2.8776650">
        <ele>329.4</ele>
        <time>2021-02-19T16:08:24Z</time>
      </trkpt>
      <trkpt lat="43.2637490" lon="-2.8780780">
        <ele>328.4</ele>
        <time>2021-02-19T16:08:28Z</time>
      </trkpt>
      <trkpt lat="43.2638340" lon="-2.8781710">
        <ele>328.0</ele>
        <time>2021-02-19T16:08:29Z</time>
      </trkpt>
      <trkpt lat="43.2640370" lon="-2.8783790">
        <ele>327.0</ele>
        <time>2021-02-19T16:08:31Z</time>
      </trkpt>
      <trkpt lat="43.2642580" lon="-2.8786050">
        <ele>325.6</ele>
        <time>2021-02-19T16:08:33Z</time>
      </trkpt>
      <trkpt lat="43.2645110" lon="-2.8789970">
        <ele>324.0</ele>
        <time>2021-02-19T16:08:36Z</time>
      </trkpt>
      <trkpt lat="43.2647260" lon="-2.8794040">
        <ele>322.6</ele>
        <time>2021-02-19T16:08:39Z</time>
      </trkpt>
      <trkpt lat="43.2650690" lon="-2.8800980">
        <ele>321.8</ele>
        <time>2021-02-19T16:08:44Z</time>
      </trkpt>
      <trkpt lat="43.2651940" lon="-2.8803440">
        <ele>321.4</ele>
        <time>2021-02-19T16:08:46Z</time>
      </trkpt>
      <trkpt lat="43.2654380" lon="-2.8811140">
        <ele>320.4</ele>
        <time>2021-02-19T16:08:52Z</time>
      </trkpt>
      <trkpt lat="43.2654810" lon="-2.8812310">
        <ele>319.8</ele>
        <time>2021-02-19T16:08:53Z</time>
      </trkpt>
      <trkpt lat="43.2655940" lon="-2.8814490">
        <ele>318.8</ele>
        <time>2021-02-19T16:08:55Z</time>
      </trkpt>
      <trkpt lat="43.2658160" lon="-2.8817360">
        <ele>317.6</ele>
        <time>2021-02-19T16:08:58Z</time>
      </trkpt>
      <trkpt lat="43.2659640" lon="-2.8819260">
        <ele>316.0</ele>
        <time>2021-02-19T16:09:00Z</time>
      </trkpt>
      <trkpt lat="43.2660930" lon="-2.8821180">
        <ele>314.8</ele>
        <time>2021-02-19T16:09:02Z</time>
      </trkpt>
      <trkpt lat="43.2662170" lon="-2.8822970">
        <ele>313.6</ele>
        <time>2021-02-19T16:09:04Z</time>
      </trkpt>
      <trkpt lat="43.2663950" lon="-2.8825690">
        <ele>312.2</ele>
        <time>2021-02-19T16:09:07Z</time>
      </trkpt>
      <trkpt lat="43.2667080" lon="-2.8831310">
        <ele>311.0</ele>
        <time>2021-02-19T16:09:13Z</time>
      </trkpt>
      <trkpt lat="43.2669310" lon="-2.8836640">
        <ele>310.0</ele>
        <time>2021-02-19T16:09:18Z</time>
      </trkpt>
      <trkpt lat="43.2670200" lon="-2.8838870">
        <ele>308.6</ele>
        <time>2021-02-19T16:09:20Z</time>
      </trkpt>
      <trkpt lat="43.2671920" lon="-2.8841810">
        <ele>307.8</ele>
        <time>2021-02-19T16:09:23Z</time>
      </trkpt>
      <trkpt lat="43.2672630" lon="-2.8842600">
        <ele>307.4</ele>
        <time>2021-02-19T16:09:24Z</time>
      </trkpt>
      <trkpt lat="43.2676110" lon="-2.8846140">
        <ele>306.2</ele>
        <time>2021-02-19T16:09:29Z</time>
      </trkpt>
      <trkpt lat="43.2678180" lon="-2.8848320">
        <ele>304.6</ele>
        <time>2021-02-19T16:09:32Z</time>
      </trkpt>
      <trkpt lat="43.2679590" lon="-2.8849850">
        <ele>303.2</ele>
        <time>2021-02-19T16:09:34Z</time>
      </trkpt>
      <trkpt lat="43.2682440" lon="-2.8853070">
        <ele>302.0</ele>
        <time>2021-02-19T16:09:38Z</time>
      </trkpt>
      <trkpt lat="43.2685200" lon="-2.8856160">
        <ele>301.0</ele>
        <time>2021-02-19T16:09:42Z</time>
      </trkpt>
      <trkpt lat="43.2688840" lon="-2.8859890">
        <ele>299.8</ele>
        <time>2021-02-19T16:09:47Z</time>
      </trkpt>
      <trkpt lat="43.2690800" lon="-2.8862340">
        <ele>298.6</ele>
        <time>2021-02-19T16:09:50Z</time>
      </trkpt>
      <trkpt lat="43.2694610" lon="-2.8868200">
        <ele>297.8</ele>
        <time>2021-02-19T16:09:57Z</time>
      </trkpt>
      <trkpt lat="43.2695720" lon="-2.8869820">
        <ele>297.4</ele>
        <time>2021-02-19T16:09:59Z</time>
      </trkpt>
      <trkpt lat="43.2697160" lon="-2.8872460">
        <ele>296.2</ele>
        <time>2021-02-19T16:10:02Z</time>
      </trkpt>
      <trkpt lat="43.2698100" lon="-2.8876900">
        <ele>295.0</ele>
        <time>2021-02-19T16:10:06Z</time>
      </trkpt>
      <trkpt lat="43.2698050" lon="-2.8879250">
        <ele>294.6</ele>
        <time>2021-02-19T16:10:08Z</time>
      </trkpt>
      <trkpt lat="43.2697890" lon="-2.8881690">
        <ele>293.0</ele>
        <time>2021-02-19T16:10:10Z</time>
      </trkpt>
      <trkpt lat="43.2697860" lon="-2.8884080">
        <ele>292.0</ele>
        <time>2021-02-19T16:10:12Z</time>
      </trkpt>
      <trkpt lat="43.2697860" lon="-2.8887910">
        <ele>290.8</ele>
        <time>2021-02-19T16:10:15Z</time>
      </trkpt>
      <trkpt lat="43.2698210" lon="-2.8890360">
        <ele>290.4</ele>
        <time>2021-02-19T16:10:17Z</time>
      </trkpt>
      <trkpt lat="43.2698570" lon="-2.8891480">
        <ele>289.8</ele>
        <time>2021-02-19T16:10:18Z</time>
      </trkpt>
      <trkpt lat="43.2698980" lon="-2.8892570">
        <ele>288.8</ele>
        <time>2021-02-19T16:10:19Z</time>
      </trkpt>
      <trkpt lat="43.2699440" lon="-2.8893660">
        <ele>288.0</ele>
        <time>2021-02-19T16:10:20Z</time>
      </trkpt>
      <trkpt lat="43.2700540" lon="-2.8895650">
        <ele>287.4</ele>
        <time>2021-02-19T16:10:21Z</time>
      </trkpt>
      <trkpt lat="43.2700860" lon="-2.8896090">
        <ele>287.0</ele>
        <time>2021-02-19T16:10:22Z</time>
      </trkpt>
      <trkpt lat="43.2701180" lon="-2.8896540">
        <ele>286.6</ele>
        <time>2021-02-19T16:10:23Z</time>
      </trkpt>
      <trkpt lat="43.2703160" lon="-2.8899070">
        <ele>285.6</ele>
        <time>2021-02-19T16:10:26Z</time>
      </trkpt>
      <trkpt lat="43.2705190" lon="-2.8901460">
        <ele>284.0</ele>
        <time>2021-02-19T16:10:29Z</time>
      </trkpt>
      <trkpt lat="43.2706360" lon="-2.8903180">
        <ele>282.6</ele>
        <time>2021-02-19T16:10:31Z</time>
      </trkpt>
      <trkpt lat="43.2708480" lon="-2.8906690">
        <ele>281.2</ele>
        <time>2021-02-19T16:10:35Z</time>
      </trkpt>
      <trkpt lat="43.2710830" lon="-2.8912880">
        <ele>280.2</ele>
        <time>2021-02-19T16:10:41Z</time>
      </trkpt>
      <trkpt lat="43.2712040" lon="-2.8917200">
        <ele>278.2</ele>
        <time>2021-02-19T16:10:45Z</time>
      </trkpt>
      <trkpt lat="43.2712570" lon="-2.8919400">
        <ele>277.2</ele>
        <time>2021-02-19T16:10:47Z</time>
      </trkpt>
      <trkpt lat="43.2713280" lon="-2.8921460">
        <ele>276.6</ele>
        <time>2021-02-19T16:10:49Z</time>
      </trkpt>
      <trkpt lat="43.2714260" lon="-2.8923180">
        <ele>276.2</ele>
        <time>2021-02-19T16:10:51Z</time>
      </trkpt>
      <trkpt lat="43.2714830" lon="-2.8923930">
        <ele>276.0</ele>
        <time>2021-02-19T16:10:52Z</time>
      </trkpt>
      <trkpt lat="43.2717310" lon="-2.8926780">
        <ele>274.6</ele>
        <time>2021-02-19T16:10:56Z</time>
      </trkpt>
      <trkpt lat="43.2718920" lon="-2.8927660">
        <ele>274.0</ele>
        <time>2021-02-19T16:10:58Z</time>
      </trkpt>
      <trkpt lat="43.2720990" lon="-2.8928260">
        <ele>273.4</ele>
        <time>2021-02-19T16:11:00Z</time>
      </trkpt>
      <trkpt lat="43.2721880" lon="-2.8928670">
        <ele>273.2</ele>
        <time>2021-02-19T16:11:01Z</time>
      </trkpt>
      <trkpt lat="43.2723420" lon="-2.8929840">
        <ele>272.8</ele>
        <time>2021-02-19T16:11:03Z</time>
      </trkpt>
      <trkpt lat="43.2724780" lon="-2.8931230">
        <ele>272.4</ele>
        <time>2021-02-19T16:11:05Z</time>
      </trkpt>
      <trkpt lat="43.2728200" lon="-2.8934790">
        <ele>271.2</ele>
        <time>2021-02-19T16:11:10Z</time>
      </trkpt>
      <trkpt lat="43.2731750" lon="-2.8938640">
        <ele>270.2</ele>
        <time>2021-02-19T16:11:15Z</time>
      </trkpt>
      <trkpt lat="43.2733560" lon="-2.8941200">
        <ele>269.8</ele>
        <time>2021-02-19T16:11:18Z</time>
      </trkpt>
      <trkpt lat="43.2734630" lon="-2.8944430">
        <ele>269.4</ele>
        <time>2021-02-19T16:11:21Z</time>
      </trkpt>
      <trkpt lat="43.2734920" lon="-2.8945590">
        <ele>269.0</ele>
        <time>2021-02-19T16:11:22Z</time>
      </trkpt>
      <trkpt lat="43.2735360" lon="-2.8947910">
        <ele>267.8</ele>
        <time>2021-02-19T16:11:24Z</time>
      </trkpt>
      <trkpt lat="43.2735580" lon="-2.8950190">
        <ele>267.2</ele>
        <time>2021-02-19T16:11:26Z</time>
      </trkpt>
      <trkpt lat="43.2735380" lon="-2.8953710">
        <ele>266.4</ele>
        <time>2021-02-19T16:11:29Z</time>
      </trkpt>
      <trkpt lat="43.2734590" lon="-2.8961120">
        <ele>266.0</ele>
        <time>2021-02-19T16:11:36Z</time>
      </trkpt>
      <trkpt lat="43.2734330" lon="-2.8962170">
        <ele>266.0</ele>
        <time>2021-02-19T16:11:37Z</time>
      </trkpt>
      <trkpt lat="43.2732260" lon="-2.8969390">
        <ele>265.8</ele>
        <time>2021-02-19T16:11:44Z</time>
      </trkpt>
      <trkpt lat="43.2732170" lon="-2.8970440">
        <ele>265.4</ele>
        <time>2021-02-19T16:11:45Z</time>
      </trkpt>
      <trkpt lat="43.2732080" lon="-2.8972350">
        <ele>265.2</ele>
        <time>2021-02-19T16:11:47Z</time>
      </trkpt>
      <trkpt lat="43.2731300" lon="-2.8974140">
        <ele>264.8</ele>
        <time>2021-02-19T16:11:49Z</time>
      </trkpt>
      <trkpt lat="43.2730080" lon="-2.8975580">
        <ele>264.6</ele>
        <time>2021-02-19T16:11:51Z</time>
      </trkpt>
      <trkpt lat="43.2728700" lon="-2.8976730">
        <ele>264.4</ele>
        <time>2021-02-19T16:11:53Z</time>
      </trkpt>
      <trkpt lat="43.2727250" lon="-2.8977570">
        <ele>263.8</ele>
        <time>2021-02-19T16:11:55Z</time>
      </trkpt>
      <trkpt lat="43.2725730" lon="-2.8977950">
        <ele>263.2</ele>
        <time>2021-02-19T16:11:57Z</time>
      </trkpt>
      <trkpt lat="43.2723160" lon="-2.8978010">
        <ele>261.6</ele>
        <time>2021-02-19T16:12:00Z</time>
      </trkpt>
      <trkpt lat="43.2719540" lon="-2.8978200">
        <ele>260.2</ele>
        <time>2021-02-19T16:12:04Z</time>
      </trkpt>
      <trkpt lat="43.2717760" lon="-2.8978470">
        <ele>258.6</ele>
        <time>2021-02-19T16:12:06Z</time>
      </trkpt>
      <trkpt lat="43.2715950" lon="-2.8979090">
        <ele>257.4</ele>
        <time>2021-02-19T16:12:08Z</time>
      </trkpt>
      <trkpt lat="43.2714040" lon="-2.8979930">
        <ele>256.0</ele>
        <time>2021-02-19T16:12:10Z</time>
      </trkpt>
      <trkpt lat="43.2713040" lon="-2.8980350">
        <ele>254.6</ele>
        <time>2021-02-19T16:12:11Z</time>
      </trkpt>
      <trkpt lat="43.2711060" lon="-2.8981190">
        <ele>253.2</ele>
        <time>2021-02-19T16:12:13Z</time>
      </trkpt>
      <trkpt lat="43.2707350" lon="-2.8982780">
        <ele>252.0</ele>
        <time>2021-02-19T16:12:17Z</time>
      </trkpt>
      <trkpt lat="43.2705640" lon="-2.8983550">
        <ele>250.6</ele>
        <time>2021-02-19T16:12:19Z</time>
      </trkpt>
      <trkpt lat="43.2704030" lon="-2.8984350">
        <ele>249.0</ele>
        <time>2021-02-19T16:12:21Z</time>
      </trkpt>
      <trkpt lat="43.2701510" lon="-2.8985610">
        <ele>248.0</ele>
        <time>2021-02-19T16:12:24Z</time>
      </trkpt>
      <trkpt lat="43.2698260" lon="-2.8987450">
        <ele>246.8</ele>
        <time>2021-02-19T16:12:28Z</time>
      </trkpt>
      <trkpt lat="43.2696870" lon="-2.8988970">
        <ele>246.2</ele>
        <time>2021-02-19T16:12:30Z</time>
      </trkpt>
      <trkpt lat="43.2695700" lon="-2.8990980">
        <ele>245.8</ele>
        <time>2021-02-19T16:12:32Z</time>
      </trkpt>
      <trkpt lat="43.2695190" lon="-2.8992050">
        <ele>245.6</ele>
        <time>2021-02-19T16:12:33Z</time>
      </trkpt>
      <trkpt lat="43.2693080" lon="-2.8996370">
        <ele>244.4</ele>
        <time>2021-02-19T16:12:37Z</time>
      </trkpt>
      <trkpt lat="43.2692300" lon="-2.8998820">
        <ele>244.0</ele>
        <time>2021-02-19T16:12:39Z</time>
      </trkpt>
      <trkpt lat="43.2692610" lon="-2.9002740">
        <ele>243.8</ele>
        <time>2021-02-19T16:12:42Z</time>
      </trkpt>
      <trkpt lat="43.2693130" lon="-2.9005310">
        <ele>243.4</ele>
        <time>2021-02-19T16:12:44Z</time>
      </trkpt>
      <trkpt lat="43.2694600" lon="-2.9012730">
        <ele>242.4</ele>
        <time>2021-02-19T16:12:50Z</time>
      </trkpt>
      <trkpt lat="43.2694910" lon="-2.9015130">
        <ele>240.8</ele>
        <time>2021-02-19T16:12:52Z</time>
      </trkpt>
      <trkpt lat="43.2694950" lon="-2.9016390">
        <ele>240.4</ele>
        <time>2021-02-19T16:12:53Z</time>
      </trkpt>
      <trkpt lat="43.2694940" lon="-2.9018910">
        <ele>239.6</ele>
        <time>2021-02-19T16:12:55Z</time>
      </trkpt>
      <trkpt lat="43.2694860" lon="-2.9021340">
        <ele>238.6</ele>
        <time>2021-02-19T16:12:57Z</time>
      </trkpt>
      <trkpt lat="43.2695120" lon="-2.9026290">
        <ele>236.8</ele>
        <time>2021-02-19T16:13:01Z</time>
      </trkpt>
      <trkpt lat="43.2695350" lon="-2.9028720">
        <ele>235.4</ele>
        <time>2021-02-19T16:13:03Z</time>
      </trkpt>
      <trkpt lat="43.2695440" lon="-2.9031240">
        <ele>234.0</ele>
        <time>2021-02-19T16:13:05Z</time>
      </trkpt>
      <trkpt lat="43.2695270" lon="-2.9034900">
        <ele>232.6</ele>
        <time>2021-02-19T16:13:08Z</time>
      </trkpt>
      <trkpt lat="43.2694330" lon="-2.9038990">
        <ele>231.4</ele>
        <time>2021-02-19T16:13:12Z</time>
      </trkpt>
      <trkpt lat="43.2693920" lon="-2.9039900">
        <ele>230.8</ele>
        <time>2021-02-19T16:13:13Z</time>
      </trkpt>
      <trkpt lat="43.2693520" lon="-2.9040850">
        <ele>229.0</ele>
        <time>2021-02-19T16:13:14Z</time>
      </trkpt>
      <trkpt lat="43.2692600" lon="-2.9042830">
        <ele>227.6</ele>
        <time>2021-02-19T16:13:16Z</time>
      </trkpt>
      <trkpt lat="43.2691350" lon="-2.9046380">
        <ele>226.6</ele>
        <time>2021-02-19T16:13:20Z</time>
      </trkpt>
      <trkpt lat="43.2691280" lon="-2.9047060">
        <ele>226.6</ele>
        <time>2021-02-19T16:13:21Z</time>
      </trkpt>
      <trkpt lat="43.2691290" lon="-2.9047640">
        <ele>226.4</ele>
        <time>2021-02-19T16:13:22Z</time>
      </trkpt>
      <trkpt lat="43.2692130" lon="-2.9049810">
        <ele>226.4</ele>
        <time>2021-02-19T16:13:25Z</time>
      </trkpt>
      <trkpt lat="43.2692250" lon="-2.9051760">
        <ele>226.4</ele>
        <time>2021-02-19T16:13:27Z</time>
      </trkpt>
      <trkpt lat="43.2692400" lon="-2.9053680">
        <ele>226.6</ele>
        <time>2021-02-19T16:13:29Z</time>
      </trkpt>
      <trkpt lat="43.2692900" lon="-2.9055410">
        <ele>226.6</ele>
        <time>2021-02-19T16:13:31Z</time>
      </trkpt>
      <trkpt lat="43.2693620" lon="-2.9056850">
        <ele>226.8</ele>
        <time>2021-02-19T16:13:33Z</time>
      </trkpt>
      <trkpt lat="43.2697580" lon="-2.9062840">
        <ele>226.8</ele>
        <time>2021-02-19T16:13:41Z</time>
      </trkpt>
      <trkpt lat="43.2701200" lon="-2.9068390">
        <ele>226.8</ele>
        <time>2021-02-19T16:13:48Z</time>
      </trkpt>
      <trkpt lat="43.2705300" lon="-2.9074850">
        <ele>225.6</ele>
        <time>2021-02-19T16:13:55Z</time>
      </trkpt>
      <trkpt lat="43.2705840" lon="-2.9075960">
        <ele>225.2</ele>
        <time>2021-02-19T16:13:56Z</time>
      </trkpt>
      <trkpt lat="43.2706740" lon="-2.9078390">
        <ele>224.2</ele>
        <time>2021-02-19T16:13:58Z</time>
      </trkpt>
      <trkpt lat="43.2707380" lon="-2.9081010">
        <ele>222.4</ele>
        <time>2021-02-19T16:14:00Z</time>
      </trkpt>
      <trkpt lat="43.2707590" lon="-2.9082350">
        <ele>221.8</ele>
        <time>2021-02-19T16:14:01Z</time>
      </trkpt>
      <trkpt lat="43.2707740" lon="-2.9083710">
        <ele>221.4</ele>
        <time>2021-02-19T16:14:02Z</time>
      </trkpt>
      <trkpt lat="43.2707700" lon="-2.9085040">
        <ele>221.0</ele>
        <time>2021-02-19T16:14:03Z</time>
      </trkpt>
      <trkpt lat="43.2707640" lon="-2.9087650">
        <ele>219.8</ele>
        <time>2021-02-19T16:14:05Z</time>
      </trkpt>
      <trkpt lat="43.2707470" lon="-2.9092780">
        <ele>218.8</ele>
        <time>2021-02-19T16:14:09Z</time>
      </trkpt>
      <trkpt lat="43.2707220" lon="-2.9096540">
        <ele>217.4</ele>
        <time>2021-02-19T16:14:12Z</time>
      </trkpt>
      <trkpt lat="43.2707220" lon="-2.9097780">
        <ele>215.8</ele>
        <time>2021-02-19T16:14:13Z</time>
      </trkpt>
      <trkpt lat="43.2707080" lon="-2.9100240">
        <ele>213.8</ele>
        <time>2021-02-19T16:14:15Z</time>
      </trkpt>
      <trkpt lat="43.2707020" lon="-2.9102520">
        <ele>212.6</ele>
        <time>2021-02-19T16:14:17Z</time>
      </trkpt>
      <trkpt lat="43.2706810" lon="-2.9104740">
        <ele>211.0</ele>
        <time>2021-02-19T16:14:19Z</time>
      </trkpt>
      <trkpt lat="43.2706680" lon="-2.9109710">
        <ele>210.2</ele>
        <time>2021-02-19T16:14:24Z</time>
      </trkpt>
      <trkpt lat="43.2706670" lon="-2.9111550">
        <ele>210.0</ele>
        <time>2021-02-19T16:14:26Z</time>
      </trkpt>
      <trkpt lat="43.2706740" lon="-2.9113450">
        <ele>209.8</ele>
        <time>2021-02-19T16:14:28Z</time>
      </trkpt>
      <trkpt lat="43.2707060" lon="-2.9115280">
        <ele>209.8</ele>
        <time>2021-02-19T16:14:30Z</time>
      </trkpt>
      <trkpt lat="43.2708720" lon="-2.9119520">
        <ele>209.4</ele>
        <time>2021-02-19T16:14:35Z</time>
      </trkpt>
      <trkpt lat="43.2709520" lon="-2.9121140">
        <ele>209.0</ele>
        <time>2021-02-19T16:14:37Z</time>
      </trkpt>
      <trkpt lat="43.2711690" lon="-2.9124880">
        <ele>207.8</ele>
        <time>2021-02-19T16:14:42Z</time>
      </trkpt>
      <trkpt lat="43.2715490" lon="-2.9131420">
        <ele>207.4</ele>
        <time>2021-02-19T16:14:50Z</time>
      </trkpt>
      <trkpt lat="43.2716350" lon="-2.9133120">
        <ele>206.8</ele>
        <time>2021-02-19T16:14:52Z</time>
      </trkpt>
      <trkpt lat="43.2719350" lon="-2.9138130">
        <ele>205.4</ele>
        <time>2021-02-19T16:14:58Z</time>
      </trkpt>
      <trkpt lat="43.2720790" lon="-2.9140750">
        <ele>204.4</ele>
        <time>2021-02-19T16:15:01Z</time>
      </trkpt>
      <trkpt lat="43.2722230" lon="-2.9143320">
        <ele>203.2</ele>
        <time>2021-02-19T16:15:04Z</time>
      </trkpt>
      <trkpt lat="43.2724050" lon="-2.9146650">
        <ele>201.8</ele>
        <time>2021-02-19T16:15:08Z</time>
      </trkpt>
      <trkpt lat="43.2725600" lon="-2.9149930">
        <ele>200.2</ele>
        <time>2021-02-19T16:15:12Z</time>
      </trkpt>
      <trkpt lat="43.2728290" lon="-2.9156560">
        <ele>199.4</ele>
        <time>2021-02-19T16:15:21Z</time>
      </trkpt>
      <trkpt lat="43.2728570" lon="-2.9157120">
        <ele>199.6</ele>
        <time>2021-02-19T16:15:22Z</time>
      </trkpt>
      <trkpt lat="43.2728770" lon="-2.9158270">
        <ele>199.8</ele>
        <time>2021-02-19T16:15:24Z</time>
      </trkpt>
      <trkpt lat="43.2728560" lon="-2.9159370">
        <ele>200.0</ele>
        <time>2021-02-19T16:15:26Z</time>
      </trkpt>
      <trkpt lat="43.2727540" lon="-2.9161790">
        <ele>200.0</ele>
        <time>2021-02-19T16:15:30Z</time>
      </trkpt>
      <trkpt lat="43.2726450" lon="-2.9166840">
        <ele>199.2</ele>
        <time>2021-02-19T16:15:37Z</time>
      </trkpt>
      <trkpt lat="43.2725640" lon="-2.9169730">
        <ele>198.0</ele>
        <time>2021-02-19T16:15:41Z</time>
      </trkpt>
      <trkpt lat="43.2725210" lon="-2.9171200">
        <ele>196.8</ele>
        <time>2021-02-19T16:15:43Z</time>
      </trkpt>
      <trkpt lat="43.2724600" lon="-2.9173840">
        <ele>195.2</ele>
        <time>2021-02-19T16:15:46Z</time>
      </trkpt>
      <trkpt lat="43.2724530" lon="-2.9174800">
        <ele>194.8</ele>
        <time>2021-02-19T16:15:47Z</time>
      </trkpt>
      <trkpt lat="43.2724610" lon="-2.9176620">
        <ele>194.2</ele>
        <time>2021-02-19T16:15:49Z</time>
      </trkpt>
      <trkpt lat="43.2724980" lon="-2.9178370">
        <ele>194.0</ele>
        <time>2021-02-19T16:15:50Z</time>
      </trkpt>
      <trkpt lat="43.2726100" lon="-2.9182780">
        <ele>192.8</ele>
        <time>2021-02-19T16:15:56Z</time>
      </trkpt>
      <trkpt lat="43.2727010" lon="-2.9185510">
        <ele>191.6</ele>
        <time>2021-02-19T16:15:59Z</time>
      </trkpt>
      <trkpt lat="43.2728540" lon="-2.9188990">
        <ele>190.6</ele>
        <time>2021-02-19T16:16:03Z</time>
      </trkpt>
      <trkpt lat="43.2729150" lon="-2.9189680">
        <ele>190.6</ele>
        <time>2021-02-19T16:16:04Z</time>
      </trkpt>
      <trkpt lat="43.2729790" lon="-2.9190310">
        <ele>190.4</ele>
        <time>2021-02-19T16:16:05Z</time>
      </trkpt>
      <trkpt lat="43.2731060" lon="-2.9191090">
        <ele>190.4</ele>
        <time>2021-02-19T16:16:07Z</time>
      </trkpt>
      <trkpt lat="43.2735520" lon="-2.9193640">
        <ele>190.0</ele>
        <time>2021-02-19T16:16:13Z</time>
      </trkpt>
      <trkpt lat="43.2736750" lon="-2.9195300">
        <ele>189.8</ele>
        <time>2021-02-19T16:16:15Z</time>
      </trkpt>
      <trkpt lat="43.2737640" lon="-2.9197420">
        <ele>189.6</ele>
        <time>2021-02-19T16:16:17Z</time>
      </trkpt>
      <trkpt lat="43.2737800" lon="-2.9198510">
        <ele>189.6</ele>
        <time>2021-02-19T16:16:18Z</time>
      </trkpt>
      <trkpt lat="43.2737770" lon="-2.9199500">
        <ele>189.4</ele>
        <time>2021-02-19T16:16:19Z</time>
      </trkpt>
      <trkpt lat="43.2737420" lon="-2.9201600">
        <ele>188.6</ele>
        <time>2021-02-19T16:16:21Z</time>
      </trkpt>
      <trkpt lat="43.2737270" lon="-2.9202700">
        <ele>188.2</ele>
        <time>2021-02-19T16:16:22Z</time>
      </trkpt>
      <trkpt lat="43.2737170" lon="-2.9209230">
        <ele>187.2</ele>
        <time>2021-02-19T16:16:28Z</time>
      </trkpt>
      <trkpt lat="43.2737460" lon="-2.9216790">
        <ele>187.2</ele>
        <time>2021-02-19T16:16:36Z</time>
      </trkpt>
      <trkpt lat="43.2737610" lon="-2.9217640">
        <ele>187.2</ele>
        <time>2021-02-19T16:16:37Z</time>
      </trkpt>
      <trkpt lat="43.2739450" lon="-2.9223400">
        <ele>187.2</ele>
        <time>2021-02-19T16:16:45Z</time>
      </trkpt>
      <trkpt lat="43.2743810" lon="-2.9229330">
        <ele>187.0</ele>
        <time>2021-02-19T16:16:54Z</time>
      </trkpt>
      <trkpt lat="43.2745530" lon="-2.9231570">
        <ele>187.0</ele>
        <time>2021-02-19T16:16:57Z</time>
      </trkpt>
      <trkpt lat="43.2749280" lon="-2.9236330">
        <ele>186.2</ele>
        <time>2021-02-19T16:17:03Z</time>
      </trkpt>
      <trkpt lat="43.2751160" lon="-2.9238580">
        <ele>185.0</ele>
        <time>2021-02-19T16:17:06Z</time>
      </trkpt>
      <trkpt lat="43.2754910" lon="-2.9241460">
        <ele>183.4</ele>
        <time>2021-02-19T16:17:11Z</time>
      </trkpt>
      <trkpt lat="43.2757890" lon="-2.9243510">
        <ele>182.4</ele>
        <time>2021-02-19T16:17:15Z</time>
      </trkpt>
      <trkpt lat="43.2759830" lon="-2.9245460">
        <ele>181.8</ele>
        <time>2021-02-19T16:17:18Z</time>
      </trkpt>
      <trkpt lat="43.2761280" lon="-2.9246200">
        <ele>181.6</ele>
        <time>2021-02-19T16:17:20Z</time>
      </trkpt>
      <trkpt lat="43.2762610" lon="-2.9246950">
        <ele>181.4</ele>
        <time>2021-02-19T16:17:22Z</time>
      </trkpt>
      <trkpt lat="43.2763610" lon="-2.9248290">
        <ele>181.4</ele>
        <time>2021-02-19T16:17:24Z</time>
      </trkpt>
      <trkpt lat="43.2764440" lon="-2.9249960">
        <ele>181.2</ele>
        <time>2021-02-19T16:17:26Z</time>
      </trkpt>
      <trkpt lat="43.2767350" lon="-2.9257160">
        <ele>180.8</ele>
        <time>2021-02-19T16:17:35Z</time>
      </trkpt>
      <trkpt lat="43.2768630" lon="-2.9260970">
        <ele>181.2</ele>
        <time>2021-02-19T16:17:40Z</time>
      </trkpt>
      <trkpt lat="43.2770850" lon="-2.9267450">
        <ele>182.2</ele>
        <time>2021-02-19T16:17:50Z</time>
      </trkpt>
      <trkpt lat="43.2771060" lon="-2.9268040">
        <ele>182.4</ele>
        <time>2021-02-19T16:17:51Z</time>
      </trkpt>
      <trkpt lat="43.2772180" lon="-2.9272190">
        <ele>183.6</ele>
        <time>2021-02-19T16:17:58Z</time>
      </trkpt>
      <trkpt lat="43.2773410" lon="-2.9275350">
        <ele>184.4</ele>
        <time>2021-02-19T16:18:04Z</time>
      </trkpt>
      <trkpt lat="43.2773570" lon="-2.9275890">
        <ele>184.4</ele>
        <time>2021-02-19T16:18:05Z</time>
      </trkpt>
      <trkpt lat="43.2773750" lon="-2.9276420">
        <ele>184.6</ele>
        <time>2021-02-19T16:18:06Z</time>
      </trkpt>
      <trkpt lat="43.2773950" lon="-2.9276920">
        <ele>184.8</ele>
        <time>2021-02-19T16:18:07Z</time>
      </trkpt>
      <trkpt lat="43.2775070" lon="-2.9279220">
        <ele>185.8</ele>
        <time>2021-02-19T16:18:12Z</time>
      </trkpt>
      <trkpt lat="43.2775990" lon="-2.9281070">
        <ele>186.8</ele>
        <time>2021-02-19T16:18:16Z</time>
      </trkpt>
      <trkpt lat="43.2776500" lon="-2.9282090">
        <ele>187.6</ele>
        <time>2021-02-19T16:18:18Z</time>
      </trkpt>
      <trkpt lat="43.2777070" lon="-2.9283110">
        <ele>188.0</ele>
        <time>2021-02-19T16:18:20Z</time>
      </trkpt>
      <trkpt lat="43.2779100" lon="-2.9286460">
        <ele>188.4</ele>
        <time>2021-02-19T16:18:26Z</time>
      </trkpt>
      <trkpt lat="43.2782760" lon="-2.9292170">
        <ele>188.0</ele>
        <time>2021-02-19T16:18:36Z</time>
      </trkpt>
      <trkpt lat="43.2784940" lon="-2.9295930">
        <ele>187.0</ele>
        <time>2021-02-19T16:18:42Z</time>
      </trkpt>
      <trkpt lat="43.2785340" lon="-2.9296560">
        <ele>186.8</ele>
        <time>2021-02-19T16:18:43Z</time>
      </trkpt>
      <trkpt lat="43.2786740" lon="-2.9299580">
        <ele>186.2</ele>
        <time>2021-02-19T16:18:47Z</time>
      </trkpt>
      <trkpt lat="43.2787140" lon="-2.9301310">
        <ele>186.0</ele>
        <time>2021-02-19T16:18:49Z</time>
      </trkpt>
      <trkpt lat="43.2787410" lon="-2.9303040">
        <ele>186.0</ele>
        <time>2021-02-19T16:18:51Z</time>
      </trkpt>
      <trkpt lat="43.2787300" lon="-2.9304990">
        <ele>185.8</ele>
        <time>2021-02-19T16:18:53Z</time>
      </trkpt>
      <trkpt lat="43.2786930" lon="-2.9309940">
        <ele>185.6</ele>
        <time>2021-02-19T16:18:58Z</time>
      </trkpt>
      <trkpt lat="43.2787500" lon="-2.9313940">
        <ele>184.8</ele>
        <time>2021-02-19T16:19:02Z</time>
      </trkpt>
      <trkpt lat="43.2788800" lon="-2.9318780">
        <ele>183.6</ele>
        <time>2021-02-19T16:19:07Z</time>
      </trkpt>
      <trkpt lat="43.2789760" lon="-2.9322640">
        <ele>182.2</ele>
        <time>2021-02-19T16:19:11Z</time>
      </trkpt>
      <trkpt lat="43.2791250" lon="-2.9328390">
        <ele>181.2</ele>
        <time>2021-02-19T16:19:17Z</time>
      </trkpt>
      <trkpt lat="43.2792300" lon="-2.9333030">
        <ele>180.2</ele>
        <time>2021-02-19T16:19:22Z</time>
      </trkpt>
      <trkpt lat="43.2792460" lon="-2.9335980">
        <ele>180.2</ele>
        <time>2021-02-19T16:19:25Z</time>
      </trkpt>
      <trkpt lat="43.2791850" lon="-2.9338830">
        <ele>179.2</ele>
        <time>2021-02-19T16:19:28Z</time>
      </trkpt>
      <trkpt lat="43.2791440" lon="-2.9339680">
        <ele>179.0</ele>
        <time>2021-02-19T16:19:29Z</time>
      </trkpt>
      <trkpt lat="43.2790980" lon="-2.9340450">
        <ele>179.0</ele>
        <time>2021-02-19T16:19:30Z</time>
      </trkpt>
      <trkpt lat="43.2789970" lon="-2.9341790">
        <ele>177.4</ele>
        <time>2021-02-19T16:19:32Z</time>
      </trkpt>
      <trkpt lat="43.2787180" lon="-2.9344800">
        <ele>176.4</ele>
        <time>2021-02-19T16:19:37Z</time>
      </trkpt>
      <trkpt lat="43.2783030" lon="-2.9349570">
        <ele>176.2</ele>
        <time>2021-02-19T16:19:46Z</time>
      </trkpt>
      <trkpt lat="43.2781450" lon="-2.9351410">
        <ele>175.4</ele>
        <time>2021-02-19T16:19:50Z</time>
      </trkpt>
      <trkpt lat="43.2779830" lon="-2.9354660">
        <ele>175.0</ele>
        <time>2021-02-19T16:19:55Z</time>
      </trkpt>
      <trkpt lat="43.2779530" lon="-2.9356360">
        <ele>175.0</ele>
        <time>2021-02-19T16:19:57Z</time>
      </trkpt>
      <trkpt lat="43.2779690" lon="-2.9362630">
        <ele>174.4</ele>
        <time>2021-02-19T16:20:04Z</time>
      </trkpt>
      <trkpt lat="43.2780260" lon="-2.9367980">
        <ele>173.4</ele>
        <time>2021-02-19T16:20:10Z</time>
      </trkpt>
      <trkpt lat="43.2780470" lon="-2.9368820">
        <ele>173.2</ele>
        <time>2021-02-19T16:20:11Z</time>
      </trkpt>
      <trkpt lat="43.2782800" lon="-2.9373550">
        <ele>171.6</ele>
        <time>2021-02-19T16:20:17Z</time>
      </trkpt>
      <trkpt lat="43.2784200" lon="-2.9375970">
        <ele>170.4</ele>
        <time>2021-02-19T16:20:20Z</time>
      </trkpt>
      <trkpt lat="43.2786520" lon="-2.9380130">
        <ele>169.4</ele>
        <time>2021-02-19T16:20:25Z</time>
      </trkpt>
      <trkpt lat="43.2788400" lon="-2.9383570">
        <ele>169.0</ele>
        <time>2021-02-19T16:20:29Z</time>
      </trkpt>
      <trkpt lat="43.2789910" lon="-2.9386200">
        <ele>168.4</ele>
        <time>2021-02-19T16:20:32Z</time>
      </trkpt>
      <trkpt lat="43.2792360" lon="-2.9389790">
        <ele>167.2</ele>
        <time>2021-02-19T16:20:36Z</time>
      </trkpt>
      <trkpt lat="43.2794620" lon="-2.9393570">
        <ele>166.0</ele>
        <time>2021-02-19T16:20:40Z</time>
      </trkpt>
      <trkpt lat="43.2795730" lon="-2.9395630">
        <ele>165.8</ele>
        <time>2021-02-19T16:20:42Z</time>
      </trkpt>
      <trkpt lat="43.2797030" lon="-2.9401170">
        <ele>165.0</ele>
        <time>2021-02-19T16:20:47Z</time>
      </trkpt>
      <trkpt lat="43.2797650" lon="-2.9408850">
        <ele>164.2</ele>
        <time>2021-02-19T16:20:54Z</time>
      </trkpt>
      <trkpt lat="43.2797710" lon="-2.9409900">
        <ele>163.8</ele>
        <time>2021-02-19T16:20:55Z</time>
      </trkpt>
      <trkpt lat="43.2797990" lon="-2.9414000">
        <ele>162.6</ele>
        <time>2021-02-19T16:20:59Z</time>
      </trkpt>
      <trkpt lat="43.2798310" lon="-2.9418000">
        <ele>161.4</ele>
        <time>2021-02-19T16:21:03Z</time>
      </trkpt>
      <trkpt lat="43.2798440" lon="-2.9420790">
        <ele>160.4</ele>
        <time>2021-02-19T16:21:06Z</time>
      </trkpt>
      <trkpt lat="43.2798570" lon="-2.9423560">
        <ele>158.8</ele>
        <time>2021-02-19T16:21:09Z</time>
      </trkpt>
      <trkpt lat="43.2798830" lon="-2.9427340">
        <ele>157.8</ele>
        <time>2021-02-19T16:21:13Z</time>
      </trkpt>
      <trkpt lat="43.2799390" lon="-2.9435790">
        <ele>157.0</ele>
        <time>2021-02-19T16:21:21Z</time>
      </trkpt>
      <trkpt lat="43.2799430" lon="-2.9438010">
        <ele>157.0</ele>
        <time>2021-02-19T16:21:22Z</time>
      </trkpt>
      <trkpt lat="43.2798970" lon="-2.9442420">
        <ele>156.6</ele>
        <time>2021-02-19T16:21:27Z</time>
      </trkpt>
      <trkpt lat="43.2796960" lon="-2.9449580">
        <ele>155.8</ele>
        <time>2021-02-19T16:21:34Z</time>
      </trkpt>
      <trkpt lat="43.2796660" lon="-2.9450540">
        <ele>154.8</ele>
        <time>2021-02-19T16:21:35Z</time>
      </trkpt>
      <trkpt lat="43.2795670" lon="-2.9453440">
        <ele>153.8</ele>
        <time>2021-02-19T16:21:38Z</time>
      </trkpt>
      <trkpt lat="43.2794150" lon="-2.9458040">
        <ele>152.6</ele>
        <time>2021-02-19T16:21:43Z</time>
      </trkpt>
      <trkpt lat="43.2793730" lon="-2.9459920">
        <ele>152.4</ele>
        <time>2021-02-19T16:21:45Z</time>
      </trkpt>
      <trkpt lat="43.2793810" lon="-2.9467540">
        <ele>152.4</ele>
        <time>2021-02-19T16:21:53Z</time>
      </trkpt>
      <trkpt lat="43.2795860" lon="-2.9475280">
        <ele>152.2</ele>
        <time>2021-02-19T16:22:01Z</time>
      </trkpt>
      <trkpt lat="43.2797760" lon="-2.9481970">
        <ele>151.4</ele>
        <time>2021-02-19T16:22:08Z</time>
      </trkpt>
      <trkpt lat="43.2799490" lon="-2.9487670">
        <ele>150.4</ele>
        <time>2021-02-19T16:22:14Z</time>
      </trkpt>
      <trkpt lat="43.2799780" lon="-2.9488610">
        <ele>150.4</ele>
        <time>2021-02-19T16:22:15Z</time>
      </trkpt>
      <trkpt lat="43.2800980" lon="-2.9492410">
        <ele>149.2</ele>
        <time>2021-02-19T16:22:19Z</time>
      </trkpt>
      <trkpt lat="43.2802530" lon="-2.9497430">
        <ele>148.2</ele>
        <time>2021-02-19T16:22:24Z</time>
      </trkpt>
      <trkpt lat="43.2805260" lon="-2.9504540">
        <ele>147.4</ele>
        <time>2021-02-19T16:22:31Z</time>
      </trkpt>
      <trkpt lat="43.2806210" lon="-2.9506390">
        <ele>147.2</ele>
        <time>2021-02-19T16:22:33Z</time>
      </trkpt>
      <trkpt lat="43.2808780" lon="-2.9510800">
        <ele>146.0</ele>
        <time>2021-02-19T16:22:38Z</time>
      </trkpt>
      <trkpt lat="43.2811720" lon="-2.9514760">
        <ele>145.6</ele>
        <time>2021-02-19T16:22:43Z</time>
      </trkpt>
      <trkpt lat="43.2816530" lon="-2.9519730">
        <ele>145.4</ele>
        <time>2021-02-19T16:22:50Z</time>
      </trkpt>
      <trkpt lat="43.2819530" lon="-2.9521820">
        <ele>144.6</ele>
        <time>2021-02-19T16:22:54Z</time>
      </trkpt>
      <trkpt lat="43.2821840" lon="-2.9523190">
        <ele>143.6</ele>
        <time>2021-02-19T16:22:57Z</time>
      </trkpt>
      <trkpt lat="43.2825570" lon="-2.9525270">
        <ele>142.6</ele>
        <time>2021-02-19T16:23:02Z</time>
      </trkpt>
      <trkpt lat="43.2830720" lon="-2.9528840">
        <ele>142.0</ele>
        <time>2021-02-19T16:23:10Z</time>
      </trkpt>
      <trkpt lat="43.2835640" lon="-2.9533440">
        <ele>141.8</ele>
        <time>2021-02-19T16:23:18Z</time>
      </trkpt>
      <trkpt lat="43.2838090" lon="-2.9535750">
        <ele>141.2</ele>
        <time>2021-02-19T16:23:22Z</time>
      </trkpt>
      <trkpt lat="43.2840480" lon="-2.9538040">
        <ele>140.2</ele>
        <time>2021-02-19T16:23:26Z</time>
      </trkpt>
      <trkpt lat="43.2843250" lon="-2.9540510">
        <ele>138.4</ele>
        <time>2021-02-19T16:23:30Z</time>
      </trkpt>
      <trkpt lat="43.2844720" lon="-2.9541880">
        <ele>137.4</ele>
        <time>2021-02-19T16:23:32Z</time>
      </trkpt>
      <trkpt lat="43.2847650" lon="-2.9544910">
        <ele>136.2</ele>
        <time>2021-02-19T16:23:36Z</time>
      </trkpt>
      <trkpt lat="43.2848330" lon="-2.9545830">
        <ele>135.6</ele>
        <time>2021-02-19T16:23:37Z</time>
      </trkpt>
      <trkpt lat="43.2849660" lon="-2.9547710">
        <ele>134.6</ele>
        <time>2021-02-19T16:23:38Z</time>
      </trkpt>
      <trkpt lat="43.2850310" lon="-2.9548660">
        <ele>133.0</ele>
        <time>2021-02-19T16:23:40Z</time>
      </trkpt>
      <trkpt lat="43.2852810" lon="-2.9552500">
        <ele>131.8</ele>
        <time>2021-02-19T16:23:44Z</time>
      </trkpt>
      <trkpt lat="43.2854610" lon="-2.9555600">
        <ele>130.0</ele>
        <time>2021-02-19T16:23:47Z</time>
      </trkpt>
      <trkpt lat="43.2855830" lon="-2.9557650">
        <ele>128.6</ele>
        <time>2021-02-19T16:23:49Z</time>
      </trkpt>
      <trkpt lat="43.2857720" lon="-2.9560770">
        <ele>127.2</ele>
        <time>2021-02-19T16:23:52Z</time>
      </trkpt>
      <trkpt lat="43.2859080" lon="-2.9562930">
        <ele>125.6</ele>
        <time>2021-02-19T16:23:54Z</time>
      </trkpt>
      <trkpt lat="43.2860540" lon="-2.9564970">
        <ele>123.8</ele>
        <time>2021-02-19T16:23:56Z</time>
      </trkpt>
      <trkpt lat="43.2862020" lon="-2.9566930">
        <ele>122.8</ele>
        <time>2021-02-19T16:23:58Z</time>
      </trkpt>
      <trkpt lat="43.2863630" lon="-2.9568880">
        <ele>121.4</ele>
        <time>2021-02-19T16:24:00Z</time>
      </trkpt>
      <trkpt lat="43.2865270" lon="-2.9570790">
        <ele>120.4</ele>
        <time>2021-02-19T16:24:02Z</time>
      </trkpt>
      <trkpt lat="43.2867910" lon="-2.9573200">
        <ele>119.0</ele>
        <time>2021-02-19T16:24:05Z</time>
      </trkpt>
      <trkpt lat="43.2870610" lon="-2.9574870">
        <ele>117.4</ele>
        <time>2021-02-19T16:24:08Z</time>
      </trkpt>
      <trkpt lat="43.2872400" lon="-2.9575270">
        <ele>116.2</ele>
        <time>2021-02-19T16:24:10Z</time>
      </trkpt>
      <trkpt lat="43.2875210" lon="-2.9575230">
        <ele>114.6</ele>
        <time>2021-02-19T16:24:13Z</time>
      </trkpt>
      <trkpt lat="43.2877100" lon="-2.9575550">
        <ele>113.2</ele>
        <time>2021-02-19T16:24:15Z</time>
      </trkpt>
      <trkpt lat="43.2878050" lon="-2.9575920">
        <ele>112.2</ele>
        <time>2021-02-19T16:24:16Z</time>
      </trkpt>
      <trkpt lat="43.2878930" lon="-2.9576480">
        <ele>111.0</ele>
        <time>2021-02-19T16:24:17Z</time>
      </trkpt>
      <trkpt lat="43.2879700" lon="-2.9577420">
        <ele>110.0</ele>
        <time>2021-02-19T16:24:18Z</time>
      </trkpt>
      <trkpt lat="43.2880360" lon="-2.9578620">
        <ele>108.6</ele>
        <time>2021-02-19T16:24:19Z</time>
      </trkpt>
      <trkpt lat="43.2880930" lon="-2.9580000">
        <ele>107.0</ele>
        <time>2021-02-19T16:24:20Z</time>
      </trkpt>
      <trkpt lat="43.2881400" lon="-2.9581490">
        <ele>106.0</ele>
        <time>2021-02-19T16:24:21Z</time>
      </trkpt>
      <trkpt lat="43.2882080" lon="-2.9584690">
        <ele>104.6</ele>
        <time>2021-02-19T16:24:23Z</time>
      </trkpt>
      <trkpt lat="43.2882790" lon="-2.9587900">
        <ele>102.8</ele>
        <time>2021-02-19T16:24:25Z</time>
      </trkpt>
      <trkpt lat="43.2883230" lon="-2.9589380">
        <ele>102.0</ele>
        <time>2021-02-19T16:24:26Z</time>
      </trkpt>
      <trkpt lat="43.2883750" lon="-2.9590650">
        <ele>101.2</ele>
        <time>2021-02-19T16:24:27Z</time>
      </trkpt>
      <trkpt lat="43.2884420" lon="-2.9591750">
        <ele>100.8</ele>
        <time>2021-02-19T16:24:28Z</time>
      </trkpt>
      <trkpt lat="43.2886160" lon="-2.9593290">
        <ele>100.2</ele>
        <time>2021-02-19T16:24:30Z</time>
      </trkpt>
      <trkpt lat="43.2887260" lon="-2.9593760">
        <ele>98.6</ele>
        <time>2021-02-19T16:24:31Z</time>
      </trkpt>
      <trkpt lat="43.2888380" lon="-2.9593940">
        <ele>97.6</ele>
        <time>2021-02-19T16:24:32Z</time>
      </trkpt>
      <trkpt lat="43.2889570" lon="-2.9593950">
        <ele>96.2</ele>
        <time>2021-02-19T16:24:33Z</time>
      </trkpt>
      <trkpt lat="43.2890770" lon="-2.9593830">
        <ele>95.2</ele>
        <time>2021-02-19T16:24:34Z</time>
      </trkpt>
      <trkpt lat="43.2891950" lon="-2.9593660">
        <ele>94.2</ele>
        <time>2021-02-19T16:24:35Z</time>
      </trkpt>
      <trkpt lat="43.2893130" lon="-2.9593600">
        <ele>93.2</ele>
        <time>2021-02-19T16:24:36Z</time>
      </trkpt>
      <trkpt lat="43.2894270" lon="-2.9593740">
        <ele>91.6</ele>
        <time>2021-02-19T16:24:37Z</time>
      </trkpt>
      <trkpt lat="43.2895350" lon="-2.9594180">
        <ele>90.4</ele>
        <time>2021-02-19T16:24:38Z</time>
      </trkpt>
      <trkpt lat="43.2897180" lon="-2.9595840">
        <ele>88.4</ele>
        <time>2021-02-19T16:24:40Z</time>
      </trkpt>
      <trkpt lat="43.2897960" lon="-2.9597040">
        <ele>86.6</ele>
        <time>2021-02-19T16:24:41Z</time>
      </trkpt>
      <trkpt lat="43.2898600" lon="-2.9598310">
        <ele>85.8</ele>
        <time>2021-02-19T16:24:42Z</time>
      </trkpt>
      <trkpt lat="43.2899190" lon="-2.9599540">
        <ele>85.0</ele>
        <time>2021-02-19T16:24:43Z</time>
      </trkpt>
      <trkpt lat="43.2899620" lon="-2.9600710">
        <ele>84.0</ele>
        <time>2021-02-19T16:24:44Z</time>
      </trkpt>
      <trkpt lat="43.2900010" lon="-2.9601830">
        <ele>83.0</ele>
        <time>2021-02-19T16:24:45Z</time>
      </trkpt>
      <trkpt lat="43.2900190" lon="-2.9602960">
        <ele>82.2</ele>
        <time>2021-02-19T16:24:46Z</time>
      </trkpt>
      <trkpt lat="43.2900240" lon="-2.9604100">
        <ele>81.6</ele>
        <time>2021-02-19T16:24:47Z</time>
      </trkpt>
      <trkpt lat="43.2900160" lon="-2.9605280">
        <ele>81.2</ele>
        <time>2021-02-19T16:24:48Z</time>
      </trkpt>
      <trkpt lat="43.2899980" lon="-2.9606510">
        <ele>80.2</ele>
        <time>2021-02-19T16:24:49Z</time>
      </trkpt>
      <trkpt lat="43.2899770" lon="-2.9607690">
        <ele>79.4</ele>
        <time>2021-02-19T16:24:50Z</time>
      </trkpt>
      <trkpt lat="43.2899510" lon="-2.9608770">
        <ele>78.4</ele>
        <time>2021-02-19T16:24:51Z</time>
      </trkpt>
      <trkpt lat="43.2899310" lon="-2.9609710">
        <ele>77.2</ele>
        <time>2021-02-19T16:24:52Z</time>
      </trkpt>
      <trkpt lat="43.2899150" lon="-2.9610540">
        <ele>76.0</ele>
        <time>2021-02-19T16:24:53Z</time>
      </trkpt>
      <trkpt lat="43.2898860" lon="-2.9612060">
        <ele>74.4</ele>
        <time>2021-02-19T16:24:55Z</time>
      </trkpt>
      <trkpt lat="43.2898740" lon="-2.9612790">
        <ele>73.2</ele>
        <time>2021-02-19T16:24:56Z</time>
      </trkpt>
      <trkpt lat="43.2898470" lon="-2.9614100">
        <ele>71.8</ele>
        <time>2021-02-19T16:24:58Z</time>
      </trkpt>
      <trkpt lat="43.2897910" lon="-2.9615620">
        <ele>70.4</ele>
        <time>2021-02-19T16:25:01Z</time>
      </trkpt>
      <trkpt lat="43.2897210" lon="-2.9616140">
        <ele>69.6</ele>
        <time>2021-02-19T16:25:03Z</time>
      </trkpt>
      <trkpt lat="43.2896790" lon="-2.9616150">
        <ele>69.0</ele>
        <time>2021-02-19T16:25:04Z</time>
      </trkpt>
      <trkpt lat="43.2895940" lon="-2.9615710">
        <ele>67.4</ele>
        <time>2021-02-19T16:25:06Z</time>
      </trkpt>
      <trkpt lat="43.2895090" lon="-2.9615100">
        <ele>66.4</ele>
        <time>2021-02-19T16:25:08Z</time>
      </trkpt>
      <trkpt lat="43.2891450" lon="-2.9612660">
        <ele>65.2</ele>
        <time>2021-02-19T16:25:16Z</time>
      </trkpt>
      <trkpt lat="43.2887830" lon="-2.9610350">
        <ele>64.4</ele>
        <time>2021-02-19T16:25:28Z</time>
      </trkpt>
      <trkpt lat="43.2883130" lon="-2.9606360">
        <ele>64.2</ele>
        <time>2021-02-19T16:25:44Z</time>
      </trkpt>
      <trkpt lat="43.2878400" lon="-2.9601590">
        <ele>64.0</ele>
        <time>2021-02-19T16:25:54Z</time>
      </trkpt>
      <trkpt lat="43.2874060" lon="-2.9596370">
        <ele>63.6</ele>
        <time>2021-02-19T16:26:02Z</time>
      </trkpt>
      <trkpt lat="43.2872270" lon="-2.9594390">
        <ele>63.2</ele>
        <time>2021-02-19T16:26:05Z</time>
      </trkpt>
      <trkpt lat="43.2869740" lon="-2.9591930">
        <ele>62.8</ele>
        <time>2021-02-19T16:26:09Z</time>
      </trkpt>
      <trkpt lat="43.2865820" lon="-2.9589280">
        <ele>62.0</ele>
        <time>2021-02-19T16:26:15Z</time>
      </trkpt>
      <trkpt lat="43.2864510" lon="-2.9588630">
        <ele>61.0</ele>
        <time>2021-02-19T16:26:17Z</time>
      </trkpt>
      <trkpt lat="43.2861210" lon="-2.9587370">
        <ele>60.0</ele>
        <time>2021-02-19T16:26:22Z</time>
      </trkpt>
      <trkpt lat="43.2856410" lon="-2.9586550">
        <ele>60.4</ele>
        <time>2021-02-19T16:26:29Z</time>
      </trkpt>
      <trkpt lat="43.2850840" lon="-2.9585840">
        <ele>60.6</ele>
        <time>2021-02-19T16:26:37Z</time>
      </trkpt>
      <trkpt lat="43.2848010" lon="-2.9585250">
        <ele>60.2</ele>
        <time>2021-02-19T16:26:41Z</time>
      </trkpt>
      <trkpt lat="43.2845910" lon="-2.9584420">
        <ele>59.8</ele>
        <time>2021-02-19T16:26:44Z</time>
      </trkpt>
      <trkpt lat="43.2840970" lon="-2.9581330">
        <ele>59.4</ele>
        <time>2021-02-19T16:26:51Z</time>
      </trkpt>
      <trkpt lat="43.2836010" lon="-2.9576850">
        <ele>58.6</ele>
        <time>2021-02-19T16:26:58Z</time>
      </trkpt>
      <trkpt lat="43.2833180" lon="-2.9574170">
        <ele>57.4</ele>
        <time>2021-02-19T16:27:02Z</time>
      </trkpt>
      <trkpt lat="43.2831670" lon="-2.9572890">
        <ele>55.6</ele>
        <time>2021-02-19T16:27:04Z</time>
      </trkpt>
      <trkpt lat="43.2830080" lon="-2.9571700">
        <ele>54.4</ele>
        <time>2021-02-19T16:27:06Z</time>
      </trkpt>
      <trkpt lat="43.2827530" lon="-2.9570240">
        <ele>53.2</ele>
        <time>2021-02-19T16:27:09Z</time>
      </trkpt>
      <trkpt lat="43.2825780" lon="-2.9569450">
        <ele>51.6</ele>
        <time>2021-02-19T16:27:11Z</time>
      </trkpt>
      <trkpt lat="43.2823970" lon="-2.9568820">
        <ele>50.4</ele>
        <time>2021-02-19T16:27:13Z</time>
      </trkpt>
      <trkpt lat="43.2820170" lon="-2.9568020">
        <ele>49.2</ele>
        <time>2021-02-19T16:27:17Z</time>
      </trkpt>
      <trkpt lat="43.2816260" lon="-2.9567610">
        <ele>48.2</ele>
        <time>2021-02-19T16:27:21Z</time>
      </trkpt>
      <trkpt lat="43.2813380" lon="-2.9567300">
        <ele>47.0</ele>
        <time>2021-02-19T16:27:24Z</time>
      </trkpt>
      <trkpt lat="43.2810530" lon="-2.9566940">
        <ele>45.8</ele>
        <time>2021-02-19T16:27:27Z</time>
      </trkpt>
      <trkpt lat="43.2808640" lon="-2.9566690">
        <ele>44.2</ele>
        <time>2021-02-19T16:27:29Z</time>
      </trkpt>
      <trkpt lat="43.2806760" lon="-2.9566390">
        <ele>43.0</ele>
        <time>2021-02-19T16:27:31Z</time>
      </trkpt>
      <trkpt lat="43.2804900" lon="-2.9565990">
        <ele>41.6</ele>
        <time>2021-02-19T16:27:33Z</time>
      </trkpt>
      <trkpt lat="43.2801140" lon="-2.9564940">
        <ele>40.4</ele>
        <time>2021-02-19T16:27:37Z</time>
      </trkpt>
      <trkpt lat="43.2796630" lon="-2.9563440">
        <ele>39.2</ele>
        <time>2021-02-19T16:27:42Z</time>
      </trkpt>
      <trkpt lat="43.2794880" lon="-2.9562700">
        <ele>38.2</ele>
        <time>2021-02-19T16:27:44Z</time>
      </trkpt>
      <trkpt lat="43.2792280" lon="-2.9561520">
        <ele>36.4</ele>
        <time>2021-02-19T16:27:47Z</time>
      </trkpt>
      <trkpt lat="43.2789730" lon="-2.9560220">
        <ele>34.8</ele>
        <time>2021-02-19T16:27:50Z</time>
      </trkpt>
      <trkpt lat="43.2787220" lon="-2.9558880">
        <ele>33.4</ele>
        <time>2021-02-19T16:27:53Z</time>
      </trkpt>
      <trkpt lat="43.2784870" lon="-2.9557650">
        <ele>32.2</ele>
        <time>2021-02-19T16:27:56Z</time>
      </trkpt>
      <trkpt lat="43.2783460" lon="-2.9556700">
        <ele>31.0</ele>
        <time>2021-02-19T16:27:58Z</time>
      </trkpt>
      <trkpt lat="43.2781350" lon="-2.9555210">
        <ele>30.0</ele>
        <time>2021-02-19T16:28:01Z</time>
      </trkpt>
      <trkpt lat="43.2779820" lon="-2.9554240">
        <ele>27.6</ele>
        <time>2021-02-19T16:28:03Z</time>
      </trkpt>
      <trkpt lat="43.2779020" lon="-2.9553780">
        <ele>26.4</ele>
        <time>2021-02-19T16:28:04Z</time>
      </trkpt>
      <trkpt lat="43.2778200" lon="-2.9553290">
        <ele>25.4</ele>
        <time>2021-02-19T16:28:05Z</time>
      </trkpt>
      <trkpt lat="43.2777400" lon="-2.9552800">
        <ele>24.4</ele>
        <time>2021-02-19T16:28:06Z</time>
      </trkpt>
      <trkpt lat="43.2774980" lon="-2.9551430">
        <ele>23.0</ele>
        <time>2021-02-19T16:28:09Z</time>
      </trkpt>
      <trkpt lat="43.2773310" lon="-2.9550500">
        <ele>21.8</ele>
        <time>2021-02-19T16:28:11Z</time>
      </trkpt>
      <trkpt lat="43.2772460" lon="-2.9550080">
        <ele>20.8</ele>
        <time>2021-02-19T16:28:12Z</time>
      </trkpt>
      <trkpt lat="43.2770810" lon="-2.9549270">
        <ele>18.8</ele>
        <time>2021-02-19T16:28:14Z</time>
      </trkpt>
      <trkpt lat="43.2769150" lon="-2.9548410">
        <ele>17.0</ele>
        <time>2021-02-19T16:28:16Z</time>
      </trkpt>
      <trkpt lat="43.2767450" lon="-2.9547720">
        <ele>15.6</ele>
        <time>2021-02-19T16:28:18Z</time>
      </trkpt>
      <trkpt lat="43.2764310" lon="-2.9546410">
        <ele>14.4</ele>
        <time>2021-02-19T16:28:22Z</time>
      </trkpt>
      <trkpt lat="43.2762060" lon="-2.9545690">
        <ele>13.4</ele>
        <time>2021-02-19T16:28:25Z</time>
      </trkpt>
      <trkpt lat="43.2760650" lon="-2.9545180">
        <ele>12.0</ele>
        <time>2021-02-19T16:28:27Z</time>
      </trkpt>
      <trkpt lat="43.2759230" lon="-2.9544780">
        <ele>10.6</ele>
        <time>2021-02-19T16:28:29Z</time>
      </trkpt>
      <trkpt lat="43.2755150" lon="-2.9543920">
        <ele>9.6</ele>
        <time>2021-02-19T16:28:35Z</time>
      </trkpt>
      <trkpt lat="43.2751660" lon="-2.9543540">
        <ele>8.4</ele>
        <time>2021-02-19T16:28:40Z</time>
      </trkpt>
      <trkpt lat="43.2745760" lon="-2.9542830">
        <ele>8.0</ele>
        <time>2021-02-19T16:28:49Z</time>
      </trkpt>
      <trkpt lat="43.2740320" lon="-2.9542110">
        <ele>7.4</ele>
        <time>2021-02-19T16:28:58Z</time>
      </trkpt>
      <trkpt lat="43.2739760" lon="-2.9542200">
        <ele>7.4</ele>
        <time>2021-02-19T16:28:59Z</time>
      </trkpt>
      <trkpt lat="43.2737540" lon="-2.9542280">
        <ele>7.2</ele>
        <time>2021-02-19T16:29:03Z</time>
      </trkpt>
      <trkpt lat="43.2736490" lon="-2.9541510">
        <ele>7.0</ele>
        <time>2021-02-19T16:29:05Z</time>
      </trkpt>
      <trkpt lat="43.2733650" lon="-2.9535120">
        <ele>7.0</ele>
        <time>2021-02-19T16:29:14Z</time>
      </trkpt>
      <trkpt lat="43.2732370" lon="-2.9531430">
        <ele>7.4</ele>
        <time>2021-02-19T16:29:20Z</time>
      </trkpt>
      <trkpt lat="43.2730690" lon="-2.9524270">
        <ele>7.8</ele>
        <time>2021-02-19T16:29:31Z</time>
      </trkpt>
      <trkpt lat="43.2729390" lon="-2.9519130">
        <ele>7.2</ele>
        <time>2021-02-19T16:29:40Z</time>
      </trkpt>
      <trkpt lat="43.2729050" lon="-2.9516620">
        <ele>6.2</ele>
        <time>2021-02-19T16:29:46Z</time>
      </trkpt>
      <trkpt lat="43.2729000" lon="-2.9515760">
        <ele>5.0</ele>
        <time>2021-02-19T16:29:50Z</time>
      </trkpt>
      <trkpt lat="43.2728980" lon="-2.9515600">
        <ele>4.6</ele>
        <time>2021-02-19T16:29:53Z</time>
      </trkpt>
      <trkpt lat="43.2728930" lon="-2.9515000">
        <ele>3.8</ele>
        <time>2021-02-19T16:30:04Z</time>
      </trkpt>
      <trkpt lat="43.2727600" lon="-2.9507800">
        <ele>3.4</ele>
        <time>2021-02-19T16:30:15Z</time>
      </trkpt>
      <trkpt lat="43.2727260" lon="-2.9506250">
        <ele>2.6</ele>
        <time>2021-02-19T16:30:17Z</time>
      </trkpt>
      <trkpt lat="43.2726020" lon="-2.9499400">
        <ele>1.6</ele>
        <time>2021-02-19T16:30:25Z</time>
      </trkpt>
      <trkpt lat="43.2725140" lon="-2.9494430">
        <ele>0.2</ele>
        <time>2021-02-19T16:30:30Z</time>
      </trkpt>
      <trkpt lat="43.2724710" lon="-2.9491420">
        <ele>-1.2</ele>
        <time>2021-02-19T16:30:33Z</time>
      </trkpt>
      <trkpt lat="43.2724100" lon="-2.9487830">
        <ele>-2.6</ele>
        <time>2021-02-19T16:30:37Z</time>
      </trkpt>
      <trkpt lat="43.2723910" lon="-2.9486130">
        <ele>-3.6</ele>
        <time>2021-02-19T16:30:39Z</time>
      </trkpt>
      <trkpt lat="43.2723650" lon="-2.9484670">
        <ele>-5.4</ele>
        <time>2021-02-19T16:30:41Z</time>
      </trkpt>
      <trkpt lat="43.2723600" lon="-2.9483050">
        <ele>-6.4</ele>
        <time>2021-02-19T16:30:44Z</time>
      </trkpt>
      <trkpt lat="43.2724290" lon="-2.9482390">
        <ele>-7.8</ele>
        <time>2021-02-19T16:30:48Z</time>
      </trkpt>
      <trkpt lat="43.2724370" lon="-2.9481420">
        <ele>-10.4</ele>
        <time>2021-02-19T16:31:23Z</time>
      </trkpt>
      <trkpt lat="43.2723380" lon="-2.9479850">
        <ele>-10.6</ele>
        <time>2021-02-19T16:31:27Z</time>
      </trkpt>
      <trkpt lat="43.2721070" lon="-2.9478150">
        <ele>-10.8</ele>
        <time>2021-02-19T16:31:32Z</time>
      </trkpt>
      <trkpt lat="43.2720430" lon="-2.9477100">
        <ele>-11.4</ele>
        <time>2021-02-19T16:31:34Z</time>
      </trkpt>
      <trkpt lat="43.2720250" lon="-2.9476570">
        <ele>-11.8</ele>
        <time>2021-02-19T16:31:35Z</time>
      </trkpt>
      <trkpt lat="43.2719130" lon="-2.9474370">
        <ele>-12.8</ele>
        <time>2021-02-19T16:31:40Z</time>
      </trkpt>
      <trkpt lat="43.2718760" lon="-2.9474130">
        <ele>-12.8</ele>
        <time>2021-02-19T16:31:41Z</time>
      </trkpt>
      <trkpt lat="43.2718370" lon="-2.9473960">
        <ele>-12.8</ele>
        <time>2021-02-19T16:31:42Z</time>
      </trkpt>
      <trkpt lat="43.2717970" lon="-2.9473890">
        <ele>-13.0</ele>
        <time>2021-02-19T16:31:43Z</time>
      </trkpt>
      <trkpt lat="43.2717600" lon="-2.9473840">
        <ele>-13.0</ele>
        <time>2021-02-19T16:31:44Z</time>
      </trkpt>
      <trkpt lat="43.2716870" lon="-2.9473800">
        <ele>-13.2</ele>
        <time>2021-02-19T16:31:46Z</time>
      </trkpt>
      <trkpt lat="43.2716470" lon="-2.9473790">
        <ele>-13.2</ele>
        <time>2021-02-19T16:31:47Z</time>
      </trkpt>
      <trkpt lat="43.2716060" lon="-2.9473760">
        <ele>-13.2</ele>
        <time>2021-02-19T16:31:48Z</time>
      </trkpt>
      <trkpt lat="43.2715230" lon="-2.9473920">
        <ele>-13.2</ele>
        <time>2021-02-19T16:31:50Z</time>
      </trkpt>
      <trkpt lat="43.2714860" lon="-2.9474030">
        <ele>-13.2</ele>
        <time>2021-02-19T16:31:51Z</time>
      </trkpt>
      <trkpt lat="43.2713590" lon="-2.9474290">
        <ele>-13.8</ele>
        <time>2021-02-19T16:31:54Z</time>
      </trkpt>
      <trkpt lat="43.2712450" lon="-2.9474380">
        <ele>-14.6</ele>
        <time>2021-02-19T16:31:57Z</time>
      </trkpt>
      <trkpt lat="43.2711290" lon="-2.9474450">
        <ele>-14.8</ele>
        <time>2021-02-19T16:32:00Z</time>
      </trkpt>
      <trkpt lat="43.2710910" lon="-2.9474440">
        <ele>-15.0</ele>
        <time>2021-02-19T16:32:01Z</time>
      </trkpt>
      <trkpt lat="43.2709660" lon="-2.9474010">
        <ele>-15.4</ele>
        <time>2021-02-19T16:32:04Z</time>
      </trkpt>
      <trkpt lat="43.2708070" lon="-2.9474200">
        <ele>-16.0</ele>
        <time>2021-02-19T16:32:08Z</time>
      </trkpt>
      <trkpt lat="43.2705410" lon="-2.9474300">
        <ele>-17.0</ele>
        <time>2021-02-19T16:32:16Z</time>
      </trkpt>
      <trkpt lat="43.2704670" lon="-2.9474240">
        <ele>-18.2</ele>
        <time>2021-02-19T16:32:19Z</time>
      </trkpt>
      <trkpt lat="43.2700770" lon="-2.9474040">
        <ele>-19.2</ele>
        <time>2021-02-19T16:32:35Z</time>
      </trkpt>
      <trkpt lat="43.2700390" lon="-2.9474100">
        <ele>-19.4</ele>
        <time>2021-02-19T16:32:39Z</time>
      </trkpt>
      <trkpt lat="43.2699620" lon="-2.9473810">
        <ele>-20.2</ele>
        <time>2021-02-19T16:32:55Z</time>
      </trkpt>
      <trkpt lat="43.2699370" lon="-2.9473770">
        <ele>-20.2</ele>
        <time>2021-02-19T16:32:56Z</time>
      </trkpt>
      <trkpt lat="43.2699090" lon="-2.9473690">
        <ele>-20.2</ele>
        <time>2021-02-19T16:32:57Z</time>
      </trkpt>
      <trkpt lat="43.2697710" lon="-2.9473580">
        <ele>-20.4</ele>
        <time>2021-02-19T16:33:01Z</time>
      </trkpt>
      <trkpt lat="43.2696660" lon="-2.9473510">
        <ele>-21.0</ele>
        <time>2021-02-19T16:33:04Z</time>
      </trkpt>
      <trkpt lat="43.2696300" lon="-2.9473480">
        <ele>-21.2</ele>
        <time>2021-02-19T16:33:05Z</time>
      </trkpt>
      <trkpt lat="43.2694900" lon="-2.9473410">
        <ele>-22.4</ele>
        <time>2021-02-19T16:33:09Z</time>
      </trkpt>
      <trkpt lat="43.2691760" lon="-2.9473270">
        <ele>-23.4</ele>
        <time>2021-02-19T16:33:18Z</time>
      </trkpt>
      <trkpt lat="43.2690250" lon="-2.9473150">
        <ele>-24.4</ele>
        <time>2021-02-19T16:33:26Z</time>
      </trkpt>
      <trkpt lat="43.2689870" lon="-2.9472940">
        <ele>-25.4</ele>
        <time>2021-02-19T16:34:17Z</time>
      </trkpt>
      <trkpt lat="43.2687630" lon="-2.9472490">
        <ele>-25.0</ele>
        <time>2021-02-19T16:34:24Z</time>
      </trkpt>
      <trkpt lat="43.2687260" lon="-2.9472440">
        <ele>-25.0</ele>
        <time>2021-02-19T16:34:25Z</time>
      </trkpt>
      <trkpt lat="43.2686910" lon="-2.9472380">
        <ele>-25.0</ele>
        <time>2021-02-19T16:34:26Z</time>
      </trkpt>
      <trkpt lat="43.2685220" lon="-2.9471960">
        <ele>-24.8</ele>
        <time>2021-02-19T16:34:31Z</time>
      </trkpt>
      <trkpt lat="43.2684910" lon="-2.9471900">
        <ele>-24.8</ele>
        <time>2021-02-19T16:34:32Z</time>
      </trkpt>
      <trkpt lat="43.2684590" lon="-2.9471900">
        <ele>-24.8</ele>
        <time>2021-02-19T16:34:33Z</time>
      </trkpt>
      <trkpt lat="43.2682940" lon="-2.9471460">
        <ele>-25.2</ele>
        <time>2021-02-19T16:34:41Z</time>
      </trkpt>
      <trkpt lat="43.2682820" lon="-2.9471460">
        <ele>-25.4</ele>
        <time>2021-02-19T16:34:43Z</time>
      </trkpt>
    </trkseg>
  </trk>
</gpx>
